Wetterdaten: Dienstag, 31.10.2017
Datum Zeit Temp. A. Pool Temp. Feuchte A. Luftdruck Regen Wind Richtung Richtung Sonnenschein ET UV Solar Taupunkt Windchill Windben Empfang
31.10.2017 00:00 3,2 C 8,3 C 90 % 1026,3 hPa 0,0 l/m 8,2 km/h (2 Bft) S-SW 209 0 min 0,000 mm 0,0 UV-I 0 W/m 1,7 C 1,5 C 11,3 km/h (2 Bft) 98,00 %
31.10.2017 00:02 3,2 C 8,3 C 90 % 1026,3 hPa 0,0 l/m 8,9 km/h (2 Bft) SW 227 0 min 0,000 mm 0,0 UV-I 0 W/m 1,7 C 0,9 C 12,9 km/h (3 Bft) 97,22 %
31.10.2017 00:04 3,2 C 8,3 C 90 % 1026,2 hPa 0,0 l/m 8,8 km/h (2 Bft) W-SW 251 0 min 0,000 mm 0,0 UV-I 0 W/m 1,7 C 1,0 C 12,9 km/h (3 Bft) 97,92 %
31.10.2017 00:06 3,2 C 8,3 C 90 % 1026,2 hPa 0,0 l/m 9,9 km/h (2 Bft) SW 223 0 min 0,000 mm 0,0 UV-I 0 W/m 1,7 C 0,2 C 16,1 km/h (3 Bft) 98,08 %
31.10.2017 00:08 3,2 C 8,3 C 90 % 1026,3 hPa 0,0 l/m 9,5 km/h (2 Bft) SW 229 0 min 0,000 mm 0,0 UV-I 0 W/m 1,7 C 0,5 C 16,1 km/h (3 Bft) 97,44 %
31.10.2017 00:10 3,2 C 8,3 C 90 % 1026,2 hPa 0,0 l/m 7,0 km/h (2 Bft) SW 230 0 min 0,000 mm 0,0 UV-I 0 W/m 1,7 C 2,6 C 9,7 km/h (2 Bft) 98,21 %
31.10.2017 00:12 3,2 C 8,3 C 90 % 1026,3 hPa 0,0 l/m 7,9 km/h (2 Bft) S-SW 201 0 min 0,000 mm 0,0 UV-I 0 W/m 1,7 C 1,8 C 11,3 km/h (2 Bft) 97,56 %
31.10.2017 00:14 3,2 C 8,3 C 90 % 1026,3 hPa 0,0 l/m 9,3 km/h (2 Bft) SW 221 0 min 0,000 mm 0,0 UV-I 0 W/m 1,7 C 0,6 C 14,5 km/h (3 Bft) 98,00 %
31.10.2017 00:16 3,2 C 8,3 C 90 % 1026,3 hPa 0,0 l/m 7,8 km/h (2 Bft) W-SW 244 0 min 0,000 mm 0,0 UV-I 0 W/m 1,7 C 1,9 C 12,9 km/h (3 Bft) 96,23 %
31.10.2017 00:18 3,2 C 8,3 C 90 % 1026,2 hPa 0,0 l/m 8,1 km/h (2 Bft) SW 235 0 min 0,000 mm 0,0 UV-I 0 W/m 1,7 C 1,6 C 12,9 km/h (3 Bft) 97,87 %
31.10.2017 00:20 3,2 C 8,3 C 90 % 1026,3 hPa 0,0 l/m 7,3 km/h (2 Bft) SW 219 0 min 0,000 mm 0,0 UV-I 0 W/m 1,7 C 2,4 C 12,9 km/h (3 Bft) 95,12 %
31.10.2017 00:22 3,2 C 8,3 C 90 % 1026,2 hPa 0,0 l/m 8,3 km/h (2 Bft) W-SW 258 0 min 0,000 mm 0,0 UV-I 0 W/m 1,7 C 1,5 C 14,5 km/h (3 Bft) 96,00 %
31.10.2017 00:24 3,2 C 8,3 C 90 % 1026,3 hPa 0,0 l/m 8,0 km/h (2 Bft) W-SW 252 0 min 0,000 mm 0,0 UV-I 0 W/m 1,7 C 1,7 C 12,9 km/h (3 Bft) 97,37 %
31.10.2017 00:26 3,2 C 8,3 C 90 % 1026,2 hPa 0,0 l/m 7,1 km/h (2 Bft) SW 224 0 min 0,000 mm 0,0 UV-I 0 W/m 1,7 C 2,5 C 9,7 km/h (2 Bft) 96,43 %
31.10.2017 00:28 3,2 C 8,3 C 90 % 1026,3 hPa 0,0 l/m 9,8 km/h (2 Bft) W-SW 252 0 min 0,000 mm 0,0 UV-I 0 W/m 1,7 C 0,2 C 12,9 km/h (3 Bft) 97,87 %
31.10.2017 00:30 3,2 C 8,3 C 90 % 1026,3 hPa 0,0 l/m 10,2 km/h (2 Bft) W-SW 239 0 min 0,000 mm 0,0 UV-I 0 W/m 1,7 C -0,1 C 14,5 km/h (3 Bft) 95,74 %
31.10.2017 00:32 3,2 C 8,3 C 90 % 1026,3 hPa 0,0 l/m 7,5 km/h (2 Bft) SW 231 0 min 0,000 mm 0,0 UV-I 0 W/m 1,7 C 2,2 C 11,3 km/h (2 Bft) 97,37 %
31.10.2017 00:34 3,2 C 8,3 C 90 % 1026,3 hPa 0,0 l/m 7,6 km/h (2 Bft) W-SW 244 0 min 0,000 mm 0,0 UV-I 0 W/m 1,7 C 2,1 C 11,3 km/h (2 Bft) 98,21 %
31.10.2017 00:36 3,2 C 8,3 C 90 % 1026,4 hPa 0,0 l/m 8,2 km/h (2 Bft) SW 227 0 min 0,000 mm 0,0 UV-I 0 W/m 1,7 C 1,5 C 11,3 km/h (2 Bft) 96,30 %
31.10.2017 00:38 3,2 C 8,3 C 90 % 1026,3 hPa 0,0 l/m 7,5 km/h (2 Bft) W-SW 246 0 min 0,000 mm 0,0 UV-I 0 W/m 1,7 C 2,2 C 12,9 km/h (3 Bft) 98,08 %
31.10.2017 00:40 3,2 C 8,3 C 90 % 1026,3 hPa 0,0 l/m 7,2 km/h (2 Bft) W-SW 243 0 min 0,000 mm 0,0 UV-I 0 W/m 1,7 C 2,4 C 11,3 km/h (2 Bft) 96,61 %
31.10.2017 00:42 3,2 C 8,3 C 90 % 1026,3 hPa 0,0 l/m 8,6 km/h (2 Bft) W-SW 246 0 min 0,000 mm 0,0 UV-I 0 W/m 1,7 C 1,2 C 14,5 km/h (3 Bft) 98,00 %
31.10.2017 00:44 3,2 C 8,3 C 90 % 1026,3 hPa 0,0 l/m 7,0 km/h (2 Bft) W-SW 245 0 min 0,000 mm 0,0 UV-I 0 W/m 1,7 C 2,6 C 9,7 km/h (2 Bft) 95,74 %
31.10.2017 00:46 3,2 C 8,3 C 90 % 1026,3 hPa 0,0 l/m 8,1 km/h (2 Bft) W-SW 244 0 min 0,000 mm 0,0 UV-I 0 W/m 1,7 C 1,6 C 11,3 km/h (2 Bft) 97,22 %
31.10.2017 00:48 3,2 C 8,3 C 90 % 1026,3 hPa 0,0 l/m 7,5 km/h (2 Bft) W-SW 253 0 min 0,000 mm 0,0 UV-I 0 W/m 1,7 C 2,2 C 11,3 km/h (2 Bft) 96,36 %
31.10.2017 00:50 3,2 C 8,3 C 90 % 1026,2 hPa 0,0 l/m 7,4 km/h (2 Bft) SW 227 0 min 0,000 mm 0,0 UV-I 0 W/m 1,7 C 2,3 C 11,3 km/h (2 Bft) 97,62 %
31.10.2017 00:52 3,2 C 8,3 C 90 % 1026,3 hPa 0,0 l/m 7,9 km/h (2 Bft) W-SW 248 0 min 0,000 mm 0,0 UV-I 0 W/m 1,7 C 1,8 C 16,1 km/h (3 Bft) 96,00 %
31.10.2017 00:54 3,2 C 8,3 C 90 % 1026,3 hPa 0,0 l/m 8,2 km/h (2 Bft) W-SW 249 0 min 0,000 mm 0,0 UV-I 0 W/m 1,7 C 1,5 C 11,3 km/h (2 Bft) 98,00 %
31.10.2017 00:56 3,2 C 8,3 C 90 % 1026,3 hPa 0,0 l/m 7,1 km/h (2 Bft) W-SW 238 0 min 0,000 mm 0,0 UV-I 0 W/m 1,7 C 2,5 C 12,9 km/h (3 Bft) 95,45 %
31.10.2017 00:58 3,2 C 8,3 C 90 % 1026,4 hPa 0,0 l/m 8,2 km/h (2 Bft) SW 229 0 min 0,000 mm 0,0 UV-I 0 W/m 1,7 C 1,5 C 12,9 km/h (3 Bft) 97,87 %
31.10.2017 01:00 3,2 C 8,3 C 90 % 1026,4 hPa 0,0 l/m 7,1 km/h (2 Bft) W 262 0 min 0,000 mm 0,0 UV-I 0 W/m 1,7 C 2,5 C 12,9 km/h (3 Bft) 93,18 %
31.10.2017 01:02 3,2 C 8,3 C 90 % 1026,3 hPa 0,0 l/m 7,5 km/h (2 Bft) W-SW 245 0 min 0,000 mm 0,0 UV-I 0 W/m 1,7 C 2,2 C 12,9 km/h (3 Bft) 95,12 %
31.10.2017 01:04 3,2 C 8,3 C 90 % 1026,3 hPa 0,0 l/m 6,6 km/h (2 Bft) SW 220 0 min 0,000 mm 0,0 UV-I 0 W/m 1,7 C 3,0 C 9,7 km/h (2 Bft) 98,00 %
31.10.2017 01:06 3,2 C 8,3 C 90 % 1026,3 hPa 0,0 l/m 9,4 km/h (2 Bft) W-SW 240 0 min 0,000 mm 0,0 UV-I 0 W/m 1,7 C 0,5 C 16,1 km/h (3 Bft) 97,14 %
31.10.2017 01:08 3,2 C 8,3 C 90 % 1026,3 hPa 0,0 l/m 9,4 km/h (2 Bft) W-SW 244 0 min 0,000 mm 0,0 UV-I 0 W/m 1,7 C 0,5 C 12,9 km/h (3 Bft) 98,21 %
31.10.2017 01:10 3,2 C 8,3 C 90 % 1026,3 hPa 0,0 l/m 8,2 km/h (2 Bft) SW 229 0 min 0,000 mm 0,0 UV-I 0 W/m 1,7 C 1,5 C 12,9 km/h (3 Bft) 94,64 %
31.10.2017 01:12 3,2 C 8,3 C 90 % 1026,3 hPa 0,0 l/m 6,2 km/h (2 Bft) SW 215 0 min 0,000 mm 0,0 UV-I 0 W/m 1,7 C 3,2 C 9,7 km/h (2 Bft) 97,56 %
31.10.2017 01:14 3,1 C 8,3 C 90 % 1026,3 hPa 0,0 l/m 6,1 km/h (2 Bft) SW 233 0 min 0,000 mm 0,0 UV-I 0 W/m 1,6 C 3,1 C 9,7 km/h (2 Bft) 96,00 %
31.10.2017 01:16 3,1 C 8,3 C 90 % 1026,3 hPa 0,0 l/m 6,2 km/h (2 Bft) SW 215 0 min 0,000 mm 0,0 UV-I 0 W/m 1,6 C 3,1 C 11,3 km/h (2 Bft) 97,87 %
31.10.2017 01:18 3,1 C 8,3 C 90 % 1026,3 hPa 0,0 l/m 6,6 km/h (2 Bft) SW 229 0 min 0,000 mm 0,0 UV-I 0 W/m 1,6 C 2,9 C 8,0 km/h (2 Bft) 97,56 %
31.10.2017 01:20 3,1 C 8,3 C 90 % 1026,4 hPa 0,0 l/m 7,3 km/h (2 Bft) SW 217 0 min 0,000 mm 0,0 UV-I 0 W/m 1,6 C 2,2 C 9,7 km/h (2 Bft) 98,21 %
31.10.2017 01:22 3,1 C 8,3 C 90 % 1026,4 hPa 0,0 l/m 5,9 km/h (2 Bft) SW 236 0 min 0,000 mm 0,0 UV-I 0 W/m 1,6 C 3,1 C 8,0 km/h (2 Bft) 92,68 %
31.10.2017 01:24 3,1 C 8,3 C 90 % 1026,4 hPa 0,0 l/m 6,7 km/h (2 Bft) SW 225 0 min 0,000 mm 0,0 UV-I 0 W/m 1,6 C 2,8 C 8,0 km/h (2 Bft) 97,62 %
31.10.2017 01:26 3,1 C 8,3 C 90 % 1026,4 hPa 0,0 l/m 6,8 km/h (2 Bft) S-SW 205 0 min 0,000 mm 0,0 UV-I 0 W/m 1,6 C 2,7 C 8,0 km/h (2 Bft) 98,00 %
31.10.2017 01:28 3,1 C 8,3 C 90 % 1026,3 hPa 0,0 l/m 6,7 km/h (2 Bft) S-SW 213 0 min 0,000 mm 0,0 UV-I 0 W/m 1,6 C 2,8 C 9,7 km/h (2 Bft) 98,11 %
31.10.2017 01:30 3,1 C 8,3 C 90 % 1026,3 hPa 0,0 l/m 5,8 km/h (2 Bft) SW 228 0 min 0,000 mm 0,0 UV-I 0 W/m 1,6 C 3,1 C 8,0 km/h (2 Bft) 95,74 %
31.10.2017 01:32 3,1 C 8,3 C 91 % 1026,3 hPa 0,0 l/m 7,9 km/h (2 Bft) S-SW 212 0 min 0,000 mm 0,0 UV-I 0 W/m 1,8 C 1,7 C 12,9 km/h (3 Bft) 94,74 %
31.10.2017 01:34 3,1 C 8,3 C 90 % 1026,4 hPa 0,0 l/m 6,3 km/h (2 Bft) SW 227 0 min 0,000 mm 0,0 UV-I 0 W/m 1,6 C 3,1 C 9,7 km/h (2 Bft) 96,61 %
31.10.2017 01:36 3,1 C 8,3 C 90 % 1026,4 hPa 0,0 l/m 5,9 km/h (2 Bft) S-SW 200 0 min 0,000 mm 0,0 UV-I 0 W/m 1,6 C 3,1 C 9,7 km/h (2 Bft) 97,73 %
31.10.2017 01:38 3,1 C 8,3 C 90 % 1026,4 hPa 0,0 l/m 8,1 km/h (2 Bft) S-SW 204 0 min 0,000 mm 0,0 UV-I 0 W/m 1,6 C 1,5 C 12,9 km/h (3 Bft) 96,00 %
31.10.2017 01:40 3,1 C 8,3 C 90 % 1026,4 hPa 0,0 l/m 6,8 km/h (2 Bft) SW 232 0 min 0,000 mm 0,0 UV-I 0 W/m 1,6 C 2,7 C 9,7 km/h (2 Bft) 100,00 %
31.10.2017 01:42 3,1 C 8,3 C 90 % 1026,4 hPa 0,0 l/m 6,6 km/h (2 Bft) W-SW 240 0 min 0,000 mm 0,0 UV-I 0 W/m 1,6 C 2,9 C 11,3 km/h (2 Bft) 97,87 %
31.10.2017 01:44 3,1 C 8,3 C 90 % 1026,4 hPa 0,0 l/m 7,2 km/h (2 Bft) SW 230 0 min 0,000 mm 0,0 UV-I 0 W/m 1,6 C 2,3 C 9,7 km/h (2 Bft) 98,11 %
31.10.2017 01:46 3,1 C 8,3 C 90 % 1026,4 hPa 0,0 l/m 7,4 km/h (2 Bft) SW 220 0 min 0,000 mm 0,0 UV-I 0 W/m 1,6 C 2,2 C 9,7 km/h (2 Bft) 100,00 %
31.10.2017 01:48 3,1 C 8,3 C 90 % 1026,4 hPa 0,0 l/m 7,6 km/h (2 Bft) SW 236 0 min 0,000 mm 0,0 UV-I 0 W/m 1,6 C 2,0 C 12,9 km/h (3 Bft) 97,56 %
31.10.2017 01:50 3,1 C 8,3 C 90 % 1026,4 hPa 0,0 l/m 7,1 km/h (2 Bft) S-SW 196 0 min 0,000 mm 0,0 UV-I 0 W/m 1,6 C 2,4 C 11,3 km/h (2 Bft) 100,00 %
31.10.2017 01:52 3,1 C 8,3 C 90 % 1026,4 hPa 0,0 l/m 7,2 km/h (2 Bft) W-SW 237 0 min 0,000 mm 0,0 UV-I 0 W/m 1,6 C 2,3 C 9,7 km/h (2 Bft) 97,56 %
31.10.2017 01:54 3,1 C 8,3 C 90 % 1026,3 hPa 0,0 l/m 9,0 km/h (2 Bft) SW 236 0 min 0,000 mm 0,0 UV-I 0 W/m 1,6 C 0,8 C 14,5 km/h (3 Bft) 98,21 %
31.10.2017 01:56 3,2 C 8,3 C 91 % 1026,3 hPa 0,0 l/m 8,9 km/h (2 Bft) SW 228 0 min 0,000 mm 0,0 UV-I 0 W/m 1,9 C 0,9 C 12,9 km/h (3 Bft) 100,00 %
31.10.2017 01:58 3,2 C 8,3 C 91 % 1026,3 hPa 0,0 l/m 8,2 km/h (2 Bft) SW 215 0 min 0,000 mm 0,0 UV-I 0 W/m 1,9 C 1,5 C 14,5 km/h (3 Bft) 100,00 %
31.10.2017 02:00 3,2 C 8,3 C 91 % 1026,3 hPa 0,0 l/m 9,9 km/h (2 Bft) SW 234 0 min 0,000 mm 0,0 UV-I 0 W/m 1,9 C 0,2 C 12,9 km/h (3 Bft) 100,00 %
31.10.2017 02:02 3,2 C 8,3 C 90 % 1026,2 hPa 0,0 l/m 10,1 km/h (2 Bft) SW 223 0 min 0,000 mm 0,0 UV-I 0 W/m 1,7 C 0,0 C 16,1 km/h (3 Bft) 100,00 %
31.10.2017 02:04 3,2 C 8,3 C 90 % 1026,2 hPa 0,0 l/m 10,4 km/h (2 Bft) SW 231 0 min 0,000 mm 0,0 UV-I 0 W/m 1,7 C -0,2 C 16,1 km/h (3 Bft) 100,00 %
31.10.2017 02:06 3,2 C 8,3 C 90 % 1026,2 hPa 0,0 l/m 11,0 km/h (2 Bft) W-SW 238 0 min 0,000 mm 0,0 UV-I 0 W/m 1,7 C -0,6 C 16,1 km/h (3 Bft) 100,00 %
31.10.2017 02:08 3,2 C 8,3 C 90 % 1026,2 hPa 0,0 l/m 10,2 km/h (2 Bft) S-SW 213 0 min 0,000 mm 0,0 UV-I 0 W/m 1,7 C -0,1 C 14,5 km/h (3 Bft) 100,00 %
31.10.2017 02:10 3,3 C 8,3 C 90 % 1026,2 hPa 0,0 l/m 9,3 km/h (2 Bft) SW 223 0 min 0,000 mm 0,0 UV-I 0 W/m 1,8 C 0,7 C 14,5 km/h (3 Bft) 100,00 %
31.10.2017 02:12 3,3 C 8,3 C 90 % 1026,2 hPa 0,0 l/m 9,8 km/h (2 Bft) SW 231 0 min 0,000 mm 0,0 UV-I 0 W/m 1,8 C 0,3 C 14,5 km/h (3 Bft) 100,00 %
31.10.2017 02:14 3,3 C 8,3 C 90 % 1026,2 hPa 0,0 l/m 9,2 km/h (2 Bft) W-SW 242 0 min 0,000 mm 0,0 UV-I 0 W/m 1,8 C 0,8 C 12,9 km/h (3 Bft) 100,00 %
31.10.2017 02:16 3,3 C 8,3 C 90 % 1026,2 hPa 0,0 l/m 8,5 km/h (2 Bft) SW 229 0 min 0,000 mm 0,0 UV-I 0 W/m 1,8 C 1,4 C 16,1 km/h (3 Bft) 100,00 %
31.10.2017 02:18 3,3 C 8,3 C 90 % 1026,2 hPa 0,0 l/m 8,9 km/h (2 Bft) SW 220 0 min 0,000 mm 0,0 UV-I 0 W/m 1,8 C 1,1 C 14,5 km/h (3 Bft) 98,00 %
31.10.2017 02:20 3,3 C 8,3 C 90 % 1026,2 hPa 0,0 l/m 8,2 km/h (2 Bft) S-SW 207 0 min 0,000 mm 0,0 UV-I 0 W/m 1,8 C 1,6 C 14,5 km/h (3 Bft) 98,11 %
31.10.2017 02:22 3,3 C 8,3 C 90 % 1026,2 hPa 0,0 l/m 7,9 km/h (2 Bft) S-SW 203 0 min 0,000 mm 0,0 UV-I 0 W/m 1,8 C 1,9 C 11,3 km/h (2 Bft) 100,00 %
31.10.2017 02:24 3,3 C 8,3 C 90 % 1026,2 hPa 0,0 l/m 8,0 km/h (2 Bft) S-SW 211 0 min 0,000 mm 0,0 UV-I 0 W/m 1,8 C 1,8 C 9,7 km/h (2 Bft) 100,00 %
31.10.2017 02:26 3,3 C 8,3 C 91 % 1026,1 hPa 0,0 l/m 8,5 km/h (2 Bft) W-SW 243 0 min 0,000 mm 0,0 UV-I 0 W/m 2,0 C 1,4 C 14,5 km/h (3 Bft) 100,00 %
31.10.2017 02:28 3,4 C 8,3 C 91 % 1026,1 hPa 0,0 l/m 8,7 km/h (2 Bft) W-SW 239 0 min 0,000 mm 0,0 UV-I 0 W/m 2,1 C 1,3 C 14,5 km/h (3 Bft) 97,87 %
31.10.2017 02:30 3,4 C 8,3 C 90 % 1026,1 hPa 0,0 l/m 9,4 km/h (2 Bft) SW 225 0 min 0,000 mm 0,0 UV-I 0 W/m 1,9 C 0,8 C 16,1 km/h (3 Bft) 100,00 %
31.10.2017 02:32 3,4 C 8,3 C 90 % 1026,2 hPa 0,0 l/m 11,1 km/h (2 Bft) S-SW 209 0 min 0,000 mm 0,0 UV-I 0 W/m 1,9 C -0,5 C 16,1 km/h (3 Bft) 97,73 %
31.10.2017 02:34 3,4 C 8,3 C 90 % 1026,1 hPa 0,0 l/m 8,7 km/h (2 Bft) W-SW 244 0 min 0,000 mm 0,0 UV-I 0 W/m 1,9 C 1,3 C 12,9 km/h (3 Bft) 100,00 %
31.10.2017 02:36 3,4 C 8,3 C 90 % 1026,2 hPa 0,0 l/m 10,4 km/h (2 Bft) W-SW 242 0 min 0,000 mm 0,0 UV-I 0 W/m 1,9 C 0,0 C 14,5 km/h (3 Bft) 100,00 %
31.10.2017 02:38 3,4 C 8,3 C 90 % 1026,2 hPa 0,0 l/m 9,7 km/h (2 Bft) SW 232 0 min 0,000 mm 0,0 UV-I 0 W/m 1,9 C 0,5 C 16,1 km/h (3 Bft) 100,00 %
31.10.2017 02:40 3,4 C 8,3 C 90 % 1026,1 hPa 0,0 l/m 10,3 km/h (2 Bft) SW 232 0 min 0,000 mm 0,0 UV-I 0 W/m 1,9 C 0,1 C 16,1 km/h (3 Bft) 100,00 %
31.10.2017 02:42 3,5 C 8,3 C 90 % 1026,2 hPa 0,0 l/m 11,4 km/h (2 Bft) SW 222 0 min 0,000 mm 0,0 UV-I 0 W/m 2,0 C -0,6 C 16,1 km/h (3 Bft) 97,87 %
31.10.2017 02:44 3,5 C 8,3 C 90 % 1026,1 hPa 0,0 l/m 11,6 km/h (2 Bft) W-SW 240 0 min 0,000 mm 0,0 UV-I 0 W/m 2,0 C -0,7 C 16,1 km/h (3 Bft) 100,00 %
31.10.2017 02:46 3,5 C 8,3 C 90 % 1026,2 hPa 0,0 l/m 9,8 km/h (2 Bft) SW 235 0 min 0,000 mm 0,0 UV-I 0 W/m 2,0 C 0,6 C 14,5 km/h (3 Bft) 97,62 %
31.10.2017 02:48 3,6 C 8,3 C 90 % 1026,1 hPa 0,0 l/m 8,9 km/h (2 Bft) SW 228 0 min 0,000 mm 0,0 UV-I 0 W/m 2,1 C 1,4 C 14,5 km/h (3 Bft) 100,00 %
31.10.2017 02:50 3,6 C 8,3 C 90 % 1026,1 hPa 0,0 l/m 10,3 km/h (2 Bft) SW 236 0 min 0,000 mm 0,0 UV-I 0 W/m 2,1 C 0,3 C 16,1 km/h (3 Bft) 95,12 %
31.10.2017 02:52 3,6 C 8,3 C 90 % 1026,1 hPa 0,0 l/m 8,0 km/h (2 Bft) W-SW 243 0 min 0,000 mm 0,0 UV-I 0 W/m 2,1 C 2,1 C 12,9 km/h (3 Bft) 100,00 %
31.10.2017 02:54 3,6 C 8,3 C 90 % 1026,1 hPa 0,0 l/m 7,8 km/h (2 Bft) SW 232 0 min 0,000 mm 0,0 UV-I 0 W/m 2,1 C 2,3 C 12,9 km/h (3 Bft) 97,87 %
31.10.2017 02:56 3,6 C 8,3 C 90 % 1026,1 hPa 0,0 l/m 10,1 km/h (2 Bft) SW 236 0 min 0,000 mm 0,0 UV-I 0 W/m 2,1 C 0,5 C 16,1 km/h (3 Bft) 100,00 %
31.10.2017 02:58 3,6 C 8,3 C 90 % 1026,0 hPa 0,0 l/m 8,8 km/h (2 Bft) SW 235 0 min 0,000 mm 0,0 UV-I 0 W/m 2,1 C 1,5 C 12,9 km/h (3 Bft) 100,00 %
31.10.2017 03:00 3,6 C 8,3 C 90 % 1026,0 hPa 0,0 l/m 8,8 km/h (2 Bft) W-SW 254 0 min 0,000 mm 0,0 UV-I 0 W/m 2,1 C 1,5 C 14,5 km/h (3 Bft) 100,00 %
31.10.2017 03:02 3,7 C 8,3 C 90 % 1026,0 hPa 0,0 l/m 7,9 km/h (2 Bft) W-SW 238 0 min 0,000 mm 0,0 UV-I 0 W/m 2,2 C 2,3 C 12,9 km/h (3 Bft) 100,00 %
31.10.2017 03:04 3,7 C 8,3 C 90 % 1026,0 hPa 0,0 l/m 9,4 km/h (2 Bft) SW 234 0 min 0,000 mm 0,0 UV-I 0 W/m 2,2 C 1,1 C 14,5 km/h (3 Bft) 100,00 %
31.10.2017 03:06 3,7 C 8,3 C 90 % 1026,0 hPa 0,0 l/m 10,4 km/h (2 Bft) SW 233 0 min 0,000 mm 0,0 UV-I 0 W/m 2,2 C 0,3 C 17,7 km/h (3 Bft) 100,00 %
31.10.2017 03:08 3,7 C 8,3 C 90 % 1026,0 hPa 0,0 l/m 9,4 km/h (2 Bft) SW 235 0 min 0,000 mm 0,0 UV-I 0 W/m 2,2 C 1,1 C 12,9 km/h (3 Bft) 100,00 %
31.10.2017 03:10 3,7 C 8,3 C 90 % 1026,0 hPa 0,0 l/m 11,7 km/h (2 Bft) SW 223 0 min 0,000 mm 0,0 UV-I 0 W/m 2,2 C -0,5 C 17,7 km/h (3 Bft) 100,00 %
31.10.2017 03:12 3,7 C 8,3 C 90 % 1025,9 hPa 0,0 l/m 11,3 km/h (2 Bft) SW 232 0 min 0,000 mm 0,0 UV-I 0 W/m 2,2 C -0,3 C 14,5 km/h (3 Bft) 100,00 %
31.10.2017 03:14 3,8 C 8,3 C 90 % 1026,0 hPa 0,0 l/m 10,8 km/h (2 Bft) W-SW 242 0 min 0,000 mm 0,0 UV-I 0 W/m 2,3 C 0,2 C 14,5 km/h (3 Bft) 97,56 %
31.10.2017 03:16 3,8 C 8,3 C 90 % 1026,0 hPa 0,0 l/m 12,2 km/h (2 Bft) W-SW 242 0 min 0,000 mm 0,0 UV-I 0 W/m 2,3 C -0,8 C 16,1 km/h (3 Bft) 96,23 %
31.10.2017 03:18 3,8 C 8,3 C 90 % 1026,0 hPa 0,0 l/m 13,4 km/h (3 Bft) W-SW 248 0 min 0,000 mm 0,0 UV-I 0 W/m 2,3 C -1,5 C 19,3 km/h (3 Bft) 97,37 %
31.10.2017 03:20 3,8 C 8,3 C 90 % 1026,0 hPa 0,0 l/m 11,2 km/h (2 Bft) SW 219 0 min 0,000 mm 0,0 UV-I 0 W/m 2,3 C -0,1 C 17,7 km/h (3 Bft) 92,45 %
31.10.2017 03:22 3,8 C 8,3 C 90 % 1025,9 hPa 0,0 l/m 10,4 km/h (2 Bft) W-SW 253 0 min 0,000 mm 0,0 UV-I 0 W/m 2,3 C 0,5 C 14,5 km/h (3 Bft) 97,62 %
31.10.2017 03:24 3,8 C 8,3 C 90 % 1025,9 hPa 0,0 l/m 11,5 km/h (2 Bft) W-SW 243 0 min 0,000 mm 0,0 UV-I 0 W/m 2,3 C -0,3 C 19,3 km/h (3 Bft) 97,37 %
31.10.2017 03:26 3,8 C 8,3 C 89 % 1026,0 hPa 0,0 l/m 10,7 km/h (2 Bft) W-SW 258 0 min 0,000 mm 0,0 UV-I 0 W/m 2,2 C 0,2 C 16,1 km/h (3 Bft) 96,77 %
31.10.2017 03:28 3,8 C 8,3 C 90 % 1026,0 hPa 0,0 l/m 10,9 km/h (2 Bft) W-SW 246 0 min 0,000 mm 0,0 UV-I 0 W/m 2,3 C 0,1 C 17,7 km/h (3 Bft) 96,00 %
31.10.2017 03:30 3,8 C 8,3 C 90 % 1026,0 hPa 0,0 l/m 10,2 km/h (2 Bft) S-SW 213 0 min 0,000 mm 0,0 UV-I 0 W/m 2,3 C 0,6 C 16,1 km/h (3 Bft) 97,37 %
31.10.2017 03:32 3,9 C 8,3 C 90 % 1025,9 hPa 0,0 l/m 13,6 km/h (3 Bft) SW 223 0 min 0,000 mm 0,0 UV-I 0 W/m 2,4 C -1,5 C 17,7 km/h (3 Bft) 97,56 %
31.10.2017 03:34 3,9 C 8,3 C 89 % 1026,0 hPa 0,0 l/m 11,8 km/h (2 Bft) W-SW 247 0 min 0,000 mm 0,0 UV-I 0 W/m 2,3 C -0,4 C 17,7 km/h (3 Bft) 96,43 %
31.10.2017 03:36 3,9 C 8,3 C 89 % 1025,9 hPa 0,0 l/m 11,4 km/h (2 Bft) SW 230 0 min 0,000 mm 0,0 UV-I 0 W/m 2,3 C -0,1 C 16,1 km/h (3 Bft) 95,12 %
31.10.2017 03:38 3,9 C 8,3 C 89 % 1025,9 hPa 0,0 l/m 9,8 km/h (2 Bft) SW 234 0 min 0,000 mm 0,0 UV-I 0 W/m 2,3 C 1,0 C 14,5 km/h (3 Bft) 96,23 %
31.10.2017 03:40 3,9 C 8,3 C 89 % 1025,9 hPa 0,0 l/m 12,8 km/h (3 Bft) W-SW 238 0 min 0,000 mm 0,0 UV-I 0 W/m 2,3 C -1,0 C 19,3 km/h (3 Bft) 92,11 %
31.10.2017 03:42 4,0 C 8,3 C 89 % 1025,9 hPa 0,0 l/m 12,7 km/h (3 Bft) W-SW 241 0 min 0,000 mm 0,0 UV-I 0 W/m 2,4 C -0,8 C 19,3 km/h (3 Bft) 92,31 %
31.10.2017 03:44 4,0 C 8,3 C 89 % 1025,9 hPa 0,0 l/m 11,3 km/h (2 Bft) W-SW 246 0 min 0,000 mm 0,0 UV-I 0 W/m 2,4 C 0,1 C 19,3 km/h (3 Bft) 98,53 %
31.10.2017 03:46 4,0 C 8,3 C 89 % 1025,8 hPa 0,0 l/m 14,4 km/h (3 Bft) W-SW 241 0 min 0,000 mm 0,0 UV-I 0 W/m 2,4 C -1,8 C 20,9 km/h (4 Bft) 92,11 %
31.10.2017 03:48 4,0 C 8,3 C 89 % 1025,9 hPa 0,0 l/m 12,6 km/h (3 Bft) W-SW 255 0 min 0,000 mm 0,0 UV-I 0 W/m 2,4 C -0,8 C 17,7 km/h (3 Bft) 96,00 %
31.10.2017 03:50 4,1 C 8,3 C 89 % 1025,9 hPa 0,0 l/m 11,6 km/h (2 Bft) SW 227 0 min 0,000 mm 0,0 UV-I 0 W/m 2,5 C -0,0 C 17,7 km/h (3 Bft) 92,45 %
31.10.2017 03:52 4,1 C 8,3 C 89 % 1026,0 hPa 0,0 l/m 14,2 km/h (3 Bft) W-SW 254 0 min 0,000 mm 0,0 UV-I 0 W/m 2,5 C -1,6 C 19,3 km/h (3 Bft) 97,62 %
31.10.2017 03:54 4,1 C 8,3 C 89 % 1025,9 hPa 0,0 l/m 12,5 km/h (3 Bft) W-SW 249 0 min 0,000 mm 0,0 UV-I 0 W/m 2,5 C -0,6 C 22,5 km/h (4 Bft) 97,87 %
31.10.2017 03:56 4,1 C 8,3 C 89 % 1026,0 hPa 0,0 l/m 13,9 km/h (3 Bft) W-SW 256 0 min 0,000 mm 0,0 UV-I 0 W/m 2,5 C -1,4 C 24,1 km/h (4 Bft) 95,12 %
31.10.2017 03:58 4,1 C 8,3 C 89 % 1026,0 hPa 0,0 l/m 11,8 km/h (2 Bft) W-SW 241 0 min 0,000 mm 0,0 UV-I 0 W/m 2,5 C -0,2 C 17,7 km/h (3 Bft) 96,23 %
31.10.2017 04:00 4,1 C 8,3 C 89 % 1026,0 hPa 0,0 l/m 13,6 km/h (3 Bft) W-SW 252 0 min 0,000 mm 0,0 UV-I 0 W/m 2,5 C -1,2 C 16,1 km/h (3 Bft) 94,87 %
31.10.2017 04:02 4,2 C 8,3 C 89 % 1026,0 hPa 0,0 l/m 14,6 km/h (3 Bft) SW 230 0 min 0,000 mm 0,0 UV-I 0 W/m 2,6 C -1,7 C 17,7 km/h (3 Bft) 100,00 %
31.10.2017 04:04 4,2 C 8,3 C 89 % 1026,0 hPa 0,0 l/m 11,3 km/h (2 Bft) W 272 0 min 0,000 mm 0,0 UV-I 0 W/m 2,6 C 0,3 C 17,7 km/h (3 Bft) 96,23 %
31.10.2017 04:06 4,2 C 8,3 C 89 % 1026,0 hPa 0,0 l/m 13,4 km/h (3 Bft) W-SW 252 0 min 0,000 mm 0,0 UV-I 0 W/m 2,6 C -1,0 C 19,3 km/h (3 Bft) 95,12 %
31.10.2017 04:08 4,2 C 8,3 C 89 % 1026,1 hPa 0,0 l/m 10,6 km/h (2 Bft) W-SW 246 0 min 0,000 mm 0,0 UV-I 0 W/m 2,6 C 0,8 C 16,1 km/h (3 Bft) 91,49 %
31.10.2017 04:10 4,2 C 8,3 C 89 % 1026,1 hPa 0,0 l/m 11,2 km/h (2 Bft) SW 236 0 min 0,000 mm 0,0 UV-I 0 W/m 2,6 C 0,4 C 16,1 km/h (3 Bft) 96,43 %
31.10.2017 04:12 4,2 C 8,3 C 89 % 1026,0 hPa 0,0 l/m 13,1 km/h (3 Bft) W-SW 248 0 min 0,000 mm 0,0 UV-I 0 W/m 2,6 C -0,8 C 19,3 km/h (3 Bft) 100,00 %
31.10.2017 04:14 4,2 C 8,3 C 89 % 1026,1 hPa 0,0 l/m 15,4 km/h (3 Bft) W 263 0 min 0,000 mm 0,0 UV-I 0 W/m 2,6 C -2,1 C 22,5 km/h (4 Bft) 94,34 %
31.10.2017 04:16 4,2 C 8,3 C 89 % 1026,1 hPa 0,0 l/m 13,8 km/h (3 Bft) W 261 0 min 0,000 mm 0,0 UV-I 0 W/m 2,6 C -1,2 C 19,3 km/h (3 Bft) 97,37 %
31.10.2017 04:18 4,2 C 8,3 C 89 % 1026,1 hPa 0,0 l/m 13,4 km/h (3 Bft) W 267 0 min 0,000 mm 0,0 UV-I 0 W/m 2,6 C -1,0 C 17,7 km/h (3 Bft) 98,11 %
31.10.2017 04:20 4,2 C 8,3 C 88 % 1026,1 hPa 0,0 l/m 14,2 km/h (3 Bft) W-SW 250 0 min 0,000 mm 0,0 UV-I 0 W/m 2,4 C -1,5 C 19,3 km/h (3 Bft) 97,73 %
31.10.2017 04:22 4,2 C 8,3 C 89 % 1026,1 hPa 0,0 l/m 9,5 km/h (2 Bft) W-SW 242 0 min 0,000 mm 0,0 UV-I 0 W/m 2,6 C 1,6 C 16,1 km/h (3 Bft) 98,00 %
31.10.2017 04:24 4,2 C 8,3 C 89 % 1026,1 hPa 0,0 l/m 11,6 km/h (2 Bft) W-SW 247 0 min 0,000 mm 0,0 UV-I 0 W/m 2,6 C 0,1 C 14,5 km/h (3 Bft) 97,87 %
31.10.2017 04:26 4,2 C 8,3 C 89 % 1026,1 hPa 0,0 l/m 10,0 km/h (2 Bft) W-SW 255 0 min 0,000 mm 0,0 UV-I 0 W/m 2,6 C 1,2 C 12,9 km/h (3 Bft) 97,73 %
31.10.2017 04:28 4,2 C 8,3 C 89 % 1026,2 hPa 0,0 l/m 11,5 km/h (2 Bft) W-SW 252 0 min 0,000 mm 0,0 UV-I 0 W/m 2,6 C 0,2 C 16,1 km/h (3 Bft) 97,56 %
31.10.2017 04:30 4,2 C 8,3 C 89 % 1026,1 hPa 0,0 l/m 9,4 km/h (2 Bft) W 265 0 min 0,000 mm 0,0 UV-I 0 W/m 2,6 C 1,6 C 14,5 km/h (3 Bft) 97,87 %
31.10.2017 04:32 4,2 C 8,3 C 89 % 1026,1 hPa 0,0 l/m 7,8 km/h (2 Bft) W-SW 244 0 min 0,000 mm 0,0 UV-I 0 W/m 2,6 C 2,9 C 11,3 km/h (2 Bft) 98,11 %
31.10.2017 04:34 4,2 C 8,3 C 88 % 1026,2 hPa 0,0 l/m 11,9 km/h (2 Bft) W-SW 254 0 min 0,000 mm 0,0 UV-I 0 W/m 2,4 C -0,1 C 19,3 km/h (3 Bft) 97,56 %
31.10.2017 04:36 4,2 C 8,3 C 89 % 1026,2 hPa 0,0 l/m 7,6 km/h (2 Bft) W-SW 243 0 min 0,000 mm 0,0 UV-I 0 W/m 2,6 C 3,1 C 11,3 km/h (2 Bft) 94,64 %
31.10.2017 04:38 4,2 C 8,3 C 89 % 1026,2 hPa 0,0 l/m 8,0 km/h (2 Bft) W-SW 253 0 min 0,000 mm 0,0 UV-I 0 W/m 2,6 C 2,8 C 12,9 km/h (3 Bft) 97,37 %
31.10.2017 04:40 4,2 C 8,3 C 89 % 1026,2 hPa 0,0 l/m 10,5 km/h (2 Bft) W-SW 238 0 min 0,000 mm 0,0 UV-I 0 W/m 2,6 C 0,8 C 16,1 km/h (3 Bft) 100,00 %
31.10.2017 04:42 4,2 C 8,3 C 89 % 1026,2 hPa 0,0 l/m 11,9 km/h (2 Bft) W-SW 250 0 min 0,000 mm 0,0 UV-I 0 W/m 2,6 C -0,1 C 16,1 km/h (3 Bft) 97,87 %
31.10.2017 04:44 4,2 C 8,3 C 89 % 1026,1 hPa 0,0 l/m 10,0 km/h (2 Bft) W-SW 257 0 min 0,000 mm 0,0 UV-I 0 W/m 2,6 C 1,2 C 17,7 km/h (3 Bft) 94,34 %
31.10.2017 04:46 4,3 C 8,3 C 88 % 1026,2 hPa 0,0 l/m 11,5 km/h (2 Bft) W 275 0 min 0,000 mm 0,0 UV-I 0 W/m 2,5 C 0,3 C 16,1 km/h (3 Bft) 100,00 %
31.10.2017 04:48 4,3 C 8,3 C 88 % 1026,2 hPa 0,0 l/m 11,1 km/h (2 Bft) SW 219 0 min 0,000 mm 0,0 UV-I 0 W/m 2,5 C 0,5 C 17,7 km/h (3 Bft) 98,00 %
31.10.2017 04:50 4,3 C 8,3 C 88 % 1026,2 hPa 0,0 l/m 11,2 km/h (2 Bft) W-SW 244 0 min 0,000 mm 0,0 UV-I 0 W/m 2,5 C 0,5 C 14,5 km/h (3 Bft) 100,00 %
31.10.2017 04:52 4,3 C 8,3 C 88 % 1026,2 hPa 0,0 l/m 8,2 km/h (2 Bft) W-SW 240 0 min 0,000 mm 0,0 UV-I 0 W/m 2,5 C 2,7 C 12,9 km/h (3 Bft) 100,00 %
31.10.2017 04:54 4,3 C 8,3 C 88 % 1026,2 hPa 0,0 l/m 10,8 km/h (2 Bft) S-SW 205 0 min 0,000 mm 0,0 UV-I 0 W/m 2,5 C 0,7 C 14,5 km/h (3 Bft) 97,56 %
31.10.2017 04:56 4,2 C 8,3 C 88 % 1026,2 hPa 0,0 l/m 9,7 km/h (2 Bft) SW 236 0 min 0,000 mm 0,0 UV-I 0 W/m 2,4 C 1,4 C 14,5 km/h (3 Bft) 100,00 %
31.10.2017 04:58 4,3 C 8,3 C 88 % 1026,2 hPa 0,0 l/m 11,2 km/h (2 Bft) SW 214 0 min 0,000 mm 0,0 UV-I 0 W/m 2,5 C 0,5 C 14,5 km/h (3 Bft) 100,00 %
31.10.2017 05:00 4,3 C 8,3 C 88 % 1026,2 hPa 0,0 l/m 11,3 km/h (2 Bft) W-SW 250 0 min 0,025 mm 0,0 UV-I 0 W/m 2,5 C 0,4 C 17,7 km/h (3 Bft) 98,11 %
31.10.2017 05:02 4,3 C 8,3 C 88 % 1026,2 hPa 0,0 l/m 9,5 km/h (2 Bft) W-SW 242 0 min 0,000 mm 0,0 UV-I 0 W/m 2,5 C 1,7 C 14,5 km/h (3 Bft) 100,00 %
31.10.2017 05:04 4,3 C 8,3 C 88 % 1026,2 hPa 0,0 l/m 9,1 km/h (2 Bft) W-SW 246 0 min 0,000 mm 0,0 UV-I 0 W/m 2,5 C 2,0 C 12,9 km/h (3 Bft) 100,00 %
31.10.2017 05:06 4,3 C 8,3 C 88 % 1026,2 hPa 0,0 l/m 10,2 km/h (2 Bft) W-SW 240 0 min 0,000 mm 0,0 UV-I 0 W/m 2,5 C 1,2 C 14,5 km/h (3 Bft) 100,00 %
31.10.2017 05:08 4,3 C 8,3 C 88 % 1026,2 hPa 0,0 l/m 9,8 km/h (2 Bft) SW 236 0 min 0,000 mm 0,0 UV-I 0 W/m 2,5 C 1,4 C 16,1 km/h (3 Bft) 100,00 %
31.10.2017 05:10 4,3 C 8,3 C 88 % 1026,2 hPa 0,0 l/m 9,8 km/h (2 Bft) SW 229 0 min 0,000 mm 0,0 UV-I 0 W/m 2,5 C 1,4 C 16,1 km/h (3 Bft) 100,00 %
31.10.2017 05:12 4,3 C 8,3 C 88 % 1026,2 hPa 0,0 l/m 9,0 km/h (2 Bft) SW 220 0 min 0,000 mm 0,0 UV-I 0 W/m 2,5 C 2,1 C 12,9 km/h (3 Bft) 100,00 %
31.10.2017 05:14 4,3 C 8,3 C 88 % 1026,2 hPa 0,0 l/m 9,0 km/h (2 Bft) W-SW 248 0 min 0,000 mm 0,0 UV-I 0 W/m 2,5 C 2,1 C 14,5 km/h (3 Bft) 97,73 %
31.10.2017 05:16 4,3 C 8,3 C 88 % 1026,1 hPa 0,0 l/m 8,7 km/h (2 Bft) W-SW 254 0 min 0,000 mm 0,0 UV-I 0 W/m 2,5 C 2,3 C 16,1 km/h (3 Bft) 100,00 %
31.10.2017 05:18 4,3 C 8,3 C 88 % 1026,1 hPa 0,0 l/m 7,6 km/h (2 Bft) SW 236 0 min 0,000 mm 0,0 UV-I 0 W/m 2,5 C 3,2 C 12,9 km/h (3 Bft) 100,00 %
31.10.2017 05:20 4,3 C 8,3 C 88 % 1026,1 hPa 0,0 l/m 12,6 km/h (3 Bft) W-SW 242 0 min 0,000 mm 0,0 UV-I 0 W/m 2,5 C -0,4 C 17,7 km/h (3 Bft) 100,00 %
31.10.2017 05:22 4,3 C 8,3 C 88 % 1026,1 hPa 0,0 l/m 10,7 km/h (2 Bft) SW 236 0 min 0,000 mm 0,0 UV-I 0 W/m 2,5 C 0,8 C 16,1 km/h (3 Bft) 100,00 %
31.10.2017 05:24 4,3 C 8,3 C 88 % 1026,2 hPa 0,0 l/m 9,2 km/h (2 Bft) W 260 0 min 0,000 mm 0,0 UV-I 0 W/m 2,5 C 1,9 C 12,9 km/h (3 Bft) 100,00 %
31.10.2017 05:26 4,3 C 8,3 C 88 % 1026,1 hPa 0,0 l/m 8,2 km/h (2 Bft) W 266 0 min 0,000 mm 0,0 UV-I 0 W/m 2,5 C 2,7 C 12,9 km/h (3 Bft) 96,00 %
31.10.2017 05:28 4,3 C 8,3 C 88 % 1026,1 hPa 0,0 l/m 10,5 km/h (2 Bft) W-SW 251 0 min 0,000 mm 0,0 UV-I 0 W/m 2,5 C 0,9 C 14,5 km/h (3 Bft) 97,73 %
31.10.2017 05:30 4,3 C 8,3 C 88 % 1026,1 hPa 0,0 l/m 8,5 km/h (2 Bft) SW 214 0 min 0,000 mm 0,0 UV-I 0 W/m 2,5 C 2,5 C 12,9 km/h (3 Bft) 98,08 %
31.10.2017 05:32 4,3 C 8,3 C 88 % 1026,1 hPa 0,0 l/m 10,6 km/h (2 Bft) W-SW 245 0 min 0,000 mm 0,0 UV-I 0 W/m 2,5 C 0,9 C 16,1 km/h (3 Bft) 97,37 %
31.10.2017 05:34 4,3 C 8,3 C 88 % 1026,0 hPa 0,0 l/m 10,4 km/h (2 Bft) SW 227 0 min 0,000 mm 0,0 UV-I 0 W/m 2,5 C 1,0 C 16,1 km/h (3 Bft) 96,43 %
31.10.2017 05:36 4,3 C 8,3 C 88 % 1026,0 hPa 0,0 l/m 10,3 km/h (2 Bft) W-SW 258 0 min 0,000 mm 0,0 UV-I 0 W/m 2,5 C 1,1 C 16,1 km/h (3 Bft) 97,37 %
31.10.2017 05:38 4,3 C 8,3 C 88 % 1026,0 hPa 0,0 l/m 12,3 km/h (3 Bft) W-SW 245 0 min 0,000 mm 0,0 UV-I 0 W/m 2,5 C -0,2 C 20,9 km/h (4 Bft) 98,00 %
31.10.2017 05:40 4,3 C 8,3 C 88 % 1026,0 hPa 0,0 l/m 13,3 km/h (3 Bft) W-SW 245 0 min 0,000 mm 0,0 UV-I 0 W/m 2,5 C -0,8 C 17,7 km/h (3 Bft) 97,56 %
31.10.2017 05:42 4,3 C 8,3 C 88 % 1026,0 hPa 0,0 l/m 10,2 km/h (2 Bft) SW 219 0 min 0,000 mm 0,0 UV-I 0 W/m 2,5 C 1,2 C 14,5 km/h (3 Bft) 98,31 %
31.10.2017 05:44 4,3 C 8,3 C 88 % 1026,0 hPa 0,0 l/m 11,7 km/h (2 Bft) W-SW 250 0 min 0,000 mm 0,0 UV-I 0 W/m 2,5 C 0,1 C 19,3 km/h (3 Bft) 96,15 %
31.10.2017 05:46 4,3 C 8,3 C 88 % 1026,0 hPa 0,0 l/m 13,1 km/h (3 Bft) W-SW 252 0 min 0,000 mm 0,0 UV-I 0 W/m 2,5 C -0,7 C 20,9 km/h (4 Bft) 98,53 %
31.10.2017 05:48 4,3 C 8,3 C 88 % 1026,0 hPa 0,0 l/m 11,1 km/h (2 Bft) W 264 0 min 0,000 mm 0,0 UV-I 0 W/m 2,5 C 0,5 C 17,7 km/h (3 Bft) 97,56 %
31.10.2017 05:50 4,4 C 8,3 C 88 % 1026,0 hPa 0,0 l/m 12,6 km/h (3 Bft) SW 230 0 min 0,000 mm 0,0 UV-I 0 W/m 2,6 C -0,3 C 17,7 km/h (3 Bft) 94,00 %
31.10.2017 05:52 4,4 C 8,3 C 88 % 1026,0 hPa 0,0 l/m 12,3 km/h (3 Bft) W 265 0 min 0,000 mm 0,0 UV-I 0 W/m 2,6 C -0,1 C 19,3 km/h (3 Bft) 97,87 %
31.10.2017 05:54 4,4 C 8,3 C 88 % 1026,0 hPa 0,0 l/m 10,6 km/h (2 Bft) SW 229 0 min 0,000 mm 0,0 UV-I 0 W/m 2,6 C 1,0 C 14,5 km/h (3 Bft) 97,87 %
31.10.2017 05:56 4,4 C 8,3 C 88 % 1026,0 hPa 0,0 l/m 12,9 km/h (3 Bft) W 267 0 min 0,000 mm 0,0 UV-I 0 W/m 2,6 C -0,5 C 17,7 km/h (3 Bft) 94,74 %
31.10.2017 05:58 4,4 C 8,3 C 88 % 1026,0 hPa 0,0 l/m 10,9 km/h (2 Bft) W-SW 242 0 min 0,000 mm 0,0 UV-I 0 W/m 2,6 C 0,8 C 16,1 km/h (3 Bft) 96,23 %
31.10.2017 06:00 4,4 C 8,3 C 88 % 1026,0 hPa 0,0 l/m 13,7 km/h (3 Bft) W-SW 254 0 min 0,026 mm 0,0 UV-I 0 W/m 2,6 C -0,9 C 22,5 km/h (4 Bft) 97,44 %
31.10.2017 06:02 4,4 C 8,3 C 88 % 1026,0 hPa 0,0 l/m 11,4 km/h (2 Bft) W-SW 244 0 min 0,000 mm 0,0 UV-I 0 W/m 2,6 C 0,4 C 16,1 km/h (3 Bft) 100,00 %
31.10.2017 06:04 4,4 C 8,3 C 88 % 1026,0 hPa 0,0 l/m 11,0 km/h (2 Bft) W-SW 258 0 min 0,000 mm 0,0 UV-I 0 W/m 2,6 C 0,7 C 16,1 km/h (3 Bft) 98,08 %
31.10.2017 06:06 4,4 C 8,3 C 88 % 1026,0 hPa 0,0 l/m 12,8 km/h (3 Bft) W-SW 242 0 min 0,000 mm 0,0 UV-I 0 W/m 2,6 C -0,4 C 16,1 km/h (3 Bft) 97,87 %
31.10.2017 06:08 4,4 C 8,3 C 87 % 1026,1 hPa 0,0 l/m 10,5 km/h (2 Bft) W-SW 257 0 min 0,000 mm 0,0 UV-I 0 W/m 2,4 C 1,1 C 14,5 km/h (3 Bft) 98,11 %
31.10.2017 06:10 4,4 C 8,3 C 87 % 1026,1 hPa 0,0 l/m 11,9 km/h (2 Bft) W 263 0 min 0,000 mm 0,0 UV-I 0 W/m 2,4 C 0,1 C 16,1 km/h (3 Bft) 100,00 %
31.10.2017 06:12 4,4 C 8,3 C 87 % 1026,1 hPa 0,0 l/m 9,8 km/h (2 Bft) W-SW 240 0 min 0,000 mm 0,0 UV-I 0 W/m 2,4 C 1,6 C 16,1 km/h (3 Bft) 98,11 %
31.10.2017 06:14 4,4 C 8,3 C 87 % 1026,1 hPa 0,0 l/m 12,5 km/h (3 Bft) W 259 0 min 0,000 mm 0,0 UV-I 0 W/m 2,4 C -0,2 C 16,1 km/h (3 Bft) 100,00 %
31.10.2017 06:16 4,4 C 8,3 C 87 % 1026,1 hPa 0,0 l/m 13,0 km/h (3 Bft) W-SW 248 0 min 0,000 mm 0,0 UV-I 0 W/m 2,4 C -0,5 C 17,7 km/h (3 Bft) 100,00 %
31.10.2017 06:18 4,4 C 8,3 C 87 % 1026,1 hPa 0,0 l/m 11,9 km/h (2 Bft) W 269 0 min 0,000 mm 0,0 UV-I 0 W/m 2,4 C 0,1 C 19,3 km/h (3 Bft) 100,00 %
31.10.2017 06:20 4,4 C 8,3 C 87 % 1026,0 hPa 0,0 l/m 12,7 km/h (3 Bft) W 271 0 min 0,000 mm 0,0 UV-I 0 W/m 2,4 C -0,4 C 20,9 km/h (4 Bft) 100,00 %
31.10.2017 06:22 4,4 C 8,3 C 87 % 1026,1 hPa 0,0 l/m 9,5 km/h (2 Bft) SW 233 0 min 0,000 mm 0,0 UV-I 0 W/m 2,4 C 1,8 C 12,9 km/h (3 Bft) 100,00 %
31.10.2017 06:24 4,4 C 8,3 C 87 % 1026,0 hPa 0,0 l/m 11,9 km/h (2 Bft) W-SW 244 0 min 0,000 mm 0,0 UV-I 0 W/m 2,4 C 0,1 C 16,1 km/h (3 Bft) 100,00 %
31.10.2017 06:26 4,4 C 8,3 C 87 % 1026,1 hPa 0,0 l/m 10,2 km/h (2 Bft) W 281 0 min 0,000 mm 0,0 UV-I 0 W/m 2,4 C 1,3 C 14,5 km/h (3 Bft) 100,00 %
31.10.2017 06:28 4,4 C 8,3 C 87 % 1026,1 hPa 0,0 l/m 11,8 km/h (2 Bft) W 261 0 min 0,000 mm 0,0 UV-I 0 W/m 2,4 C 0,2 C 19,3 km/h (3 Bft) 100,00 %
31.10.2017 06:30 4,5 C 8,3 C 87 % 1026,1 hPa 0,0 l/m 13,6 km/h (3 Bft) W-SW 238 0 min 0,000 mm 0,0 UV-I 0 W/m 2,5 C -0,8 C 17,7 km/h (3 Bft) 96,00 %
31.10.2017 06:32 4,5 C 8,3 C 87 % 1026,1 hPa 0,0 l/m 13,6 km/h (3 Bft) W 270 0 min 0,000 mm 0,0 UV-I 0 W/m 2,5 C -0,8 C 17,7 km/h (3 Bft) 100,00 %
31.10.2017 06:34 4,5 C 8,3 C 87 % 1026,1 hPa 0,0 l/m 13,8 km/h (3 Bft) W 265 0 min 0,000 mm 0,0 UV-I 0 W/m 2,5 C -0,9 C 20,9 km/h (4 Bft) 97,37 %
31.10.2017 06:36 4,5 C 8,3 C 87 % 1026,0 hPa 0,0 l/m 12,3 km/h (3 Bft) W-SW 248 0 min 0,000 mm 0,0 UV-I 0 W/m 2,5 C -0,0 C 20,9 km/h (4 Bft) 100,00 %
31.10.2017 06:38 4,5 C 8,3 C 87 % 1026,0 hPa 0,0 l/m 14,6 km/h (3 Bft) SW 235 0 min 0,000 mm 0,0 UV-I 3 W/m 2,5 C -1,3 C 19,3 km/h (3 Bft) 97,56 %
31.10.2017 06:40 4,6 C 8,3 C 87 % 1026,1 hPa 0,0 l/m 11,3 km/h (2 Bft) W 265 0 min 0,000 mm 0,0 UV-I 5 W/m 2,6 C 0,7 C 16,1 km/h (3 Bft) 100,00 %
31.10.2017 06:42 4,6 C 8,3 C 87 % 1026,1 hPa 0,0 l/m 13,4 km/h (3 Bft) SW 236 0 min 0,000 mm 0,0 UV-I 5 W/m 2,6 C -0,5 C 24,1 km/h (4 Bft) 100,00 %
31.10.2017 06:44 4,6 C 8,3 C 87 % 1026,1 hPa 0,0 l/m 10,0 km/h (2 Bft) SW 231 0 min 0,000 mm 0,0 UV-I 5 W/m 2,6 C 1,6 C 16,1 km/h (3 Bft) 100,00 %
31.10.2017 06:46 4,6 C 8,3 C 87 % 1026,1 hPa 0,0 l/m 12,9 km/h (3 Bft) W-SW 240 0 min 0,000 mm 0,0 UV-I 5 W/m 2,6 C -0,2 C 20,9 km/h (4 Bft) 100,00 %
31.10.2017 06:48 4,6 C 8,3 C 86 % 1026,1 hPa 0,0 l/m 10,8 km/h (2 Bft) W-SW 257 0 min 0,000 mm 0,0 UV-I 5 W/m 2,5 C 1,1 C 17,7 km/h (3 Bft) 97,87 %
31.10.2017 06:50 4,6 C 8,3 C 86 % 1026,1 hPa 0,0 l/m 13,8 km/h (3 Bft) W-SW 254 0 min 0,000 mm 0,0 UV-I 7 W/m 2,5 C -0,8 C 20,9 km/h (4 Bft) 100,00 %
31.10.2017 06:52 4,6 C 8,3 C 86 % 1026,2 hPa 0,0 l/m 13,2 km/h (3 Bft) W-SW 257 0 min 0,000 mm 0,0 UV-I 7 W/m 2,5 C -0,4 C 20,9 km/h (4 Bft) 100,00 %
31.10.2017 06:54 4,6 C 8,3 C 86 % 1026,2 hPa 0,0 l/m 13,2 km/h (3 Bft) W 269 0 min 0,000 mm 0,0 UV-I 7 W/m 2,5 C -0,4 C 19,3 km/h (3 Bft) 100,00 %
31.10.2017 06:56 4,6 C 8,3 C 86 % 1026,2 hPa 0,0 l/m 15,6 km/h (3 Bft) W-SW 249 0 min 0,000 mm 0,0 UV-I 7 W/m 2,5 C -1,7 C 20,9 km/h (4 Bft) 100,00 %
31.10.2017 06:58 4,6 C 8,3 C 86 % 1026,2 hPa 0,0 l/m 13,3 km/h (3 Bft) W-SW 238 0 min 0,000 mm 0,0 UV-I 9 W/m 2,5 C -0,5 C 19,3 km/h (3 Bft) 100,00 %
31.10.2017 07:00 4,6 C 8,3 C 86 % 1026,3 hPa 0,0 l/m 12,6 km/h (3 Bft) W 271 0 min 0,025 mm 0,0 UV-I 9 W/m 2,5 C -0,1 C 19,3 km/h (3 Bft) 100,00 %
31.10.2017 07:02 4,6 C 8,3 C 86 % 1026,3 hPa 0,0 l/m 13,3 km/h (3 Bft) SW 221 0 min 0,000 mm 0,0 UV-I 11 W/m 2,5 C -0,5 C 17,7 km/h (3 Bft) 100,00 %
31.10.2017 07:04 4,6 C 8,3 C 86 % 1026,3 hPa 0,0 l/m 11,0 km/h (2 Bft) W-SW 244 0 min 0,000 mm 0,0 UV-I 11 W/m 2,5 C 0,9 C 16,1 km/h (3 Bft) 97,37 %
31.10.2017 07:06 4,6 C 8,3 C 86 % 1026,4 hPa 0,0 l/m 12,9 km/h (3 Bft) W-SW 254 0 min 0,000 mm 0,0 UV-I 11 W/m 2,5 C -0,2 C 19,3 km/h (3 Bft) 100,00 %
31.10.2017 07:08 4,6 C 8,3 C 86 % 1026,4 hPa 0,0 l/m 12,8 km/h (3 Bft) W-SW 256 0 min 0,000 mm 0,0 UV-I 12 W/m 2,5 C -0,2 C 20,9 km/h (4 Bft) 98,00 %
31.10.2017 07:10 4,6 C 8,3 C 86 % 1026,4 hPa 0,0 l/m 8,0 km/h (2 Bft) SW 232 0 min 0,000 mm 0,0 UV-I 12 W/m 2,5 C 3,2 C 11,3 km/h (2 Bft) 100,00 %
31.10.2017 07:12 4,6 C 8,3 C 86 % 1026,5 hPa 0,0 l/m 10,1 km/h (2 Bft) W 261 0 min 0,000 mm 0,0 UV-I 14 W/m 2,5 C 1,6 C 16,1 km/h (3 Bft) 98,21 %
31.10.2017 07:14 4,5 C 8,3 C 86 % 1026,6 hPa 0,0 l/m 7,5 km/h (2 Bft) SW 234 0 min 0,000 mm 0,0 UV-I 17 W/m 2,4 C 3,5 C 14,5 km/h (3 Bft) 100,00 %
31.10.2017 07:16 4,5 C 8,3 C 86 % 1026,6 hPa 0,0 l/m 10,4 km/h (2 Bft) W-SW 254 0 min 0,000 mm 0,0 UV-I 20 W/m 2,4 C 1,2 C 14,5 km/h (3 Bft) 98,21 %
31.10.2017 07:18 4,5 C 7,8 C 86 % 1026,6 hPa 0,0 l/m 9,2 km/h (2 Bft) W-SW 251 0 min 0,000 mm 0,0 UV-I 22 W/m 2,4 C 2,1 C 14,5 km/h (3 Bft) 100,00 %
31.10.2017 07:20 4,5 C 8,3 C 86 % 1026,6 hPa 0,0 l/m 8,0 km/h (2 Bft) W 261 0 min 0,000 mm 0,0 UV-I 21 W/m 2,4 C 3,1 C 14,5 km/h (3 Bft) 100,00 %
31.10.2017 07:22 4,6 C 8,3 C 86 % 1026,7 hPa 0,0 l/m 8,3 km/h (2 Bft) W-SW 254 0 min 0,000 mm 0,0 UV-I 21 W/m 2,5 C 2,9 C 14,5 km/h (3 Bft) 100,00 %
31.10.2017 07:24 4,5 C 8,3 C 86 % 1026,7 hPa 0,0 l/m 11,4 km/h (2 Bft) W-SW 254 0 min 0,000 mm 0,0 UV-I 22 W/m 2,4 C 0,6 C 14,5 km/h (3 Bft) 98,57 %
31.10.2017 07:26 4,5 C 8,3 C 87 % 1026,8 hPa 0,0 l/m 10,3 km/h (2 Bft) W-SW 257 0 min 0,000 mm 0,0 UV-I 26 W/m 2,5 C 1,3 C 14,5 km/h (3 Bft) 97,62 %
31.10.2017 07:28 4,5 C 8,3 C 86 % 1026,8 hPa 0,0 l/m 9,1 km/h (2 Bft) W-SW 245 0 min 0,000 mm 0,0 UV-I 32 W/m 2,4 C 2,2 C 14,5 km/h (3 Bft) 97,56 %
31.10.2017 07:30 4,5 C 7,8 C 86 % 1026,8 hPa 0,0 l/m 9,4 km/h (2 Bft) W 278 0 min 0,000 mm 0,0 UV-I 38 W/m 2,4 C 2,0 C 14,5 km/h (3 Bft) 96,23 %
31.10.2017 07:32 4,6 C 8,3 C 87 % 1026,9 hPa 0,0 l/m 9,7 km/h (2 Bft) W 261 0 min 0,000 mm 0,0 UV-I 46 W/m 2,6 C 1,8 C 14,5 km/h (3 Bft) 97,37 %
31.10.2017 07:34 4,6 C 8,3 C 87 % 1026,8 hPa 0,0 l/m 10,8 km/h (2 Bft) W-SW 248 0 min 0,000 mm 0,0 UV-I 48 W/m 2,6 C 1,1 C 17,7 km/h (3 Bft) 98,11 %
31.10.2017 07:36 4,6 C 7,8 C 86 % 1026,8 hPa 0,0 l/m 11,1 km/h (2 Bft) W-SW 256 0 min 0,000 mm 0,0 UV-I 45 W/m 2,5 C 0,9 C 17,7 km/h (3 Bft) 94,34 %
31.10.2017 07:38 4,6 C 7,8 C 86 % 1026,8 hPa 0,0 l/m 12,5 km/h (3 Bft) W-SW 249 0 min 0,000 mm 0,0 UV-I 38 W/m 2,5 C -0,0 C 19,3 km/h (3 Bft) 95,12 %
31.10.2017 07:40 4,6 C 7,8 C 86 % 1026,8 hPa 0,0 l/m 12,0 km/h (2 Bft) SW 229 0 min 0,000 mm 0,0 UV-I 35 W/m 2,5 C 0,3 C 17,7 km/h (3 Bft) 95,12 %
31.10.2017 07:42 4,6 C 8,3 C 86 % 1026,8 hPa 0,0 l/m 8,5 km/h (2 Bft) W-SW 244 0 min 0,000 mm 0,0 UV-I 41 W/m 2,5 C 2,8 C 12,9 km/h (3 Bft) 96,23 %
31.10.2017 07:44 4,6 C 7,8 C 86 % 1026,8 hPa 0,0 l/m 10,9 km/h (2 Bft) W-SW 246 0 min 0,000 mm 0,0 UV-I 48 W/m 2,5 C 1,0 C 16,1 km/h (3 Bft) 93,10 %
31.10.2017 07:46 4,6 C 7,8 C 86 % 1026,8 hPa 0,0 l/m 10,9 km/h (2 Bft) W-SW 256 0 min 0,000 mm 0,0 UV-I 54 W/m 2,5 C 1,0 C 16,1 km/h (3 Bft) 95,77 %
31.10.2017 07:48 4,6 C 7,8 C 86 % 1026,8 hPa 0,0 l/m 8,9 km/h (2 Bft) SW 220 0 min 0,000 mm 0,0 UV-I 57 W/m 2,5 C 2,5 C 12,9 km/h (3 Bft) 97,37 %
31.10.2017 07:50 4,6 C 8,3 C 86 % 1026,8 hPa 0,0 l/m 8,6 km/h (2 Bft) SW 216 0 min 0,000 mm 0,0 UV-I 61 W/m 2,5 C 2,7 C 11,3 km/h (2 Bft) 92,45 %
31.10.2017 07:52 4,6 C 7,8 C 86 % 1026,8 hPa 0,0 l/m 7,9 km/h (2 Bft) W-SW 240 0 min 0,000 mm 0,0 UV-I 63 W/m 2,5 C 3,3 C 14,5 km/h (3 Bft) 95,12 %
31.10.2017 07:54 4,6 C 7,8 C 86 % 1026,8 hPa 0,0 l/m 11,6 km/h (2 Bft) W-SW 257 0 min 0,000 mm 0,0 UV-I 61 W/m 2,5 C 0,5 C 16,1 km/h (3 Bft) 90,00 %
31.10.2017 07:56 4,6 C 7,8 C 86 % 1026,9 hPa 0,0 l/m 11,1 km/h (2 Bft) W-SW 249 0 min 0,000 mm 0,0 UV-I 51 W/m 2,5 C 0,9 C 16,1 km/h (3 Bft) 95,12 %
31.10.2017 07:58 4,6 C 7,8 C 86 % 1027,0 hPa 0,0 l/m 12,8 km/h (3 Bft) W 265 0 min 0,000 mm 0,0 UV-I 39 W/m 2,5 C -0,2 C 17,7 km/h (3 Bft) 92,86 %
31.10.2017 08:00 4,6 C 7,8 C 86 % 1027,0 hPa 0,0 l/m 12,1 km/h (2 Bft) W-SW 245 0 min 0,000 mm 0,0 UV-I 33 W/m 2,5 C 0,2 C 17,7 km/h (3 Bft) 95,24 %
31.10.2017 08:02 4,5 C 7,8 C 86 % 1027,0 hPa 0,0 l/m 12,9 km/h (3 Bft) W 266 0 min 0,026 mm 0,0 UV-I 34 W/m 2,4 C -0,4 C 16,1 km/h (3 Bft) 95,12 %
31.10.2017 08:04 4,4 C 7,8 C 86 % 1027,1 hPa 0,0 l/m 11,6 km/h (2 Bft) W 265 0 min 0,000 mm 0,0 UV-I 39 W/m 2,3 C 0,3 C 16,1 km/h (3 Bft) 96,23 %
31.10.2017 08:06 4,4 C 7,8 C 86 % 1027,1 hPa 0,0 l/m 10,1 km/h (2 Bft) W-SW 256 0 min 0,000 mm 0,0 UV-I 47 W/m 2,3 C 1,3 C 16,1 km/h (3 Bft) 96,00 %
31.10.2017 08:08 4,4 C 7,8 C 86 % 1027,1 hPa 0,0 l/m 10,8 km/h (2 Bft) W-SW 242 0 min 0,000 mm 0,0 UV-I 55 W/m 2,3 C 0,8 C 17,7 km/h (3 Bft) 88,00 %
31.10.2017 08:10 4,3 C 7,8 C 86 % 1027,1 hPa 0,0 l/m 8,6 km/h (2 Bft) W-SW 252 0 min 0,000 mm 0,0 UV-I 58 W/m 2,2 C 2,4 C 12,9 km/h (3 Bft) 100,00 %
31.10.2017 08:12 4,3 C 7,8 C 87 % 1027,1 hPa 0,0 l/m 8,8 km/h (2 Bft) W 272 0 min 0,000 mm 0,0 UV-I 64 W/m 2,3 C 2,2 C 12,9 km/h (3 Bft) 96,43 %
31.10.2017 08:14 4,3 C 7,8 C 87 % 1027,1 hPa 0,0 l/m 7,2 km/h (2 Bft) W 260 0 min 0,000 mm 0,0 UV-I 71 W/m 2,3 C 3,6 C 11,3 km/h (2 Bft) 97,37 %
31.10.2017 08:16 4,3 C 7,8 C 87 % 1027,1 hPa 0,0 l/m 6,2 km/h (2 Bft) W-SW 255 0 min 0,000 mm 0,0 UV-I 74 W/m 2,3 C 4,3 C 11,3 km/h (2 Bft) 98,00 %
31.10.2017 08:18 4,3 C 7,8 C 87 % 1027,1 hPa 0,0 l/m 8,2 km/h (2 Bft) W-SW 250 0 min 0,000 mm 0,0 UV-I 73 W/m 2,3 C 2,7 C 11,3 km/h (2 Bft) 96,23 %
31.10.2017 08:20 4,3 C 7,8 C 87 % 1027,2 hPa 0,0 l/m 4,4 km/h (1 Bft) W-NW 286 0 min 0,000 mm 0,0 UV-I 77 W/m 2,3 C 4,3 C 6,4 km/h (2 Bft) 94,29 %
31.10.2017 08:22 4,3 C 7,8 C 87 % 1027,2 hPa 0,0 l/m 4,8 km/h (1 Bft) W-SW 252 0 min 0,000 mm 0,0 UV-I 82 W/m 2,3 C 4,3 C 8,0 km/h (2 Bft) 98,21 %
31.10.2017 08:24 4,3 C 7,8 C 87 % 1027,2 hPa 0,0 l/m 3,2 km/h (1 Bft) W-SW 256 0 min 0,000 mm 0,0 UV-I 84 W/m 2,3 C 4,3 C 6,4 km/h (2 Bft) 97,56 %
31.10.2017 08:26 4,2 C 7,8 C 87 % 1027,2 hPa 0,0 l/m 3,3 km/h (1 Bft) W-SW 256 0 min 0,000 mm 0,0 UV-I 79 W/m 2,2 C 4,2 C 4,8 km/h (1 Bft) 98,11 %
31.10.2017 08:28 4,2 C 7,8 C 87 % 1027,2 hPa 0,0 l/m 2,9 km/h (1 Bft) W 261 0 min 0,000 mm 0,0 UV-I 72 W/m 2,2 C 4,2 C 4,8 km/h (1 Bft) 97,56 %
31.10.2017 08:30 4,2 C 7,8 C 87 % 1027,2 hPa 0,0 l/m 3,2 km/h (1 Bft) W 261 0 min 0,000 mm 0,0 UV-I 73 W/m 2,2 C 4,2 C 4,8 km/h (1 Bft) 98,00 %
31.10.2017 08:32 4,2 C 7,8 C 88 % 1027,2 hPa 0,0 l/m 3,7 km/h (1 Bft) W 261 0 min 0,000 mm 0,0 UV-I 84 W/m 2,4 C 4,2 C 6,4 km/h (2 Bft) 95,74 %
31.10.2017 08:34 4,2 C 7,8 C 88 % 1027,2 hPa 0,0 l/m 2,9 km/h (1 Bft) W 262 0 min 0,000 mm 0,0 UV-I 116 W/m 2,4 C 4,2 C 4,8 km/h (1 Bft) 96,00 %
31.10.2017 08:36 4,3 C 7,8 C 88 % 1027,2 hPa 0,0 l/m 3,3 km/h (1 Bft) W 262 2 min 0,000 mm 0,0 UV-I 181 W/m 2,5 C 4,3 C 4,8 km/h (1 Bft) 100,00 %
31.10.2017 08:38 4,4 C 7,8 C 88 % 1027,2 hPa 0,0 l/m 3,4 km/h (1 Bft) W 262 2 min 0,000 mm 0,0 UV-I 230 W/m 2,6 C 4,4 C 4,8 km/h (1 Bft) 100,00 %
31.10.2017 08:40 4,5 C 7,8 C 88 % 1027,2 hPa 0,0 l/m 4,2 km/h (1 Bft) W 262 2 min 0,000 mm 0,0 UV-I 235 W/m 2,7 C 4,5 C 6,4 km/h (2 Bft) 98,00 %
31.10.2017 08:42 4,7 C 7,8 C 88 % 1027,3 hPa 0,0 l/m 3,2 km/h (1 Bft) W 261 2 min 0,000 mm 0,0 UV-I 240 W/m 2,9 C 4,7 C 4,8 km/h (1 Bft) 100,00 %
31.10.2017 08:44 4,8 C 8,3 C 87 % 1027,3 hPa 0,0 l/m 5,2 km/h (1 Bft) W-NW 284 2 min 0,000 mm 0,0 UV-I 246 W/m 2,8 C 4,8 C 12,9 km/h (3 Bft) 100,00 %
31.10.2017 08:46 4,9 C 7,8 C 87 % 1027,3 hPa 0,0 l/m 6,0 km/h (2 Bft) W-SW 246 2 min 0,000 mm 0,0 UV-I 250 W/m 2,9 C 4,9 C 12,9 km/h (3 Bft) 97,87 %
31.10.2017 08:48 5,0 C 7,8 C 86 % 1027,3 hPa 0,0 l/m 6,0 km/h (2 Bft) W 259 2 min 0,000 mm 0,1 UV-I 256 W/m 2,9 C 5,0 C 11,3 km/h (2 Bft) 100,00 %
31.10.2017 08:50 5,1 C 7,8 C 86 % 1027,2 hPa 0,0 l/m 8,5 km/h (2 Bft) W-SW 248 2 min 0,000 mm 0,5 UV-I 260 W/m 3,0 C 3,3 C 16,1 km/h (3 Bft) 100,00 %
31.10.2017 08:52 5,2 C 7,8 C 85 % 1027,2 hPa 0,0 l/m 9,8 km/h (2 Bft) W-SW 254 2 min 0,000 mm 0,5 UV-I 265 W/m 2,9 C 2,4 C 16,1 km/h (3 Bft) 100,00 %
31.10.2017 08:54 5,2 C 7,8 C 85 % 1027,2 hPa 0,0 l/m 10,3 km/h (2 Bft) W 265 2 min 0,000 mm 0,5 UV-I 270 W/m 2,9 C 2,1 C 14,5 km/h (3 Bft) 96,23 %
31.10.2017 08:56 5,2 C 7,8 C 84 % 1027,1 hPa 0,0 l/m 10,3 km/h (2 Bft) W-NW 286 2 min 0,000 mm 0,5 UV-I 272 W/m 2,7 C 2,1 C 16,1 km/h (3 Bft) 100,00 %
31.10.2017 08:58 5,3 C 7,8 C 84 % 1027,1 hPa 0,0 l/m 10,1 km/h (2 Bft) W-SW 254 2 min 0,000 mm 0,5 UV-I 278 W/m 2,8 C 2,3 C 16,1 km/h (3 Bft) 100,00 %
31.10.2017 09:00 5,3 C 7,8 C 84 % 1027,1 hPa 0,0 l/m 5,0 km/h (1 Bft) W 259 2 min 0,076 mm 0,5 UV-I 282 W/m 2,8 C 5,3 C 8,0 km/h (2 Bft) 100,00 %
31.10.2017 09:02 5,4 C 7,8 C 84 % 1027,1 hPa 0,0 l/m 4,4 km/h (1 Bft) SW 229 2 min 0,000 mm 0,5 UV-I 286 W/m 2,9 C 5,4 C 6,4 km/h (2 Bft) 100,00 %
31.10.2017 09:04 5,5 C 7,8 C 84 % 1027,1 hPa 0,0 l/m 5,9 km/h (2 Bft) W-SW 253 2 min 0,000 mm 0,6 UV-I 289 W/m 3,0 C 5,5 C 9,7 km/h (2 Bft) 97,37 %
31.10.2017 09:06 5,6 C 7,8 C 85 % 1027,2 hPa 0,0 l/m 6,4 km/h (2 Bft) W 276 2 min 0,000 mm 0,6 UV-I 294 W/m 3,3 C 5,6 C 12,9 km/h (3 Bft) 100,00 %
31.10.2017 09:08 5,7 C 7,8 C 84 % 1027,1 hPa 0,0 l/m 4,6 km/h (1 Bft) W-SW 251 2 min 0,000 mm 0,6 UV-I 298 W/m 3,2 C 5,7 C 8,0 km/h (2 Bft) 100,00 %
31.10.2017 09:10 5,8 C 7,8 C 84 % 1027,2 hPa 0,0 l/m 5,9 km/h (2 Bft) W 279 2 min 0,000 mm 0,6 UV-I 302 W/m 3,3 C 5,8 C 8,0 km/h (2 Bft) 98,00 %
31.10.2017 09:12 5,8 C 7,8 C 84 % 1027,2 hPa 0,0 l/m 3,1 km/h (1 Bft) W-NW 293 2 min 0,000 mm 0,6 UV-I 306 W/m 3,3 C 5,8 C 8,0 km/h (2 Bft) 94,00 %
31.10.2017 09:14 5,9 C 7,8 C 84 % 1027,2 hPa 0,0 l/m 4,7 km/h (1 Bft) W-SW 249 2 min 0,000 mm 0,6 UV-I 308 W/m 3,4 C 5,9 C 8,0 km/h (2 Bft) 97,37 %
31.10.2017 09:16 6,0 C 7,8 C 83 % 1027,2 hPa 0,0 l/m 3,7 km/h (1 Bft) W-SW 254 2 min 0,000 mm 0,6 UV-I 313 W/m 3,3 C 6,0 C 4,8 km/h (1 Bft) 98,00 %
31.10.2017 09:18 6,0 C 7,8 C 83 % 1027,2 hPa 0,0 l/m 6,4 km/h (2 Bft) W-SW 239 2 min 0,000 mm 0,7 UV-I 320 W/m 3,3 C 6,0 C 11,3 km/h (2 Bft) 97,87 %
31.10.2017 09:20 6,1 C 7,8 C 83 % 1027,1 hPa 0,0 l/m 5,0 km/h (1 Bft) W-SW 256 2 min 0,000 mm 0,7 UV-I 326 W/m 3,4 C 6,1 C 6,4 km/h (2 Bft) 98,00 %
31.10.2017 09:22 6,1 C 7,8 C 83 % 1027,1 hPa 0,0 l/m 4,8 km/h (1 Bft) SW 233 2 min 0,000 mm 0,7 UV-I 331 W/m 3,4 C 6,1 C 6,4 km/h (2 Bft) 97,44 %
31.10.2017 09:24 6,2 C 7,8 C 83 % 1027,1 hPa 0,0 l/m 9,3 km/h (2 Bft) W-SW 254 2 min 0,000 mm 0,7 UV-I 326 W/m 3,5 C 3,9 C 12,9 km/h (3 Bft) 98,31 %
31.10.2017 09:26 6,1 C 8,3 C 81 % 1027,1 hPa 0,0 l/m 10,3 km/h (2 Bft) W-SW 243 2 min 0,000 mm 0,6 UV-I 247 W/m 3,1 C 3,1 C 16,1 km/h (3 Bft) 97,73 %
31.10.2017 09:28 6,1 C 7,8 C 81 % 1027,1 hPa 0,0 l/m 9,6 km/h (2 Bft) W 276 2 min 0,000 mm 0,7 UV-I 302 W/m 3,1 C 3,6 C 12,9 km/h (3 Bft) 95,12 %
31.10.2017 09:30 6,1 C 7,8 C 82 % 1027,1 hPa 0,0 l/m 6,2 km/h (2 Bft) SW 229 2 min 0,000 mm 0,7 UV-I 350 W/m 3,3 C 6,1 C 11,3 km/h (2 Bft) 95,74 %
31.10.2017 09:32 6,2 C 7,8 C 83 % 1027,1 hPa 0,0 l/m 4,4 km/h (1 Bft) W-SW 240 2 min 0,000 mm 0,8 UV-I 330 W/m 3,5 C 6,2 C 9,7 km/h (2 Bft) 97,87 %
31.10.2017 09:34 6,3 C 8,3 C 83 % 1027,1 hPa 0,0 l/m 7,5 km/h (2 Bft) W 270 2 min 0,000 mm 0,8 UV-I 339 W/m 3,6 C 5,4 C 12,9 km/h (3 Bft) 96,23 %
31.10.2017 09:36 6,3 C 7,8 C 82 % 1027,1 hPa 0,0 l/m 4,5 km/h (1 Bft) W 279 2 min 0,000 mm 0,8 UV-I 387 W/m 3,5 C 6,3 C 11,3 km/h (2 Bft) 97,73 %
31.10.2017 09:38 6,4 C 7,8 C 81 % 1027,1 hPa 0,0 l/m 7,4 km/h (2 Bft) W 266 2 min 0,000 mm 0,8 UV-I 400 W/m 3,4 C 5,6 C 12,9 km/h (3 Bft) 97,56 %
31.10.2017 09:40 6,5 C 7,8 C 81 % 1027,0 hPa 0,0 l/m 4,5 km/h (1 Bft) W-SW 250 2 min 0,000 mm 0,8 UV-I 420 W/m 3,5 C 6,5 C 8,0 km/h (2 Bft) 98,00 %
31.10.2017 09:42 6,6 C 7,8 C 81 % 1027,1 hPa 0,0 l/m 3,1 km/h (1 Bft) SW 228 2 min 0,000 mm 0,8 UV-I 422 W/m 3,6 C 6,6 C 6,4 km/h (2 Bft) 98,15 %
31.10.2017 09:44 6,7 C 7,8 C 81 % 1027,0 hPa 0,0 l/m 6,6 km/h (2 Bft) W 273 2 min 0,000 mm 0,8 UV-I 500 W/m 3,7 C 6,6 C 12,9 km/h (3 Bft) 97,37 %
31.10.2017 09:46 6,8 C 7,8 C 81 % 1027,1 hPa 0,0 l/m 5,8 km/h (2 Bft) W-NW 286 2 min 0,000 mm 0,8 UV-I 489 W/m 3,8 C 6,8 C 11,3 km/h (2 Bft) 97,87 %
31.10.2017 09:48 6,8 C 7,8 C 81 % 1027,1 hPa 0,0 l/m 5,2 km/h (1 Bft) W-SW 248 2 min 0,000 mm 0,7 UV-I 430 W/m 3,8 C 6,8 C 8,0 km/h (2 Bft) 98,11 %
31.10.2017 09:50 6,9 C 7,8 C 80 % 1027,1 hPa 0,0 l/m 5,3 km/h (1 Bft) NW 316 2 min 0,000 mm 0,7 UV-I 483 W/m 3,7 C 6,9 C 11,3 km/h (2 Bft) 95,74 %
31.10.2017 09:52 6,9 C 7,8 C 80 % 1027,1 hPa 0,0 l/m 5,6 km/h (1 Bft) NW 311 0 min 0,000 mm 0,7 UV-I 186 W/m 3,7 C 6,9 C 12,9 km/h (3 Bft) 100,00 %
31.10.2017 09:54 6,9 C 7,8 C 80 % 1027,1 hPa 0,0 l/m 5,5 km/h (1 Bft) W-NW 296 2 min 0,000 mm 0,8 UV-I 404 W/m 3,7 C 6,9 C 12,9 km/h (3 Bft) 100,00 %
31.10.2017 09:56 6,9 C 7,8 C 80 % 1027,1 hPa 0,0 l/m 5,8 km/h (2 Bft) NW 304 2 min 0,000 mm 0,7 UV-I 468 W/m 3,7 C 6,9 C 12,9 km/h (3 Bft) 100,00 %
31.10.2017 09:58 6,9 C 7,8 C 81 % 1027,1 hPa 0,0 l/m 4,2 km/h (1 Bft) W-NW 287 2 min 0,000 mm 0,7 UV-I 442 W/m 3,9 C 6,9 C 9,7 km/h (2 Bft) 95,38 %
31.10.2017 10:00 6,9 C 7,8 C 80 % 1027,1 hPa 0,0 l/m 3,7 km/h (1 Bft) W-SW 254 2 min 0,152 mm 0,6 UV-I 259 W/m 3,7 C 6,9 C 11,3 km/h (2 Bft) 100,00 %
31.10.2017 10:03 6,8 C 7,8 C 81 % 1027,1 hPa 0,0 l/m 2,7 km/h (1 Bft) W-SW 246 0 min 0,000 mm 0,7 UV-I 206 W/m 3,8 C 6,8 C 6,4 km/h (2 Bft) 100,00 %
31.10.2017 10:04 6,8 C 7,8 C 81 % 1027,1 hPa 0,0 l/m 6,5 km/h (2 Bft) W-NW 294 0 min 0,000 mm 0,9 UV-I 209 W/m 3,8 C 6,7 C 11,3 km/h (2 Bft) 100,00 %
31.10.2017 10:06 6,8 C 7,8 C 82 % 1027,1 hPa 0,0 l/m 4,3 km/h (1 Bft) W-NW 294 0 min 0,000 mm 0,8 UV-I 210 W/m 3,9 C 6,8 C 14,5 km/h (3 Bft) 100,00 %
31.10.2017 10:08 6,8 C 8,3 C 81 % 1027,1 hPa 0,0 l/m 5,1 km/h (1 Bft) SW 236 0 min 0,000 mm 0,8 UV-I 213 W/m 3,8 C 6,8 C 12,9 km/h (3 Bft) 97,37 %
31.10.2017 10:10 6,8 C 7,8 C 81 % 1027,1 hPa 0,0 l/m 4,2 km/h (1 Bft) S-SW 205 0 min 0,000 mm 0,7 UV-I 220 W/m 3,8 C 6,8 C 8,0 km/h (2 Bft) 100,00 %
31.10.2017 10:12 6,9 C 7,8 C 81 % 1027,1 hPa 0,0 l/m 2,2 km/h (1 Bft) NW 306 0 min 0,000 mm 0,8 UV-I 214 W/m 3,9 C 6,9 C 6,4 km/h (2 Bft) 97,37 %
31.10.2017 10:14 6,9 C 7,8 C 81 % 1027,2 hPa 0,0 l/m 3,5 km/h (1 Bft) W-NW 295 0 min 0,000 mm 0,8 UV-I 210 W/m 3,9 C 6,9 C 6,4 km/h (2 Bft) 100,00 %
31.10.2017 10:16 6,8 C 8,3 C 80 % 1027,2 hPa 0,0 l/m 1,8 km/h (1 Bft) NW 311 0 min 0,000 mm 0,8 UV-I 224 W/m 3,6 C 6,8 C 4,8 km/h (1 Bft) 97,56 %
31.10.2017 10:18 6,9 C 7,8 C 82 % 1027,2 hPa 0,0 l/m 4,6 km/h (1 Bft) W-SW 248 0 min 0,000 mm 0,8 UV-I 207 W/m 4,0 C 6,9 C 11,3 km/h (2 Bft) 100,00 %
31.10.2017 10:20 7,0 C 7,8 C 81 % 1027,2 hPa 0,0 l/m 4,0 km/h (1 Bft) W-SW 252 2 min 0,000 mm 0,8 UV-I 236 W/m 4,0 C 7,0 C 6,4 km/h (2 Bft) 100,00 %
31.10.2017 10:22 7,1 C 8,3 C 81 % 1027,2 hPa 0,0 l/m 0,6 km/h (0 Bft) W-SW 252 2 min 0,000 mm 0,8 UV-I 309 W/m 4,1 C 7,1 C 3,2 km/h (1 Bft) 100,00 %
31.10.2017 10:24 7,1 C 7,8 C 81 % 1027,2 hPa 0,0 l/m 3,4 km/h (1 Bft) W-SW 254 0 min 0,000 mm 0,9 UV-I 235 W/m 4,1 C 7,1 C 6,4 km/h (2 Bft) 97,56 %
31.10.2017 10:26 7,1 C 7,8 C 81 % 1027,2 hPa 0,0 l/m 3,9 km/h (1 Bft) W-NW 290 2 min 0,000 mm 0,9 UV-I 274 W/m 4,1 C 7,1 C 6,4 km/h (2 Bft) 100,00 %
31.10.2017 10:28 7,2 C 8,3 C 79 % 1027,1 hPa 0,0 l/m 8,0 km/h (2 Bft) W 277 2 min 0,000 mm 0,9 UV-I 249 W/m 3,8 C 5,9 C 11,3 km/h (2 Bft) 100,00 %
31.10.2017 10:30 7,1 C 7,8 C 79 % 1027,1 hPa 0,0 l/m 9,2 km/h (2 Bft) W-SW 258 2 min 0,000 mm 0,9 UV-I 253 W/m 3,7 C 4,9 C 16,1 km/h (3 Bft) 98,00 %
31.10.2017 10:32 7,2 C 7,8 C 79 % 1027,2 hPa 0,0 l/m 6,6 km/h (2 Bft) W 277 0 min 0,000 mm 0,9 UV-I 229 W/m 3,8 C 7,1 C 12,9 km/h (3 Bft) 95,74 %
31.10.2017 10:34 7,2 C 7,8 C 80 % 1027,2 hPa 0,0 l/m 5,4 km/h (1 Bft) W-SW 243 0 min 0,000 mm 1,0 UV-I 225 W/m 4,0 C 7,2 C 12,9 km/h (3 Bft) 100,00 %
31.10.2017 10:36 7,2 C 7,8 C 78 % 1027,2 hPa 0,0 l/m 8,9 km/h (2 Bft) W-SW 255 0 min 0,000 mm 1,0 UV-I 200 W/m 3,6 C 5,2 C 16,1 km/h (3 Bft) 98,11 %
31.10.2017 10:38 7,2 C 8,3 C 79 % 1027,1 hPa 0,0 l/m 6,8 km/h (2 Bft) SW 233 0 min 0,000 mm 1,2 UV-I 239 W/m 3,8 C 6,9 C 12,9 km/h (3 Bft) 100,00 %
31.10.2017 10:40 7,3 C 8,3 C 78 % 1027,1 hPa 0,0 l/m 6,8 km/h (2 Bft) W-NW 289 2 min 0,000 mm 1,2 UV-I 531 W/m 3,7 C 7,0 C 12,9 km/h (3 Bft) 100,00 %
31.10.2017 10:42 7,6 C 8,3 C 77 % 1027,1 hPa 0,0 l/m 8,5 km/h (2 Bft) W-SW 242 2 min 0,000 mm 1,2 UV-I 426 W/m 3,8 C 6,0 C 16,1 km/h (3 Bft) 100,00 %
31.10.2017 10:44 7,7 C 8,3 C 77 % 1027,1 hPa 0,0 l/m 12,3 km/h (3 Bft) W-SW 245 2 min 0,000 mm 1,2 UV-I 446 W/m 3,9 C 3,7 C 17,7 km/h (3 Bft) 100,00 %
31.10.2017 10:46 7,8 C 8,3 C 76 % 1027,1 hPa 0,0 l/m 11,0 km/h (2 Bft) W-NW 282 2 min 0,000 mm 1,2 UV-I 548 W/m 3,8 C 4,6 C 16,1 km/h (3 Bft) 100,00 %
31.10.2017 10:48 7,9 C 8,3 C 76 % 1027,1 hPa 0,0 l/m 13,1 km/h (3 Bft) W 261 2 min 0,000 mm 1,1 UV-I 601 W/m 3,9 C 3,5 C 17,7 km/h (3 Bft) 100,00 %
31.10.2017 10:50 7,9 C 8,3 C 75 % 1027,0 hPa 0,0 l/m 5,2 km/h (1 Bft) W-NW 287 2 min 0,000 mm 0,9 UV-I 561 W/m 3,7 C 7,9 C 11,3 km/h (2 Bft) 100,00 %
31.10.2017 10:52 8,1 C 8,3 C 76 % 1027,0 hPa 0,0 l/m 3,6 km/h (1 Bft) W 281 2 min 0,000 mm 0,9 UV-I 357 W/m 4,1 C 8,1 C 12,9 km/h (3 Bft) 98,00 %
31.10.2017 10:54 7,9 C 8,3 C 76 % 1027,0 hPa 0,0 l/m 6,9 km/h (2 Bft) W-NW 283 2 min 0,000 mm 0,9 UV-I 262 W/m 3,9 C 7,5 C 12,9 km/h (3 Bft) 91,49 %
31.10.2017 10:56 7,8 C 8,3 C 78 % 1027,0 hPa 0,0 l/m 3,4 km/h (1 Bft) N 10 0 min 0,000 mm 0,9 UV-I 239 W/m 4,2 C 7,8 C 6,4 km/h (2 Bft) 97,87 %
31.10.2017 10:58 7,8 C 8,3 C 78 % 1027,0 hPa 0,0 l/m 3,1 km/h (1 Bft) W-SW 251 0 min 0,000 mm 1,0 UV-I 247 W/m 4,2 C 7,8 C 8,0 km/h (2 Bft) 97,37 %
31.10.2017 11:00 7,8 C 8,3 C 77 % 1027,0 hPa 0,0 l/m 3,8 km/h (1 Bft) W-NW 300 2 min 0,000 mm 0,9 UV-I 273 W/m 4,0 C 7,8 C 8,0 km/h (2 Bft) 98,11 %
31.10.2017 11:02 7,7 C 8,3 C 77 % 1027,0 hPa 0,0 l/m 3,6 km/h (1 Bft) NW 311 2 min 0,153 mm 1,0 UV-I 271 W/m 3,9 C 7,7 C 11,3 km/h (2 Bft) 97,87 %
31.10.2017 11:04 7,9 C 8,3 C 78 % 1027,0 hPa 0,0 l/m 3,4 km/h (1 Bft) W-NW 291 2 min 0,000 mm 1,2 UV-I 271 W/m 4,3 C 7,9 C 6,4 km/h (2 Bft) 94,00 %
31.10.2017 11:06 8,0 C 8,3 C 77 % 1026,9 hPa 0,0 l/m 7,7 km/h (2 Bft) W-NW 282 2 min 0,000 mm 1,0 UV-I 408 W/m 4,2 C 7,0 C 14,5 km/h (3 Bft) 97,56 %
31.10.2017 11:08 8,0 C 8,3 C 76 % 1027,0 hPa 0,0 l/m 8,3 km/h (2 Bft) W-NW 298 2 min 0,000 mm 1,1 UV-I 317 W/m 4,0 C 6,5 C 12,9 km/h (3 Bft) 94,64 %
31.10.2017 11:10 7,9 C 8,3 C 75 % 1026,9 hPa 0,0 l/m 9,8 km/h (2 Bft) S-SW 213 2 min 0,000 mm 1,2 UV-I 343 W/m 3,7 C 5,4 C 16,1 km/h (3 Bft) 97,56 %
31.10.2017 11:12 7,9 C 8,3 C 76 % 1026,9 hPa 0,0 l/m 3,5 km/h (1 Bft) W-SW 250 2 min 0,000 mm 1,1 UV-I 344 W/m 3,9 C 7,9 C 8,0 km/h (2 Bft) 95,74 %
31.10.2017 11:14 8,0 C 8,3 C 76 % 1026,8 hPa 0,0 l/m 8,8 km/h (2 Bft) SW 224 0 min 0,000 mm 1,0 UV-I 238 W/m 4,0 C 6,2 C 20,9 km/h (4 Bft) 97,44 %
31.10.2017 11:16 7,9 C 8,3 C 75 % 1026,7 hPa 0,0 l/m 12,1 km/h (2 Bft) W-SW 255 0 min 0,000 mm 1,0 UV-I 209 W/m 3,7 C 4,0 C 19,3 km/h (3 Bft) 96,55 %
31.10.2017 11:18 7,9 C 8,3 C 75 % 1026,8 hPa 0,0 l/m 10,6 km/h (2 Bft) W 261 0 min 0,000 mm 1,0 UV-I 203 W/m 3,7 C 4,9 C 16,1 km/h (3 Bft) 98,00 %
31.10.2017 11:20 7,8 C 8,3 C 75 % 1026,8 hPa 0,0 l/m 6,6 km/h (2 Bft) W 269 0 min 0,000 mm 1,0 UV-I 205 W/m 3,7 C 7,7 C 16,1 km/h (3 Bft) 100,00 %
31.10.2017 11:22 7,8 C 8,3 C 76 % 1026,8 hPa 0,0 l/m 3,3 km/h (1 Bft) N-NO 19 0 min 0,000 mm 0,9 UV-I 180 W/m 3,8 C 7,8 C 6,4 km/h (2 Bft) 100,00 %
31.10.2017 11:24 7,8 C 8,3 C 76 % 1026,7 hPa 0,0 l/m 4,6 km/h (1 Bft) W-NW 288 0 min 0,000 mm 0,9 UV-I 144 W/m 3,8 C 7,8 C 6,4 km/h (2 Bft) 100,00 %
31.10.2017 11:26 7,7 C 8,3 C 75 % 1026,7 hPa 0,0 l/m 7,7 km/h (2 Bft) W-SW 256 0 min 0,000 mm 1,0 UV-I 142 W/m 3,6 C 6,7 C 14,5 km/h (3 Bft) 97,87 %
31.10.2017 11:29 7,7 C 8,3 C 77 % 1026,7 hPa 0,0 l/m 5,2 km/h (1 Bft) W-SW 249 0 min 0,000 mm 1,0 UV-I 155 W/m 3,9 C 7,7 C 11,3 km/h (2 Bft) 100,00 %
31.10.2017 11:30 7,7 C 8,3 C 77 % 1026,7 hPa 0,0 l/m 10,1 km/h (2 Bft) W-SW 248 0 min 0,000 mm 1,1 UV-I 167 W/m 3,9 C 5,0 C 14,5 km/h (3 Bft) 96,30 %
31.10.2017 11:32 7,7 C 8,3 C 75 % 1026,7 hPa 0,0 l/m 7,5 km/h (2 Bft) W-NW 294 0 min 0,000 mm 1,1 UV-I 186 W/m 3,6 C 6,8 C 12,9 km/h (3 Bft) 100,00 %
31.10.2017 11:34 7,7 C 8,3 C 76 % 1026,7 hPa 0,0 l/m 6,9 km/h (2 Bft) W 281 0 min 0,000 mm 1,0 UV-I 162 W/m 3,7 C 7,3 C 12,9 km/h (3 Bft) 100,00 %
31.10.2017 11:36 7,7 C 8,3 C 75 % 1026,7 hPa 0,0 l/m 7,8 km/h (2 Bft) W-SW 252 0 min 0,000 mm 1,1 UV-I 180 W/m 3,6 C 6,6 C 14,5 km/h (3 Bft) 97,56 %
31.10.2017 11:38 7,7 C 8,3 C 75 % 1026,7 hPa 0,0 l/m 5,2 km/h (1 Bft) W-SW 240 0 min 0,000 mm 1,2 UV-I 225 W/m 3,6 C 7,7 C 8,0 km/h (2 Bft) 98,11 %
31.10.2017 11:40 7,8 C 8,3 C 76 % 1026,7 hPa 0,0 l/m 5,0 km/h (1 Bft) W-SW 242 2 min 0,000 mm 1,2 UV-I 310 W/m 3,8 C 7,8 C 6,4 km/h (2 Bft) 100,00 %
31.10.2017 11:42 7,9 C 8,3 C 76 % 1026,7 hPa 0,0 l/m 6,9 km/h (2 Bft) W-SW 245 2 min 0,000 mm 1,1 UV-I 271 W/m 3,9 C 7,5 C 11,3 km/h (2 Bft) 100,00 %
31.10.2017 11:44 8,0 C 8,3 C 75 % 1026,7 hPa 0,0 l/m 6,8 km/h (2 Bft) W-SW 244 2 min 0,000 mm 1,3 UV-I 354 W/m 3,8 C 7,7 C 11,3 km/h (2 Bft) 100,00 %
31.10.2017 11:46 8,1 C 8,3 C 75 % 1026,7 hPa 0,0 l/m 7,5 km/h (2 Bft) W-SW 246 2 min 0,000 mm 1,3 UV-I 326 W/m 3,9 C 7,2 C 12,9 km/h (3 Bft) 100,00 %
31.10.2017 11:48 8,2 C 8,3 C 75 % 1026,7 hPa 0,0 l/m 10,2 km/h (2 Bft) W-SW 250 2 min 0,000 mm 1,2 UV-I 296 W/m 4,0 C 5,5 C 16,1 km/h (3 Bft) 100,00 %
31.10.2017 11:50 8,2 C 8,3 C 75 % 1026,6 hPa 0,0 l/m 8,1 km/h (2 Bft) W-SW 252 2 min 0,000 mm 1,3 UV-I 312 W/m 4,0 C 6,9 C 12,9 km/h (3 Bft) 100,00 %
31.10.2017 11:52 8,2 C 8,3 C 74 % 1026,7 hPa 0,0 l/m 9,4 km/h (2 Bft) SW 233 2 min 0,000 mm 1,2 UV-I 262 W/m 3,8 C 6,0 C 17,7 km/h (3 Bft) 100,00 %
31.10.2017 11:54 8,2 C 8,3 C 74 % 1026,6 hPa 0,0 l/m 10,4 km/h (2 Bft) W-SW 245 0 min 0,000 mm 1,2 UV-I 253 W/m 3,8 C 5,4 C 14,5 km/h (3 Bft) 100,00 %
31.10.2017 11:56 8,2 C 8,3 C 73 % 1026,7 hPa 0,0 l/m 13,0 km/h (3 Bft) W 274 2 min 0,000 mm 1,2 UV-I 261 W/m 3,7 C 3,9 C 22,5 km/h (4 Bft) 98,18 %
31.10.2017 11:58 8,2 C 8,3 C 75 % 1026,6 hPa 0,0 l/m 9,1 km/h (2 Bft) W 260 0 min 0,000 mm 1,1 UV-I 256 W/m 4,0 C 6,2 C 14,5 km/h (3 Bft) 100,00 %
31.10.2017 12:00 8,2 C 8,3 C 74 % 1026,5 hPa 0,0 l/m 6,6 km/h (2 Bft) SW 215 0 min 0,127 mm 1,1 UV-I 230 W/m 3,8 C 8,1 C 11,3 km/h (2 Bft) 100,00 %
31.10.2017 12:02 8,3 C 8,3 C 74 % 1026,5 hPa 0,0 l/m 9,3 km/h (2 Bft) W 261 2 min 0,000 mm 1,3 UV-I 461 W/m 3,9 C 6,2 C 16,1 km/h (3 Bft) 96,15 %
31.10.2017 12:04 8,6 C 8,3 C 74 % 1026,5 hPa 0,0 l/m 7,9 km/h (2 Bft) W 265 2 min 0,000 mm 1,5 UV-I 586 W/m 4,2 C 7,5 C 20,9 km/h (4 Bft) 98,53 %
31.10.2017 12:06 8,7 C 8,3 C 72 % 1026,4 hPa 0,0 l/m 12,3 km/h (3 Bft) W-NW 302 2 min 0,000 mm 1,5 UV-I 566 W/m 3,9 C 4,9 C 22,5 km/h (4 Bft) 100,00 %
31.10.2017 12:08 8,7 C 8,3 C 72 % 1026,4 hPa 0,0 l/m 10,3 km/h (2 Bft) NW 311 2 min 0,000 mm 1,5 UV-I 547 W/m 3,9 C 6,0 C 17,7 km/h (3 Bft) 100,00 %
31.10.2017 12:10 8,8 C 8,3 C 72 % 1026,4 hPa 0,0 l/m 8,7 km/h (2 Bft) W-SW 255 2 min 0,000 mm 1,5 UV-I 545 W/m 4,0 C 7,1 C 16,1 km/h (3 Bft) 97,87 %
31.10.2017 12:12 8,8 C 8,3 C 72 % 1026,4 hPa 0,0 l/m 7,2 km/h (2 Bft) W-SW 239 2 min 0,000 mm 1,5 UV-I 552 W/m 4,0 C 8,2 C 11,3 km/h (2 Bft) 100,00 %
31.10.2017 12:14 9,1 C 8,3 C 73 % 1026,4 hPa 0,0 l/m 4,8 km/h (1 Bft) S-SW 209 2 min 0,000 mm 1,5 UV-I 577 W/m 4,5 C 9,1 C 8,0 km/h (2 Bft) 98,00 %
31.10.2017 12:16 9,2 C 8,3 C 71 % 1026,4 hPa 0,0 l/m 7,5 km/h (2 Bft) SW 226 2 min 0,000 mm 1,5 UV-I 583 W/m 4,2 C 8,4 C 16,1 km/h (3 Bft) 100,00 %
31.10.2017 12:18 9,2 C 8,3 C 71 % 1026,4 hPa 0,0 l/m 7,6 km/h (2 Bft) W 259 2 min 0,000 mm 1,5 UV-I 576 W/m 4,2 C 8,3 C 14,5 km/h (3 Bft) 100,00 %
31.10.2017 12:20 9,2 C 8,3 C 70 % 1026,4 hPa 0,0 l/m 11,4 km/h (2 Bft) W-SW 258 2 min 0,000 mm 1,5 UV-I 565 W/m 4,0 C 5,9 C 16,1 km/h (3 Bft) 100,00 %
31.10.2017 12:22 9,2 C 8,3 C 70 % 1026,3 hPa 0,0 l/m 11,9 km/h (2 Bft) SW 232 2 min 0,000 mm 1,4 UV-I 532 W/m 4,0 C 5,6 C 17,7 km/h (3 Bft) 100,00 %
31.10.2017 12:24 9,2 C 8,3 C 71 % 1026,3 hPa 0,0 l/m 5,5 km/h (1 Bft) W 260 2 min 0,000 mm 1,4 UV-I 506 W/m 4,2 C 9,2 C 12,9 km/h (3 Bft) 98,00 %
31.10.2017 12:26 9,2 C 8,3 C 71 % 1026,3 hPa 0,0 l/m 2,7 km/h (1 Bft) N 355 2 min 0,000 mm 1,4 UV-I 493 W/m 4,2 C 9,2 C 6,4 km/h (2 Bft) 100,00 %
31.10.2017 12:28 9,1 C 8,3 C 72 % 1026,3 hPa 0,0 l/m 6,1 km/h (2 Bft) NW 312 2 min 0,000 mm 1,2 UV-I 324 W/m 4,3 C 9,1 C 12,9 km/h (3 Bft) 100,00 %
31.10.2017 12:30 8,8 C 8,3 C 69 % 1026,3 hPa 0,0 l/m 7,1 km/h (2 Bft) W 267 0 min 0,000 mm 1,2 UV-I 189 W/m 3,4 C 8,3 C 16,1 km/h (3 Bft) 100,00 %
31.10.2017 12:32 8,6 C 8,3 C 70 % 1026,3 hPa 0,0 l/m 6,0 km/h (2 Bft) W 267 2 min 0,000 mm 1,2 UV-I 279 W/m 3,4 C 8,6 C 17,7 km/h (3 Bft) 97,37 %
31.10.2017 12:34 8,4 C 8,3 C 74 % 1026,3 hPa 0,0 l/m 3,1 km/h (1 Bft) N-NW 336 0 min 0,000 mm 1,2 UV-I 169 W/m 4,0 C 8,4 C 6,4 km/h (2 Bft) 96,23 %
31.10.2017 12:36 8,4 C 8,3 C 72 % 1026,3 hPa 0,0 l/m 3,8 km/h (1 Bft) W-NW 295 0 min 0,000 mm 1,1 UV-I 125 W/m 3,7 C 8,4 C 9,7 km/h (2 Bft) 97,22 %
31.10.2017 12:38 8,3 C 8,3 C 73 % 1026,3 hPa 0,0 l/m 7,0 km/h (2 Bft) W-NW 290 0 min 0,000 mm 1,0 UV-I 114 W/m 3,8 C 7,8 C 12,9 km/h (3 Bft) 98,21 %
31.10.2017 12:40 8,1 C 8,3 C 73 % 1026,3 hPa 0,0 l/m 6,1 km/h (2 Bft) W-NW 284 0 min 0,000 mm 1,0 UV-I 128 W/m 3,6 C 8,1 C 12,9 km/h (3 Bft) 97,87 %
31.10.2017 12:42 8,0 C 8,3 C 74 % 1026,2 hPa 0,0 l/m 6,6 km/h (2 Bft) W 267 0 min 0,000 mm 1,0 UV-I 105 W/m 3,7 C 7,9 C 16,1 km/h (3 Bft) 98,00 %
31.10.2017 12:44 7,9 C 8,3 C 75 % 1026,3 hPa 0,0 l/m 3,1 km/h (1 Bft) NW 313 0 min 0,000 mm 1,0 UV-I 111 W/m 3,7 C 7,9 C 6,4 km/h (2 Bft) 97,37 %
31.10.2017 12:46 7,9 C 8,3 C 74 % 1026,2 hPa 0,0 l/m 5,4 km/h (1 Bft) W-SW 254 0 min 0,000 mm 1,0 UV-I 85 W/m 3,6 C 7,9 C 12,9 km/h (3 Bft) 98,11 %
31.10.2017 12:48 7,9 C 8,3 C 75 % 1026,2 hPa 0,0 l/m 5,3 km/h (1 Bft) W 275 0 min 0,000 mm 1,1 UV-I 119 W/m 3,7 C 7,9 C 8,0 km/h (2 Bft) 95,45 %
31.10.2017 12:50 7,9 C 8,3 C 75 % 1026,2 hPa 0,0 l/m 9,7 km/h (2 Bft) SW 235 0 min 0,000 mm 1,0 UV-I 225 W/m 3,7 C 5,5 C 16,1 km/h (3 Bft) 97,56 %
31.10.2017 12:52 7,8 C 8,3 C 73 % 1026,2 hPa 0,0 l/m 10,9 km/h (2 Bft) W 261 0 min 0,000 mm 1,0 UV-I 101 W/m 3,3 C 4,6 C 16,1 km/h (3 Bft) 98,11 %
31.10.2017 12:54 7,8 C 8,3 C 72 % 1026,1 hPa 0,0 l/m 11,0 km/h (2 Bft) W 269 0 min 0,000 mm 0,9 UV-I 93 W/m 3,1 C 4,6 C 19,3 km/h (3 Bft) 98,21 %
31.10.2017 12:56 7,7 C 8,3 C 73 % 1026,1 hPa 0,0 l/m 10,7 km/h (2 Bft) W 269 0 min 0,000 mm 0,9 UV-I 94 W/m 3,2 C 4,6 C 16,1 km/h (3 Bft) 97,37 %
31.10.2017 12:58 7,7 C 8,3 C 74 % 1026,1 hPa 0,0 l/m 7,9 km/h (2 Bft) W-NW 288 0 min 0,000 mm 0,9 UV-I 97 W/m 3,4 C 6,5 C 12,9 km/h (3 Bft) 97,56 %
31.10.2017 13:00 7,6 C 8,3 C 74 % 1026,1 hPa 0,0 l/m 5,4 km/h (1 Bft) W 260 0 min 0,152 mm 0,9 UV-I 120 W/m 3,3 C 7,6 C 11,3 km/h (2 Bft) 100,00 %
31.10.2017 13:02 7,6 C 8,3 C 75 % 1026,1 hPa 0,0 l/m 8,4 km/h (2 Bft) W-SW 255 0 min 0,000 mm 0,9 UV-I 107 W/m 3,5 C 6,0 C 16,1 km/h (3 Bft) 97,56 %
31.10.2017 13:04 7,6 C 8,3 C 75 % 1026,1 hPa 0,0 l/m 6,6 km/h (2 Bft) W 263 0 min 0,000 mm 0,9 UV-I 87 W/m 3,5 C 7,5 C 12,9 km/h (3 Bft) 98,11 %
31.10.2017 13:06 7,6 C 8,3 C 75 % 1026,1 hPa 0,0 l/m 5,4 km/h (1 Bft) W 269 0 min 0,000 mm 0,9 UV-I 105 W/m 3,5 C 7,6 C 11,3 km/h (2 Bft) 100,00 %
31.10.2017 13:08 7,6 C 8,3 C 75 % 1026,1 hPa 0,0 l/m 5,9 km/h (2 Bft) W 262 0 min 0,000 mm 1,0 UV-I 139 W/m 3,5 C 7,6 C 12,9 km/h (3 Bft) 96,00 %
31.10.2017 13:10 7,8 C 8,3 C 75 % 1026,2 hPa 0,0 l/m 2,8 km/h (1 Bft) W-NW 302 2 min 0,000 mm 1,1 UV-I 360 W/m 3,7 C 7,8 C 6,4 km/h (2 Bft) 100,00 %
31.10.2017 13:12 8,0 C 8,3 C 75 % 1026,1 hPa 0,0 l/m 2,9 km/h (1 Bft) N-NW 329 2 min 0,000 mm 0,9 UV-I 354 W/m 3,8 C 8,0 C 4,8 km/h (1 Bft) 100,00 %
31.10.2017 13:14 8,1 C 8,3 C 75 % 1026,0 hPa 0,0 l/m 5,5 km/h (1 Bft) W-SW 247 2 min 0,000 mm 0,9 UV-I 234 W/m 3,9 C 8,1 C 12,9 km/h (3 Bft) 100,00 %
31.10.2017 13:16 8,2 C 8,3 C 77 % 1026,1 hPa 0,0 l/m 6,3 km/h (2 Bft) W 262 2 min 0,000 mm 0,9 UV-I 250 W/m 4,4 C 8,2 C 14,5 km/h (3 Bft) 100,00 %
31.10.2017 13:18 8,2 C 8,3 C 76 % 1026,0 hPa 0,0 l/m 4,1 km/h (1 Bft) W-NW 293 2 min 0,000 mm 1,1 UV-I 272 W/m 4,2 C 8,2 C 8,0 km/h (2 Bft) 100,00 %
31.10.2017 13:20 8,3 C 8,3 C 76 % 1026,0 hPa 0,0 l/m 4,0 km/h (1 Bft) N-NW 342 2 min 0,000 mm 1,0 UV-I 279 W/m 4,3 C 8,3 C 9,7 km/h (2 Bft) 95,12 %
31.10.2017 13:22 8,3 C 8,3 C 76 % 1026,0 hPa 0,0 l/m 4,6 km/h (1 Bft) W-NW 293 0 min 0,000 mm 1,0 UV-I 217 W/m 4,3 C 8,3 C 12,9 km/h (3 Bft) 98,21 %
31.10.2017 13:24 8,3 C 8,3 C 77 % 1026,0 hPa 0,0 l/m 4,2 km/h (1 Bft) NW 319 0 min 0,000 mm 0,9 UV-I 218 W/m 4,5 C 8,3 C 11,3 km/h (2 Bft) 100,00 %
31.10.2017 13:26 8,2 C 8,3 C 75 % 1025,9 hPa 0,0 l/m 3,4 km/h (1 Bft) N-NW 338 2 min 0,000 mm 0,9 UV-I 226 W/m 4,0 C 8,2 C 9,7 km/h (2 Bft) 100,00 %
31.10.2017 13:28 8,1 C 8,3 C 77 % 1025,9 hPa 0,0 l/m 3,9 km/h (1 Bft) NW 310 2 min 0,000 mm 1,0 UV-I 296 W/m 4,3 C 8,1 C 11,3 km/h (2 Bft) 100,00 %
31.10.2017 13:30 8,2 C 8,3 C 77 % 1025,9 hPa 0,0 l/m 6,4 km/h (2 Bft) W-NW 299 2 min 0,000 mm 0,9 UV-I 433 W/m 4,4 C 8,2 C 11,3 km/h (2 Bft) 100,00 %
31.10.2017 13:32 8,2 C 8,3 C 77 % 1025,9 hPa 0,0 l/m 6,3 km/h (2 Bft) NW 304 2 min 0,000 mm 0,8 UV-I 255 W/m 4,4 C 8,2 C 12,9 km/h (3 Bft) 100,00 %
31.10.2017 13:34 8,1 C 8,3 C 77 % 1025,9 hPa 0,0 l/m 3,3 km/h (1 Bft) NW 321 0 min 0,000 mm 0,7 UV-I 191 W/m 4,3 C 8,1 C 8,0 km/h (2 Bft) 98,11 %
31.10.2017 13:36 8,1 C 8,3 C 78 % 1026,0 hPa 0,0 l/m 3,1 km/h (1 Bft) NW 312 0 min 0,000 mm 0,6 UV-I 161 W/m 4,5 C 8,1 C 4,8 km/h (1 Bft) 100,00 %
31.10.2017 13:38 8,0 C 8,3 C 78 % 1026,0 hPa 0,0 l/m 6,7 km/h (2 Bft) W-SW 257 0 min 0,000 mm 0,7 UV-I 167 W/m 4,4 C 7,8 C 11,3 km/h (2 Bft) 100,00 %
31.10.2017 13:40 8,0 C 8,3 C 76 % 1025,9 hPa 0,0 l/m 9,3 km/h (2 Bft) W-SW 244 0 min 0,000 mm 0,7 UV-I 184 W/m 4,0 C 5,8 C 12,9 km/h (3 Bft) 100,00 %
31.10.2017 13:42 8,1 C 8,3 C 74 % 1026,0 hPa 0,0 l/m 10,6 km/h (2 Bft) W-SW 248 0 min 0,000 mm 0,7 UV-I 200 W/m 3,8 C 5,1 C 17,7 km/h (3 Bft) 100,00 %
31.10.2017 13:44 8,1 C 8,3 C 72 % 1026,0 hPa 0,0 l/m 10,8 km/h (2 Bft) W 265 0 min 0,000 mm 0,7 UV-I 208 W/m 3,4 C 5,0 C 17,7 km/h (3 Bft) 100,00 %
31.10.2017 13:46 8,1 C 8,3 C 71 % 1025,9 hPa 0,0 l/m 9,6 km/h (2 Bft) W 270 2 min 0,000 mm 0,7 UV-I 214 W/m 3,2 C 5,8 C 14,5 km/h (3 Bft) 97,56 %
31.10.2017 13:48 8,2 C 8,3 C 71 % 1025,9 hPa 0,0 l/m 7,2 km/h (2 Bft) W 271 2 min 0,000 mm 0,7 UV-I 248 W/m 3,3 C 7,6 C 12,9 km/h (3 Bft) 100,00 %
31.10.2017 13:50 8,3 C 8,3 C 73 % 1025,9 hPa 0,0 l/m 7,4 km/h (2 Bft) W 277 2 min 0,000 mm 0,7 UV-I 366 W/m 3,8 C 7,5 C 14,5 km/h (3 Bft) 97,37 %
31.10.2017 13:52 8,4 C 8,3 C 72 % 1025,8 hPa 0,0 l/m 4,6 km/h (1 Bft) W-SW 258 2 min 0,000 mm 0,7 UV-I 345 W/m 3,7 C 8,4 C 6,4 km/h (2 Bft) 98,11 %
31.10.2017 13:54 8,6 C 8,3 C 73 % 1025,9 hPa 0,0 l/m 4,5 km/h (1 Bft) W 279 2 min 0,000 mm 0,7 UV-I 295 W/m 4,0 C 8,6 C 11,3 km/h (2 Bft) 100,00 %
31.10.2017 13:56 8,7 C 8,3 C 73 % 1025,8 hPa 0,0 l/m 3,8 km/h (1 Bft) SW 215 2 min 0,000 mm 0,7 UV-I 244 W/m 4,1 C 8,7 C 6,4 km/h (2 Bft) 100,00 %
31.10.2017 13:58 8,7 C 8,3 C 73 % 1025,8 hPa 0,0 l/m 3,1 km/h (1 Bft) W-SW 248 0 min 0,000 mm 0,7 UV-I 201 W/m 4,1 C 8,7 C 6,4 km/h (2 Bft) 100,00 %
31.10.2017 14:00 8,5 C 8,3 C 72 % 1025,8 hPa 0,0 l/m 8,1 km/h (2 Bft) W 261 0 min 0,000 mm 0,7 UV-I 195 W/m 3,7 C 7,2 C 14,5 km/h (3 Bft) 98,25 %
31.10.2017 14:02 8,4 C 8,3 C 73 % 1025,7 hPa 0,0 l/m 4,4 km/h (1 Bft) W-NW 286 2 min 0,127 mm 0,7 UV-I 310 W/m 3,8 C 8,4 C 9,7 km/h (2 Bft) 100,00 %
31.10.2017 14:04 8,3 C 8,3 C 74 % 1025,8 hPa 0,0 l/m 4,9 km/h (1 Bft) W-SW 253 2 min 0,000 mm 0,7 UV-I 313 W/m 3,9 C 8,3 C 11,3 km/h (2 Bft) 100,00 %
31.10.2017 14:06 8,5 C 8,3 C 73 % 1025,8 hPa 0,0 l/m 3,2 km/h (1 Bft) W-NW 292 2 min 0,000 mm 0,8 UV-I 340 W/m 3,9 C 8,5 C 8,0 km/h (2 Bft) 100,00 %
31.10.2017 14:08 8,5 C 8,3 C 72 % 1025,7 hPa 0,0 l/m 5,2 km/h (1 Bft) NW 308 2 min 0,000 mm 0,7 UV-I 332 W/m 3,7 C 8,5 C 11,3 km/h (2 Bft) 100,00 %
31.10.2017 14:10 8,6 C 8,3 C 73 % 1025,8 hPa 0,0 l/m 4,1 km/h (1 Bft) W-SW 247 2 min 0,000 mm 0,7 UV-I 327 W/m 4,0 C 8,6 C 8,0 km/h (2 Bft) 100,00 %
31.10.2017 14:12 8,6 C 8,3 C 73 % 1025,8 hPa 0,0 l/m 3,0 km/h (1 Bft) W-SW 252 2 min 0,000 mm 0,7 UV-I 324 W/m 4,0 C 8,6 C 8,0 km/h (2 Bft) 100,00 %
31.10.2017 14:14 8,7 C 8,3 C 73 % 1025,7 hPa 0,0 l/m 2,9 km/h (1 Bft) W-SW 239 2 min 0,000 mm 0,7 UV-I 322 W/m 4,1 C 8,7 C 6,4 km/h (2 Bft) 100,00 %
31.10.2017 14:16 8,8 C 8,3 C 74 % 1025,7 hPa 0,0 l/m 1,2 km/h (1 Bft) NW 309 2 min 0,000 mm 0,7 UV-I 311 W/m 4,4 C 8,8 C 4,8 km/h (1 Bft) 100,00 %
31.10.2017 14:18 8,7 C 8,3 C 72 % 1025,7 hPa 0,0 l/m 3,8 km/h (1 Bft) W 259 2 min 0,000 mm 0,7 UV-I 312 W/m 3,9 C 8,7 C 6,4 km/h (2 Bft) 100,00 %
31.10.2017 14:20 8,7 C 8,3 C 69 % 1025,7 hPa 0,0 l/m 4,9 km/h (1 Bft) W-NW 294 2 min 0,000 mm 0,7 UV-I 300 W/m 3,3 C 8,7 C 6,4 km/h (2 Bft) 98,11 %
31.10.2017 14:22 8,6 C 8,3 C 72 % 1025,6 hPa 0,0 l/m 1,7 km/h (1 Bft) W-NW 295 2 min 0,000 mm 0,6 UV-I 301 W/m 3,8 C 8,6 C 4,8 km/h (1 Bft) 97,87 %
31.10.2017 14:24 8,7 C 8,3 C 72 % 1025,6 hPa 0,0 l/m 2,3 km/h (1 Bft) W-NW 286 2 min 0,000 mm 0,6 UV-I 320 W/m 3,9 C 8,7 C 4,8 km/h (1 Bft) 97,37 %
31.10.2017 14:26 8,7 C 8,3 C 72 % 1025,6 hPa 0,0 l/m 6,3 km/h (2 Bft) NW 311 2 min 0,000 mm 0,6 UV-I 328 W/m 3,9 C 8,7 C 11,3 km/h (2 Bft) 98,00 %
31.10.2017 14:28 8,7 C 8,3 C 72 % 1025,6 hPa 0,0 l/m 2,6 km/h (1 Bft) W 274 2 min 0,000 mm 0,6 UV-I 342 W/m 3,9 C 8,7 C 4,8 km/h (1 Bft) 94,64 %
31.10.2017 14:30 8,7 C 8,3 C 71 % 1025,5 hPa 0,0 l/m 2,1 km/h (1 Bft) W-NW 294 2 min 0,000 mm 0,6 UV-I 348 W/m 3,7 C 8,7 C 6,4 km/h (2 Bft) 100,00 %
31.10.2017 14:32 8,7 C 8,3 C 70 % 1025,5 hPa 0,0 l/m 4,9 km/h (1 Bft) W-NW 284 2 min 0,000 mm 0,6 UV-I 326 W/m 3,5 C 8,7 C 9,7 km/h (2 Bft) 96,23 %
31.10.2017 14:34 8,7 C 8,3 C 69 % 1025,6 hPa 0,0 l/m 6,7 km/h (2 Bft) W-SW 242 2 min 0,000 mm 0,5 UV-I 302 W/m 3,3 C 8,5 C 12,9 km/h (3 Bft) 97,44 %
31.10.2017 14:36 8,6 C 8,3 C 69 % 1025,5 hPa 0,0 l/m 3,9 km/h (1 Bft) NO 43 2 min 0,000 mm 0,5 UV-I 284 W/m 3,2 C 8,6 C 9,7 km/h (2 Bft) 97,87 %
31.10.2017 14:38 8,6 C 8,3 C 70 % 1025,5 hPa 0,0 l/m 5,6 km/h (1 Bft) W-NW 294 2 min 0,000 mm 0,5 UV-I 290 W/m 3,4 C 8,6 C 9,7 km/h (2 Bft) 98,11 %
31.10.2017 14:40 8,7 C 8,3 C 70 % 1025,4 hPa 0,0 l/m 4,8 km/h (1 Bft) N-NW 327 2 min 0,000 mm 0,5 UV-I 269 W/m 3,5 C 8,7 C 6,4 km/h (2 Bft) 97,37 %
31.10.2017 14:42 8,7 C 8,3 C 70 % 1025,5 hPa 0,0 l/m 4,6 km/h (1 Bft) W-NW 294 2 min 0,000 mm 0,5 UV-I 285 W/m 3,5 C 8,7 C 8,0 km/h (2 Bft) 98,21 %
31.10.2017 14:44 8,7 C 8,3 C 70 % 1025,4 hPa 0,0 l/m 2,7 km/h (1 Bft) SW 236 2 min 0,000 mm 0,5 UV-I 308 W/m 3,5 C 8,7 C 4,8 km/h (1 Bft) 97,37 %
31.10.2017 14:46 8,8 C 8,3 C 70 % 1025,4 hPa 0,0 l/m 1,6 km/h (1 Bft) SW 236 2 min 0,000 mm 0,4 UV-I 258 W/m 3,6 C 8,8 C 3,2 km/h (1 Bft) 98,11 %
31.10.2017 14:48 8,8 C 8,3 C 70 % 1025,4 hPa 0,0 l/m 2,2 km/h (1 Bft) W-SW 252 2 min 0,000 mm 0,0 UV-I 233 W/m 3,6 C 8,8 C 8,0 km/h (2 Bft) 96,00 %
31.10.2017 14:50 8,8 C 8,3 C 71 % 1025,4 hPa 0,0 l/m 3,0 km/h (1 Bft) NW 326 2 min 0,000 mm 0,0 UV-I 202 W/m 3,8 C 8,8 C 6,4 km/h (2 Bft) 97,56 %
31.10.2017 14:52 8,7 C 8,3 C 72 % 1025,4 hPa 0,0 l/m 2,7 km/h (1 Bft) S 177 2 min 0,000 mm 0,0 UV-I 253 W/m 3,9 C 8,7 C 8,0 km/h (2 Bft) 97,87 %
31.10.2017 14:54 8,6 C 8,3 C 70 % 1025,4 hPa 0,0 l/m 5,7 km/h (1 Bft) NW 310 2 min 0,000 mm 0,0 UV-I 211 W/m 3,4 C 8,6 C 9,7 km/h (2 Bft) 97,56 %
31.10.2017 14:56 8,6 C 8,3 C 71 % 1025,4 hPa 0,0 l/m 3,8 km/h (1 Bft) W-NW 299 2 min 0,000 mm 0,0 UV-I 198 W/m 3,6 C 8,6 C 11,3 km/h (2 Bft) 100,00 %
31.10.2017 14:58 8,5 C 8,3 C 69 % 1025,4 hPa 0,0 l/m 5,2 km/h (1 Bft) W-NW 294 2 min 0,000 mm 0,0 UV-I 254 W/m 3,1 C 8,5 C 12,9 km/h (3 Bft) 100,00 %
31.10.2017 15:00 8,4 C 8,3 C 71 % 1025,4 hPa 0,0 l/m 2,6 km/h (1 Bft) W-NW 282 2 min 0,127 mm 0,0 UV-I 210 W/m 3,5 C 8,4 C 6,4 km/h (2 Bft) 100,00 %
31.10.2017 15:02 8,4 C 8,3 C 70 % 1025,4 hPa 0,0 l/m 4,6 km/h (1 Bft) W-NW 288 2 min 0,000 mm 0,0 UV-I 162 W/m 3,3 C 8,4 C 9,7 km/h (2 Bft) 97,37 %
31.10.2017 15:04 8,4 C 8,3 C 71 % 1025,4 hPa 0,0 l/m 2,8 km/h (1 Bft) W-NW 285 0 min 0,000 mm 0,0 UV-I 120 W/m 3,5 C 8,4 C 9,7 km/h (2 Bft) 98,00 %
31.10.2017 15:06 8,3 C 8,3 C 69 % 1025,5 hPa 0,0 l/m 2,9 km/h (1 Bft) W-NW 294 0 min 0,000 mm 0,0 UV-I 99 W/m 3,0 C 8,3 C 4,8 km/h (1 Bft) 97,22 %
31.10.2017 15:08 8,2 C 8,3 C 70 % 1025,5 hPa 0,0 l/m 3,4 km/h (1 Bft) S 173 0 min 0,000 mm 0,0 UV-I 91 W/m 3,1 C 8,2 C 8,0 km/h (2 Bft) 100,00 %
31.10.2017 15:10 8,2 C 8,3 C 71 % 1025,5 hPa 0,0 l/m 2,3 km/h (1 Bft) NW 313 0 min 0,000 mm 0,0 UV-I 91 W/m 3,3 C 8,2 C 4,8 km/h (1 Bft) 97,37 %
31.10.2017 15:12 8,1 C 8,3 C 72 % 1025,4 hPa 0,0 l/m 3,7 km/h (1 Bft) W-NW 287 0 min 0,000 mm 0,0 UV-I 92 W/m 3,4 C 8,1 C 9,7 km/h (2 Bft) 100,00 %
31.10.2017 15:14 8,0 C 8,3 C 72 % 1025,4 hPa 0,0 l/m 5,9 km/h (2 Bft) W-NW 285 0 min 0,000 mm 0,0 UV-I 86 W/m 3,3 C 8,0 C 12,9 km/h (3 Bft) 100,00 %
31.10.2017 15:16 7,9 C 8,3 C 72 % 1025,5 hPa 0,0 l/m 2,8 km/h (1 Bft) W-NW 298 0 min 0,000 mm 0,0 UV-I 88 W/m 3,2 C 7,9 C 6,4 km/h (2 Bft) 100,00 %
31.10.2017 15:18 7,8 C 8,3 C 72 % 1025,4 hPa 0,0 l/m 2,9 km/h (1 Bft) NW 318 0 min 0,000 mm 0,0 UV-I 84 W/m 3,1 C 7,8 C 6,4 km/h (2 Bft) 100,00 %
31.10.2017 15:20 7,7 C 8,3 C 72 % 1025,5 hPa 0,0 l/m 2,3 km/h (1 Bft) W 273 0 min 0,000 mm 0,0 UV-I 78 W/m 3,0 C 7,7 C 6,4 km/h (2 Bft) 98,00 %
31.10.2017 15:22 7,7 C 8,3 C 73 % 1025,4 hPa 0,0 l/m 4,3 km/h (1 Bft) W 268 0 min 0,000 mm 0,0 UV-I 73 W/m 3,2 C 7,7 C 9,7 km/h (2 Bft) 100,00 %
31.10.2017 15:24 7,7 C 8,3 C 73 % 1025,4 hPa 0,0 l/m 1,6 km/h (1 Bft) W 269 0 min 0,000 mm 0,0 UV-I 70 W/m 3,2 C 7,7 C 4,8 km/h (1 Bft) 97,14 %
31.10.2017 15:26 7,6 C 8,3 C 74 % 1025,4 hPa 0,0 l/m 3,8 km/h (1 Bft) W 275 0 min 0,000 mm 0,0 UV-I 65 W/m 3,3 C 7,6 C 6,4 km/h (2 Bft) 98,11 %
31.10.2017 15:28 7,6 C 8,3 C 74 % 1025,4 hPa 0,0 l/m 3,4 km/h (1 Bft) W 277 0 min 0,000 mm 0,0 UV-I 56 W/m 3,3 C 7,6 C 4,8 km/h (1 Bft) 97,56 %
31.10.2017 15:30 7,5 C 8,3 C 74 % 1025,4 hPa 0,0 l/m 3,8 km/h (1 Bft) W 272 0 min 0,000 mm 0,0 UV-I 53 W/m 3,2 C 7,5 C 6,4 km/h (2 Bft) 96,43 %
31.10.2017 15:32 7,4 C 8,3 C 74 % 1025,3 hPa 0,0 l/m 3,5 km/h (1 Bft) W 272 0 min 0,000 mm 0,0 UV-I 52 W/m 3,1 C 7,4 C 6,4 km/h (2 Bft) 97,73 %
31.10.2017 15:34 7,4 C 8,3 C 74 % 1025,3 hPa 0,0 l/m 4,3 km/h (1 Bft) W-SW 255 0 min 0,000 mm 0,0 UV-I 50 W/m 3,1 C 7,4 C 6,4 km/h (2 Bft) 98,00 %
31.10.2017 15:36 7,3 C 8,3 C 75 % 1025,4 hPa 0,0 l/m 4,5 km/h (1 Bft) W 279 0 min 0,000 mm 0,0 UV-I 47 W/m 3,2 C 7,3 C 11,3 km/h (2 Bft) 94,74 %
31.10.2017 15:38 7,3 C 8,3 C 75 % 1025,3 hPa 0,0 l/m 5,9 km/h (2 Bft) W 275 0 min 0,000 mm 0,0 UV-I 44 W/m 3,2 C 7,3 C 11,3 km/h (2 Bft) 98,11 %
31.10.2017 15:40 7,3 C 8,3 C 75 % 1025,3 hPa 0,0 l/m 2,4 km/h (1 Bft) W 279 0 min 0,000 mm 0,0 UV-I 41 W/m 3,2 C 7,3 C 6,4 km/h (2 Bft) 97,56 %
31.10.2017 15:42 7,2 C 8,3 C 75 % 1025,3 hPa 0,0 l/m 3,4 km/h (1 Bft) W 281 0 min 0,000 mm 0,0 UV-I 40 W/m 3,1 C 7,2 C 6,4 km/h (2 Bft) 97,87 %
31.10.2017 15:44 7,2 C 8,3 C 75 % 1025,3 hPa 0,0 l/m 2,7 km/h (1 Bft) W 281 0 min 0,000 mm 0,0 UV-I 41 W/m 3,1 C 7,2 C 4,8 km/h (1 Bft) 97,87 %
31.10.2017 15:46 7,2 C 8,3 C 75 % 1025,3 hPa 0,0 l/m 4,6 km/h (1 Bft) W 280 0 min 0,000 mm 0,0 UV-I 42 W/m 3,1 C 7,2 C 9,7 km/h (2 Bft) 98,11 %
31.10.2017 15:48 7,1 C 8,3 C 76 % 1025,4 hPa 0,0 l/m 4,1 km/h (1 Bft) W 280 0 min 0,000 mm 0,0 UV-I 48 W/m 3,2 C 7,1 C 4,8 km/h (1 Bft) 94,00 %
31.10.2017 15:50 7,1 C 8,3 C 76 % 1025,3 hPa 0,0 l/m 3,4 km/h (1 Bft) W 280 0 min 0,000 mm 0,0 UV-I 50 W/m 3,2 C 7,1 C 4,8 km/h (1 Bft) 100,00 %
31.10.2017 15:52 7,1 C 8,3 C 77 % 1025,3 hPa 0,0 l/m 3,9 km/h (1 Bft) W 280 0 min 0,000 mm 0,0 UV-I 44 W/m 3,3 C 7,1 C 4,8 km/h (1 Bft) 96,15 %
31.10.2017 15:54 7,0 C 8,3 C 77 % 1025,3 hPa 0,0 l/m 3,7 km/h (1 Bft) W 280 0 min 0,000 mm 0,0 UV-I 41 W/m 3,2 C 7,0 C 4,8 km/h (1 Bft) 97,92 %
31.10.2017 15:56 6,9 C 8,3 C 77 % 1025,3 hPa 0,0 l/m 1,7 km/h (1 Bft) W 280 0 min 0,000 mm 0,0 UV-I 37 W/m 3,2 C 6,9 C 3,2 km/h (1 Bft) 95,74 %
31.10.2017 15:58 6,9 C 8,3 C 77 % 1025,3 hPa 0,0 l/m 2,9 km/h (1 Bft) W 280 0 min 0,000 mm 0,0 UV-I 36 W/m 3,2 C 6,9 C 4,8 km/h (1 Bft) 97,37 %
31.10.2017 16:00 6,9 C 8,3 C 77 % 1025,3 hPa 0,0 l/m 3,8 km/h (1 Bft) W 280 0 min 0,000 mm 0,0 UV-I 38 W/m 3,2 C 6,9 C 4,8 km/h (1 Bft) 96,43 %
31.10.2017 16:02 6,9 C 8,3 C 78 % 1025,3 hPa 0,0 l/m 2,8 km/h (1 Bft) W 280 0 min 0,051 mm 0,0 UV-I 43 W/m 3,3 C 6,9 C 4,8 km/h (1 Bft) 98,00 %
31.10.2017 16:04 6,8 C 8,3 C 78 % 1025,3 hPa 0,0 l/m 2,3 km/h (1 Bft) W 280 0 min 0,000 mm 0,0 UV-I 39 W/m 3,2 C 6,8 C 3,2 km/h (1 Bft) 97,56 %
31.10.2017 16:06 6,8 C 8,3 C 78 % 1025,3 hPa 0,0 l/m 1,6 km/h (1 Bft) W 280 0 min 0,000 mm 0,0 UV-I 51 W/m 3,2 C 6,8 C 3,2 km/h (1 Bft) 97,87 %
31.10.2017 16:08 6,8 C 8,3 C 78 % 1025,3 hPa 0,0 l/m 2,9 km/h (1 Bft) W 280 2 min 0,000 mm 0,0 UV-I 49 W/m 3,2 C 6,8 C 4,8 km/h (1 Bft) 97,87 %
31.10.2017 16:10 6,8 C 8,3 C 79 % 1025,3 hPa 0,0 l/m 1,7 km/h (1 Bft) W 280 0 min 0,000 mm 0,0 UV-I 42 W/m 3,4 C 6,8 C 3,2 km/h (1 Bft) 97,73 %
31.10.2017 16:12 6,7 C 8,3 C 78 % 1025,4 hPa 0,0 l/m 4,2 km/h (1 Bft) W 276 2 min 0,000 mm 0,0 UV-I 49 W/m 3,1 C 6,7 C 9,7 km/h (2 Bft) 96,23 %
31.10.2017 16:14 6,7 C 8,3 C 78 % 1025,4 hPa 0,0 l/m 3,1 km/h (1 Bft) W-NW 286 2 min 0,000 mm 0,0 UV-I 43 W/m 3,1 C 6,7 C 6,4 km/h (2 Bft) 95,12 %
31.10.2017 16:16 6,7 C 8,3 C 79 % 1025,4 hPa 0,0 l/m 2,8 km/h (1 Bft) W-NW 286 0 min 0,000 mm 0,0 UV-I 33 W/m 3,3 C 6,7 C 4,8 km/h (1 Bft) 98,11 %
31.10.2017 16:18 6,7 C 8,3 C 79 % 1025,4 hPa 0,0 l/m 2,7 km/h (1 Bft) W-NW 286 0 min 0,000 mm 0,0 UV-I 26 W/m 3,3 C 6,7 C 4,8 km/h (1 Bft) 97,56 %
31.10.2017 16:20 6,7 C 8,3 C 80 % 1025,4 hPa 0,0 l/m 2,8 km/h (1 Bft) W-NW 286 0 min 0,000 mm 0,0 UV-I 24 W/m 3,5 C 6,7 C 4,8 km/h (1 Bft) 100,00 %
31.10.2017 16:22 6,6 C 8,3 C 80 % 1025,4 hPa 0,0 l/m 3,0 km/h (1 Bft) W-NW 286 0 min 0,000 mm 0,0 UV-I 25 W/m 3,4 C 6,6 C 4,8 km/h (1 Bft) 98,00 %
31.10.2017 16:24 6,5 C 8,3 C 80 % 1025,4 hPa 0,0 l/m 2,0 km/h (1 Bft) W-NW 286 0 min 0,000 mm 0,0 UV-I 21 W/m 3,3 C 6,5 C 4,8 km/h (1 Bft) 100,00 %
31.10.2017 16:26 6,4 C 8,3 C 80 % 1025,4 hPa 0,0 l/m 0,7 km/h (0 Bft) W-NW 286 0 min 0,000 mm 0,0 UV-I 19 W/m 3,2 C 6,4 C 3,2 km/h (1 Bft) 100,00 %
31.10.2017 16:28 6,3 C 8,3 C 80 % 1025,4 hPa 0,0 l/m 1,8 km/h (1 Bft) W-NW 286 0 min 0,000 mm 0,0 UV-I 19 W/m 3,1 C 6,3 C 4,8 km/h (1 Bft) 95,56 %
31.10.2017 16:30 6,3 C 8,3 C 81 % 1025,4 hPa 0,0 l/m 0,0 km/h (0 Bft) W-NW 286 2 min 0,000 mm 0,0 UV-I 18 W/m 3,3 C 6,3 C 1,6 km/h (1 Bft) 100,00 %
31.10.2017 16:32 6,2 C 8,3 C 81 % 1025,4 hPa 0,0 l/m 0,0 km/h (0 Bft) W-NW 286 2 min 0,000 mm 0,0 UV-I 17 W/m 3,2 C 6,2 C 0,0 km/h (0 Bft) 100,00 %
31.10.2017 16:34 6,2 C 8,3 C 81 % 1025,4 hPa 0,0 l/m 0,4 km/h (0 Bft) W-NW 286 2 min 0,000 mm 0,0 UV-I 15 W/m 3,2 C 6,2 C 1,6 km/h (1 Bft) 100,00 %
31.10.2017 16:36 6,2 C 8,3 C 81 % 1025,4 hPa 0,0 l/m 0,5 km/h (0 Bft) W-NW 286 0 min 0,000 mm 0,0 UV-I 14 W/m 3,2 C 6,2 C 3,2 km/h (1 Bft) 100,00 %
31.10.2017 16:38 6,1 C 8,3 C 82 % 1025,4 hPa 0,0 l/m 0,0 km/h (0 Bft) W-NW 286 0 min 0,000 mm 0,0 UV-I 12 W/m 3,3 C 6,1 C 0,0 km/h (0 Bft) 98,00 %
31.10.2017 16:40 6,0 C 8,3 C 82 % 1025,4 hPa 0,0 l/m 0,0 km/h (0 Bft) W-NW 286 0 min 0,000 mm 0,0 UV-I 11 W/m 3,2 C 6,0 C 1,6 km/h (1 Bft) 97,37 %
31.10.2017 16:42 6,0 C 8,3 C 82 % 1025,4 hPa 0,0 l/m 0,4 km/h (0 Bft) W-NW 286 0 min 0,000 mm 0,0 UV-I 10 W/m 3,2 C 6,0 C 1,6 km/h (1 Bft) 96,23 %
31.10.2017 16:44 6,0 C 8,3 C 82 % 1025,5 hPa 0,0 l/m 0,2 km/h (0 Bft) W-NW 286 0 min 0,000 mm 0,0 UV-I 9 W/m 3,2 C 6,0 C 1,6 km/h (1 Bft) 100,00 %
31.10.2017 16:46 5,9 C 8,3 C 82 % 1025,5 hPa 0,0 l/m 1,0 km/h (0 Bft) W-NW 300 0 min 0,000 mm 0,0 UV-I 9 W/m 3,1 C 5,9 C 6,4 km/h (2 Bft) 100,00 %
31.10.2017 16:48 6,0 C 8,3 C 82 % 1025,5 hPa 0,0 l/m 4,3 km/h (1 Bft) W 279 0 min 0,000 mm 0,0 UV-I 8 W/m 3,2 C 6,0 C 9,7 km/h (2 Bft) 97,87 %
31.10.2017 16:50 6,0 C 8,3 C 82 % 1025,6 hPa 0,0 l/m 2,3 km/h (1 Bft) W 279 0 min 0,000 mm 0,0 UV-I 7 W/m 3,2 C 6,0 C 6,4 km/h (2 Bft) 95,74 %
31.10.2017 16:52 6,1 C 8,3 C 82 % 1025,6 hPa 0,0 l/m 0,1 km/h (0 Bft) W 279 0 min 0,000 mm 0,0 UV-I 7 W/m 3,3 C 6,1 C 1,6 km/h (1 Bft) 97,87 %
31.10.2017 16:54 6,1 C 8,3 C 82 % 1025,6 hPa 0,0 l/m 0,0 km/h (0 Bft) W 279 0 min 0,000 mm 0,0 UV-I 7 W/m 3,3 C 6,1 C 0,0 km/h (0 Bft) 96,00 %
31.10.2017 16:56 6,0 C 8,3 C 82 % 1025,6 hPa 0,0 l/m 0,0 km/h (0 Bft) W 279 0 min 0,000 mm 0,0 UV-I 6 W/m 3,2 C 6,0 C 0,0 km/h (0 Bft) 97,87 %
31.10.2017 16:58 5,9 C 8,3 C 82 % 1025,6 hPa 0,0 l/m 0,0 km/h (0 Bft) W 279 0 min 0,000 mm 0,0 UV-I 5 W/m 3,1 C 5,9 C 0,0 km/h (0 Bft) 97,37 %
31.10.2017 17:00 5,9 C 8,3 C 83 % 1025,6 hPa 0,0 l/m 0,0 km/h (0 Bft) W 279 0 min 0,025 mm 0,0 UV-I 5 W/m 3,2 C 5,9 C 0,0 km/h (0 Bft) 98,00 %
31.10.2017 17:02 5,9 C 8,3 C 83 % 1025,6 hPa 0,0 l/m 0,0 km/h (0 Bft) W 279 0 min 0,000 mm 0,0 UV-I 3 W/m 3,2 C 5,9 C 0,0 km/h (0 Bft) 97,87 %
31.10.2017 17:04 5,9 C 8,3 C 82 % 1025,6 hPa 0,0 l/m 0,0 km/h (0 Bft) W 279 0 min 0,000 mm 0,0 UV-I 0 W/m 3,1 C 5,9 C 0,0 km/h (0 Bft) 98,00 %
31.10.2017 17:06 5,9 C 8,3 C 82 % 1025,6 hPa 0,0 l/m 0,0 km/h (0 Bft) W 279 0 min 0,000 mm 0,0 UV-I 0 W/m 3,1 C 5,9 C 0,0 km/h (0 Bft) 94,00 %
31.10.2017 17:08 6,0 C 8,3 C 82 % 1025,5 hPa 0,0 l/m 0,0 km/h (0 Bft) W 279 0 min 0,000 mm 0,0 UV-I 0 W/m 3,2 C 6,0 C 0,0 km/h (0 Bft) 97,87 %
31.10.2017 17:10 6,0 C 8,3 C 82 % 1025,5 hPa 0,0 l/m 0,0 km/h (0 Bft) W 279 0 min 0,000 mm 0,0 UV-I 0 W/m 3,2 C 6,0 C 0,0 km/h (0 Bft) 97,22 %
31.10.2017 17:12 6,0 C 8,3 C 82 % 1025,5 hPa 0,0 l/m 0,6 km/h (0 Bft) W 279 0 min 0,000 mm 0,0 UV-I 0 W/m 3,2 C 6,0 C 3,2 km/h (1 Bft) 98,11 %
31.10.2017 17:14 6,0 C 8,3 C 82 % 1025,5 hPa 0,0 l/m 1,4 km/h (1 Bft) W 279 0 min 0,000 mm 0,0 UV-I 0 W/m 3,2 C 6,0 C 3,2 km/h (1 Bft) 97,96 %
31.10.2017 17:16 6,0 C 8,3 C 82 % 1025,5 hPa 0,0 l/m 1,7 km/h (1 Bft) W 279 0 min 0,000 mm 0,0 UV-I 0 W/m 3,2 C 6,0 C 3,2 km/h (1 Bft) 95,83 %
31.10.2017 17:18 6,1 C 8,3 C 82 % 1025,6 hPa 0,0 l/m 2,1 km/h (1 Bft) W 279 0 min 0,000 mm 0,0 UV-I 0 W/m 3,3 C 6,1 C 3,2 km/h (1 Bft) 97,14 %
31.10.2017 17:20 6,1 C 8,3 C 82 % 1025,5 hPa 0,0 l/m 0,9 km/h (0 Bft) W 279 0 min 0,000 mm 0,0 UV-I 0 W/m 3,3 C 6,1 C 3,2 km/h (1 Bft) 98,21 %
31.10.2017 17:22 6,0 C 8,3 C 83 % 1025,5 hPa 0,0 l/m 0,0 km/h (0 Bft) W 279 0 min 0,000 mm 0,0 UV-I 0 W/m 3,3 C 6,0 C 0,0 km/h (0 Bft) 97,87 %
31.10.2017 17:24 5,8 C 8,3 C 84 % 1025,6 hPa 0,0 l/m 0,0 km/h (0 Bft) W 279 0 min 0,000 mm 0,0 UV-I 0 W/m 3,3 C 5,8 C 0,0 km/h (0 Bft) 97,56 %
31.10.2017 17:26 5,7 C 8,3 C 85 % 1025,6 hPa 0,0 l/m 0,5 km/h (0 Bft) W 279 0 min 0,000 mm 0,0 UV-I 0 W/m 3,4 C 5,7 C 1,6 km/h (1 Bft) 95,74 %
31.10.2017 17:28 5,6 C 8,3 C 85 % 1025,6 hPa 0,0 l/m 0,0 km/h (0 Bft) W 279 0 min 0,000 mm 0,0 UV-I 0 W/m 3,3 C 5,6 C 1,6 km/h (1 Bft) 100,00 %
31.10.2017 17:30 5,5 C 8,3 C 86 % 1025,6 hPa 0,0 l/m 0,4 km/h (0 Bft) W 279 0 min 0,000 mm 0,0 UV-I 0 W/m 3,3 C 5,5 C 3,2 km/h (1 Bft) 97,37 %
31.10.2017 17:32 5,4 C 8,3 C 87 % 1025,6 hPa 0,0 l/m 0,0 km/h (0 Bft) W 279 0 min 0,000 mm 0,0 UV-I 0 W/m 3,4 C 5,4 C 0,0 km/h (0 Bft) 100,00 %
31.10.2017 17:34 5,3 C 8,3 C 87 % 1025,6 hPa 0,0 l/m 0,0 km/h (0 Bft) W 279 0 min 0,000 mm 0,0 UV-I 0 W/m 3,3 C 5,3 C 0,0 km/h (0 Bft) 97,87 %
31.10.2017 17:36 5,3 C 8,3 C 87 % 1025,7 hPa 0,0 l/m 0,2 km/h (0 Bft) W 279 0 min 0,000 mm 0,0 UV-I 0 W/m 3,3 C 5,3 C 1,6 km/h (1 Bft) 98,00 %
31.10.2017 17:38 5,3 C 8,3 C 87 % 1025,7 hPa 0,0 l/m 0,0 km/h (0 Bft) W 279 0 min 0,000 mm 0,0 UV-I 0 W/m 3,3 C 5,3 C 0,0 km/h (0 Bft) 97,87 %
31.10.2017 17:40 5,3 C 8,3 C 87 % 1025,7 hPa 0,0 l/m 0,0 km/h (0 Bft) W 279 0 min 0,000 mm 0,0 UV-I 0 W/m 3,3 C 5,3 C 0,0 km/h (0 Bft) 100,00 %
31.10.2017 17:42 5,3 C 8,3 C 87 % 1025,7 hPa 0,0 l/m 0,0 km/h (0 Bft) W 279 0 min 0,000 mm 0,0 UV-I 0 W/m 3,3 C 5,3 C 1,6 km/h (1 Bft) 96,43 %
31.10.2017 17:44 5,3 C 8,3 C 87 % 1025,7 hPa 0,0 l/m 0,0 km/h (0 Bft) W 279 0 min 0,000 mm 0,0 UV-I 0 W/m 3,3 C 5,3 C 1,6 km/h (1 Bft) 100,00 %
31.10.2017 17:46 5,3 C 8,3 C 87 % 1025,7 hPa 0,0 l/m 0,0 km/h (0 Bft) W 279 0 min 0,000 mm 0,0 UV-I 0 W/m 3,3 C 5,3 C 0,0 km/h (0 Bft) 97,87 %
31.10.2017 17:48 5,3 C 8,3 C 87 % 1025,7 hPa 0,0 l/m 0,0 km/h (0 Bft) W 279 0 min 0,000 mm 0,0 UV-I 0 W/m 3,3 C 5,3 C 0,0 km/h (0 Bft) 100,00 %
31.10.2017 17:50 5,3 C 8,3 C 87 % 1025,7 hPa 0,0 l/m 0,1 km/h (0 Bft) W 279 0 min 0,000 mm 0,0 UV-I 0 W/m 3,3 C 5,3 C 1,6 km/h (1 Bft) 97,44 %
31.10.2017 17:52 5,4 C 8,3 C 87 % 1025,7 hPa 0,0 l/m 0,2 km/h (0 Bft) W 279 0 min 0,000 mm 0,0 UV-I 0 W/m 3,4 C 5,4 C 1,6 km/h (1 Bft) 100,00 %
31.10.2017 17:54 5,4 C 8,3 C 87 % 1025,7 hPa 0,0 l/m 0,2 km/h (0 Bft) W 279 0 min 0,000 mm 0,0 UV-I 0 W/m 3,4 C 5,4 C 1,6 km/h (1 Bft) 100,00 %
31.10.2017 17:56 5,4 C 8,3 C 87 % 1025,7 hPa 0,0 l/m 0,7 km/h (0 Bft) W 279 0 min 0,000 mm 0,0 UV-I 0 W/m 3,4 C 5,4 C 1,6 km/h (1 Bft) 100,00 %
31.10.2017 17:58 5,4 C 8,3 C 87 % 1025,7 hPa 0,0 l/m 0,1 km/h (0 Bft) W 279 0 min 0,000 mm 0,0 UV-I 0 W/m 3,4 C 5,4 C 1,6 km/h (1 Bft) 100,00 %
31.10.2017 18:00 5,3 C 8,3 C 88 % 1025,7 hPa 0,0 l/m 1,0 km/h (0 Bft) W 279 0 min 0,000 mm 0,0 UV-I 0 W/m 3,5 C 5,3 C 3,2 km/h (1 Bft) 100,00 %
31.10.2017 18:02 5,3 C 8,3 C 88 % 1025,8 hPa 0,0 l/m 0,6 km/h (0 Bft) W 279 0 min 0,000 mm 0,0 UV-I 0 W/m 3,5 C 5,3 C 3,2 km/h (1 Bft) 100,00 %
31.10.2017 18:04 5,3 C 8,3 C 88 % 1025,8 hPa 0,0 l/m 0,6 km/h (0 Bft) W 279 0 min 0,000 mm 0,0 UV-I 0 W/m 3,5 C 5,3 C 1,6 km/h (1 Bft) 100,00 %
31.10.2017 18:06 5,3 C 8,3 C 88 % 1025,7 hPa 0,0 l/m 1,2 km/h (1 Bft) W 279 0 min 0,000 mm 0,0 UV-I 0 W/m 3,5 C 5,3 C 3,2 km/h (1 Bft) 100,00 %
31.10.2017 18:08 5,3 C 8,3 C 88 % 1025,7 hPa 0,0 l/m 1,5 km/h (1 Bft) W 279 0 min 0,000 mm 0,0 UV-I 0 W/m 3,5 C 5,3 C 3,2 km/h (1 Bft) 97,87 %
31.10.2017 18:10 5,3 C 8,3 C 88 % 1025,7 hPa 0,0 l/m 1,7 km/h (1 Bft) W 263 0 min 0,000 mm 0,0 UV-I 0 W/m 3,5 C 5,3 C 3,2 km/h (1 Bft) 100,00 %
31.10.2017 18:12 5,2 C 8,3 C 88 % 1025,7 hPa 0,0 l/m 1,9 km/h (1 Bft) W 263 0 min 0,000 mm 0,0 UV-I 0 W/m 3,4 C 5,2 C 3,2 km/h (1 Bft) 100,00 %
31.10.2017 18:14 5,2 C 8,3 C 89 % 1025,7 hPa 0,0 l/m 1,7 km/h (1 Bft) W 263 0 min 0,000 mm 0,0 UV-I 0 W/m 3,5 C 5,2 C 3,2 km/h (1 Bft) 97,56 %
31.10.2017 18:16 5,2 C 8,3 C 89 % 1025,7 hPa 0,0 l/m 1,6 km/h (1 Bft) W 263 0 min 0,000 mm 0,0 UV-I 0 W/m 3,5 C 5,2 C 3,2 km/h (1 Bft) 100,00 %
31.10.2017 18:18 5,2 C 8,3 C 89 % 1025,8 hPa 0,0 l/m 1,4 km/h (1 Bft) W 263 0 min 0,000 mm 0,0 UV-I 0 W/m 3,5 C 5,2 C 3,2 km/h (1 Bft) 100,00 %
31.10.2017 18:20 5,1 C 8,3 C 89 % 1025,8 hPa 0,0 l/m 2,3 km/h (1 Bft) W 263 0 min 0,000 mm 0,0 UV-I 0 W/m 3,4 C 5,1 C 3,2 km/h (1 Bft) 97,87 %
31.10.2017 18:22 5,1 C 8,3 C 89 % 1025,8 hPa 0,0 l/m 2,4 km/h (1 Bft) W 263 0 min 0,000 mm 0,0 UV-I 0 W/m 3,4 C 5,1 C 3,2 km/h (1 Bft) 97,56 %
31.10.2017 18:24 5,1 C 8,3 C 89 % 1025,8 hPa 0,0 l/m 1,2 km/h (1 Bft) W 263 0 min 0,000 mm 0,0 UV-I 0 W/m 3,4 C 5,1 C 3,2 km/h (1 Bft) 100,00 %
31.10.2017 18:26 5,1 C 8,3 C 90 % 1025,8 hPa 0,0 l/m 0,4 km/h (0 Bft) W 263 0 min 0,000 mm 0,0 UV-I 0 W/m 3,6 C 5,1 C 1,6 km/h (1 Bft) 98,11 %
31.10.2017 18:28 5,1 C 8,3 C 90 % 1025,8 hPa 0,0 l/m 0,5 km/h (0 Bft) W 263 0 min 0,000 mm 0,0 UV-I 0 W/m 3,6 C 5,1 C 1,6 km/h (1 Bft) 100,00 %
31.10.2017 18:30 5,1 C 8,3 C 90 % 1025,8 hPa 0,0 l/m 0,3 km/h (0 Bft) W 263 0 min 0,000 mm 0,0 UV-I 0 W/m 3,6 C 5,1 C 1,6 km/h (1 Bft) 100,00 %
31.10.2017 18:32 5,1 C 8,3 C 90 % 1025,8 hPa 0,0 l/m 0,8 km/h (0 Bft) W 263 0 min 0,000 mm 0,0 UV-I 0 W/m 3,6 C 5,1 C 1,6 km/h (1 Bft) 98,04 %
31.10.2017 18:34 5,1 C 8,3 C 90 % 1025,9 hPa 0,0 l/m 1,8 km/h (1 Bft) W 263 0 min 0,000 mm 0,0 UV-I 0 W/m 3,6 C 5,1 C 3,2 km/h (1 Bft) 97,50 %
31.10.2017 18:36 5,1 C 8,3 C 90 % 1025,9 hPa 0,0 l/m 1,6 km/h (1 Bft) W 263 0 min 0,000 mm 0,0 UV-I 0 W/m 3,6 C 5,1 C 3,2 km/h (1 Bft) 100,00 %
31.10.2017 18:38 5,1 C 8,3 C 90 % 1025,9 hPa 0,0 l/m 1,5 km/h (1 Bft) W 263 0 min 0,000 mm 0,0 UV-I 0 W/m 3,6 C 5,1 C 3,2 km/h (1 Bft) 98,00 %
31.10.2017 18:40 5,1 C 8,3 C 90 % 1025,9 hPa 0,0 l/m 2,2 km/h (1 Bft) W 263 0 min 0,000 mm 0,0 UV-I 0 W/m 3,6 C 5,1 C 3,2 km/h (1 Bft) 100,00 %
31.10.2017 18:42 5,1 C 8,3 C 89 % 1025,9 hPa 0,0 l/m 1,9 km/h (1 Bft) W 263 0 min 0,000 mm 0,0 UV-I 0 W/m 3,4 C 5,1 C 3,2 km/h (1 Bft) 100,00 %
31.10.2017 18:44 5,1 C 8,3 C 89 % 1025,9 hPa 0,0 l/m 1,2 km/h (1 Bft) W 263 0 min 0,000 mm 0,0 UV-I 0 W/m 3,4 C 5,1 C 3,2 km/h (1 Bft) 100,00 %
31.10.2017 18:46 5,1 C 8,3 C 89 % 1026,0 hPa 0,0 l/m 0,7 km/h (0 Bft) W 263 0 min 0,000 mm 0,0 UV-I 0 W/m 3,4 C 5,1 C 1,6 km/h (1 Bft) 95,74 %
31.10.2017 18:48 5,1 C 8,3 C 89 % 1026,0 hPa 0,0 l/m 1,8 km/h (1 Bft) W 263 0 min 0,000 mm 0,0 UV-I 0 W/m 3,4 C 5,1 C 3,2 km/h (1 Bft) 100,00 %
31.10.2017 18:50 5,2 C 8,3 C 89 % 1026,1 hPa 0,0 l/m 1,6 km/h (1 Bft) W 263 0 min 0,000 mm 0,0 UV-I 0 W/m 3,5 C 5,2 C 3,2 km/h (1 Bft) 100,00 %
31.10.2017 18:52 5,2 C 8,3 C 89 % 1026,0 hPa 0,0 l/m 1,1 km/h (1 Bft) W 263 0 min 0,000 mm 0,0 UV-I 0 W/m 3,5 C 5,2 C 1,6 km/h (1 Bft) 94,74 %
31.10.2017 18:54 5,2 C 8,3 C 89 % 1026,0 hPa 0,0 l/m 2,0 km/h (1 Bft) W 263 0 min 0,000 mm 0,0 UV-I 0 W/m 3,5 C 5,2 C 4,8 km/h (1 Bft) 96,23 %
31.10.2017 18:56 5,2 C 8,3 C 89 % 1026,0 hPa 0,0 l/m 1,0 km/h (0 Bft) W 263 0 min 0,000 mm 0,0 UV-I 0 W/m 3,5 C 5,2 C 1,6 km/h (1 Bft) 97,56 %
31.10.2017 18:58 5,3 C 8,3 C 88 % 1026,0 hPa 0,0 l/m 1,7 km/h (1 Bft) W 263 0 min 0,000 mm 0,0 UV-I 0 W/m 3,5 C 5,3 C 3,2 km/h (1 Bft) 98,00 %
31.10.2017 19:00 5,3 C 8,3 C 88 % 1026,0 hPa 0,0 l/m 1,9 km/h (1 Bft) W-SW 244 0 min 0,000 mm 0,0 UV-I 0 W/m 3,5 C 5,3 C 3,2 km/h (1 Bft) 96,23 %
31.10.2017 19:02 5,3 C 8,3 C 88 % 1026,0 hPa 0,0 l/m 1,8 km/h (1 Bft) W-SW 244 0 min 0,000 mm 0,0 UV-I 0 W/m 3,5 C 5,3 C 3,2 km/h (1 Bft) 95,74 %
31.10.2017 19:04 5,3 C 8,3 C 88 % 1026,0 hPa 0,0 l/m 2,1 km/h (1 Bft) W-SW 244 0 min 0,000 mm 0,0 UV-I 0 W/m 3,5 C 5,3 C 3,2 km/h (1 Bft) 92,11 %
31.10.2017 19:06 5,3 C 8,3 C 88 % 1026,0 hPa 0,0 l/m 3,2 km/h (1 Bft) W-SW 244 0 min 0,000 mm 0,0 UV-I 0 W/m 3,5 C 5,3 C 4,8 km/h (1 Bft) 96,00 %
31.10.2017 19:08 5,4 C 8,3 C 87 % 1026,0 hPa 0,0 l/m 2,5 km/h (1 Bft) W-SW 244 0 min 0,000 mm 0,0 UV-I 0 W/m 3,4 C 5,4 C 3,2 km/h (1 Bft) 92,00 %
31.10.2017 19:10 5,4 C 8,3 C 87 % 1026,0 hPa 0,0 l/m 1,5 km/h (1 Bft) W-SW 244 0 min 0,000 mm 0,0 UV-I 0 W/m 3,4 C 5,4 C 4,8 km/h (1 Bft) 92,00 %
31.10.2017 19:12 5,3 C 8,3 C 87 % 1026,0 hPa 0,0 l/m 0,8 km/h (0 Bft) W-SW 244 0 min 0,000 mm 0,0 UV-I 0 W/m 3,3 C 5,3 C 3,2 km/h (1 Bft) 94,87 %
31.10.2017 19:14 5,4 C 8,3 C 87 % 1026,0 hPa 0,0 l/m 0,9 km/h (0 Bft) W-SW 244 0 min 0,000 mm 0,0 UV-I 0 W/m 3,4 C 5,4 C 3,2 km/h (1 Bft) 93,62 %
31.10.2017 19:16 5,4 C 8,3 C 87 % 1026,0 hPa 0,0 l/m 1,3 km/h (1 Bft) W-SW 244 0 min 0,000 mm 0,0 UV-I 0 W/m 3,4 C 5,4 C 3,2 km/h (1 Bft) 96,23 %
31.10.2017 19:18 5,4 C 8,3 C 87 % 1026,0 hPa 0,0 l/m 1,9 km/h (1 Bft) W-SW 244 0 min 0,000 mm 0,0 UV-I 0 W/m 3,4 C 5,4 C 3,2 km/h (1 Bft) 94,74 %
31.10.2017 19:20 5,4 C 8,3 C 87 % 1026,0 hPa 0,0 l/m 2,7 km/h (1 Bft) W-SW 243 0 min 0,000 mm 0,0 UV-I 0 W/m 3,4 C 5,4 C 4,8 km/h (1 Bft) 93,62 %
31.10.2017 19:22 5,5 C 8,3 C 87 % 1026,0 hPa 0,0 l/m 2,7 km/h (1 Bft) W-SW 243 0 min 0,000 mm 0,0 UV-I 0 W/m 3,5 C 5,5 C 4,8 km/h (1 Bft) 96,00 %
31.10.2017 19:24 5,5 C 8,3 C 87 % 1026,0 hPa 0,0 l/m 3,4 km/h (1 Bft) W-SW 243 0 min 0,000 mm 0,0 UV-I 0 W/m 3,5 C 5,5 C 6,4 km/h (2 Bft) 92,45 %
31.10.2017 19:26 5,5 C 8,3 C 86 % 1025,9 hPa 0,0 l/m 2,7 km/h (1 Bft) W-SW 243 0 min 0,000 mm 0,0 UV-I 0 W/m 3,3 C 5,5 C 4,8 km/h (1 Bft) 95,12 %
31.10.2017 19:28 5,5 C 8,3 C 86 % 1026,0 hPa 0,0 l/m 3,0 km/h (1 Bft) W-SW 243 0 min 0,000 mm 0,0 UV-I 0 W/m 3,3 C 5,5 C 6,4 km/h (2 Bft) 96,00 %
31.10.2017 19:30 5,5 C 8,3 C 86 % 1026,0 hPa 0,0 l/m 2,1 km/h (1 Bft) W-SW 243 0 min 0,000 mm 0,0 UV-I 0 W/m 3,3 C 5,5 C 3,2 km/h (1 Bft) 94,74 %
31.10.2017 19:32 5,5 C 8,3 C 86 % 1025,9 hPa 0,0 l/m 2,8 km/h (1 Bft) W-SW 243 0 min 0,000 mm 0,0 UV-I 0 W/m 3,3 C 5,5 C 4,8 km/h (1 Bft) 94,00 %
31.10.2017 19:34 5,5 C 8,3 C 86 % 1025,9 hPa 0,0 l/m 3,3 km/h (1 Bft) W-SW 243 0 min 0,000 mm 0,0 UV-I 0 W/m 3,3 C 5,5 C 4,8 km/h (1 Bft) 96,00 %
31.10.2017 19:36 5,5 C 8,3 C 86 % 1026,0 hPa 0,0 l/m 3,7 km/h (1 Bft) W-SW 243 0 min 0,000 mm 0,0 UV-I 0 W/m 3,3 C 5,5 C 4,8 km/h (1 Bft) 96,00 %
31.10.2017 19:38 5,5 C 8,3 C 86 % 1025,9 hPa 0,0 l/m 3,0 km/h (1 Bft) W-SW 243 0 min 0,000 mm 0,0 UV-I 0 W/m 3,3 C 5,5 C 4,8 km/h (1 Bft) 97,37 %
31.10.2017 19:40 5,5 C 8,3 C 86 % 1025,9 hPa 0,0 l/m 3,5 km/h (1 Bft) W-SW 243 0 min 0,000 mm 0,0 UV-I 0 W/m 3,3 C 5,5 C 4,8 km/h (1 Bft) 96,00 %
31.10.2017 19:42 5,5 C 8,3 C 86 % 1025,9 hPa 0,0 l/m 1,8 km/h (1 Bft) W-SW 243 0 min 0,000 mm 0,0 UV-I 0 W/m 3,3 C 5,5 C 3,2 km/h (1 Bft) 96,23 %
31.10.2017 19:44 5,5 C 8,3 C 86 % 1026,0 hPa 0,0 l/m 1,7 km/h (1 Bft) W-SW 243 0 min 0,000 mm 0,0 UV-I 0 W/m 3,3 C 5,5 C 3,2 km/h (1 Bft) 95,74 %
31.10.2017 19:46 5,5 C 8,3 C 87 % 1025,9 hPa 0,0 l/m 1,4 km/h (1 Bft) W-SW 243 0 min 0,000 mm 0,0 UV-I 0 W/m 3,5 C 5,5 C 3,2 km/h (1 Bft) 97,56 %
31.10.2017 19:48 5,4 C 8,3 C 87 % 1025,9 hPa 0,0 l/m 0,3 km/h (0 Bft) W-SW 243 0 min 0,000 mm 0,0 UV-I 0 W/m 3,4 C 5,4 C 1,6 km/h (1 Bft) 94,00 %
31.10.2017 19:50 5,4 C 8,3 C 87 % 1026,0 hPa 0,0 l/m 0,1 km/h (0 Bft) W-SW 243 0 min 0,000 mm 0,0 UV-I 0 W/m 3,4 C 5,4 C 1,6 km/h (1 Bft) 98,00 %
31.10.2017 19:52 5,4 C 8,3 C 87 % 1026,0 hPa 0,0 l/m 0,0 km/h (0 Bft) W-SW 243 0 min 0,000 mm 0,0 UV-I 0 W/m 3,4 C 5,4 C 0,0 km/h (0 Bft) 95,24 %
31.10.2017 19:54 5,3 C 8,3 C 88 % 1026,0 hPa 0,0 l/m 0,9 km/h (0 Bft) W-SW 243 0 min 0,000 mm 0,0 UV-I 0 W/m 3,5 C 5,3 C 3,2 km/h (1 Bft) 96,23 %
31.10.2017 19:56 5,3 C 8,3 C 88 % 1026,0 hPa 0,0 l/m 0,3 km/h (0 Bft) W-SW 243 0 min 0,000 mm 0,0 UV-I 0 W/m 3,5 C 5,3 C 1,6 km/h (1 Bft) 97,87 %
31.10.2017 19:58 5,3 C 8,3 C 87 % 1026,0 hPa 0,0 l/m 0,9 km/h (0 Bft) W-SW 243 0 min 0,000 mm 0,0 UV-I 0 W/m 3,3 C 5,3 C 1,6 km/h (1 Bft) 100,00 %
31.10.2017 20:00 5,4 C 8,3 C 87 % 1026,1 hPa 0,0 l/m 1,1 km/h (1 Bft) W-SW 243 0 min 0,000 mm 0,0 UV-I 0 W/m 3,4 C 5,4 C 3,2 km/h (1 Bft) 100,00 %
31.10.2017 20:02 5,4 C 8,3 C 87 % 1026,1 hPa 0,0 l/m 0,3 km/h (0 Bft) W-SW 243 0 min 0,000 mm 0,0 UV-I 0 W/m 3,4 C 5,4 C 1,6 km/h (1 Bft) 100,00 %
31.10.2017 20:04 5,4 C 8,3 C 87 % 1026,1 hPa 0,0 l/m 2,5 km/h (1 Bft) W-SW 243 0 min 0,000 mm 0,0 UV-I 0 W/m 3,4 C 5,4 C 4,8 km/h (1 Bft) 100,00 %
31.10.2017 20:06 5,4 C 8,3 C 87 % 1026,1 hPa 0,0 l/m 3,0 km/h (1 Bft) W-SW 243 0 min 0,000 mm 0,0 UV-I 0 W/m 3,4 C 5,4 C 4,8 km/h (1 Bft) 98,11 %
31.10.2017 20:08 5,4 C 8,3 C 87 % 1026,0 hPa 0,0 l/m 1,6 km/h (1 Bft) W-SW 243 0 min 0,000 mm 0,0 UV-I 0 W/m 3,4 C 5,4 C 3,2 km/h (1 Bft) 100,00 %
31.10.2017 20:10 5,4 C 8,3 C 87 % 1026,0 hPa 0,0 l/m 0,9 km/h (0 Bft) W-SW 243 0 min 0,000 mm 0,0 UV-I 0 W/m 3,4 C 5,4 C 3,2 km/h (1 Bft) 97,87 %
31.10.2017 20:12 5,4 C 8,3 C 87 % 1026,0 hPa 0,0 l/m 1,2 km/h (1 Bft) W-SW 243 0 min 0,000 mm 0,0 UV-I 0 W/m 3,4 C 5,4 C 1,6 km/h (1 Bft) 100,00 %
31.10.2017 20:14 5,3 C 8,3 C 87 % 1026,0 hPa 0,0 l/m 0,9 km/h (0 Bft) W-SW 243 0 min 0,000 mm 0,0 UV-I 0 W/m 3,3 C 5,3 C 1,6 km/h (1 Bft) 100,00 %
31.10.2017 20:16 5,2 C 8,3 C 88 % 1026,0 hPa 0,0 l/m 0,5 km/h (0 Bft) W-SW 243 0 min 0,000 mm 0,0 UV-I 0 W/m 3,4 C 5,2 C 3,2 km/h (1 Bft) 100,00 %
31.10.2017 20:18 5,2 C 8,3 C 88 % 1026,0 hPa 0,0 l/m 0,0 km/h (0 Bft) W-SW 243 0 min 0,000 mm 0,0 UV-I 0 W/m 3,4 C 5,2 C 0,0 km/h (0 Bft) 100,00 %
31.10.2017 20:20 5,1 C 8,3 C 89 % 1026,0 hPa 0,0 l/m 0,0 km/h (0 Bft) W-SW 243 0 min 0,000 mm 0,0 UV-I 0 W/m 3,4 C 5,1 C 0,0 km/h (0 Bft) 97,37 %
31.10.2017 20:22 5,0 C 8,3 C 89 % 1026,0 hPa 0,0 l/m 0,0 km/h (0 Bft) W-SW 243 0 min 0,000 mm 0,0 UV-I 0 W/m 3,3 C 5,0 C 0,0 km/h (0 Bft) 98,11 %
31.10.2017 20:24 4,9 C 8,3 C 90 % 1026,1 hPa 0,0 l/m 0,0 km/h (0 Bft) W-SW 243 0 min 0,000 mm 0,0 UV-I 0 W/m 3,4 C 4,9 C 1,6 km/h (1 Bft) 100,00 %
31.10.2017 20:26 4,9 C 8,3 C 90 % 1026,1 hPa 0,0 l/m 0,1 km/h (0 Bft) W-SW 243 0 min 0,000 mm 0,0 UV-I 0 W/m 3,4 C 4,9 C 1,6 km/h (1 Bft) 97,87 %
31.10.2017 20:28 4,9 C 8,3 C 90 % 1026,0 hPa 0,0 l/m 0,0 km/h (0 Bft) W-SW 243 0 min 0,000 mm 0,0 UV-I 0 W/m 3,4 C 4,9 C 0,0 km/h (0 Bft) 97,87 %
31.10.2017 20:30 4,9 C 8,3 C 90 % 1026,0 hPa 0,0 l/m 0,0 km/h (0 Bft) W-SW 243 0 min 0,000 mm 0,0 UV-I 0 W/m 3,4 C 4,9 C 0,0 km/h (0 Bft) 100,00 %
31.10.2017 20:32 4,9 C 8,3 C 90 % 1026,0 hPa 0,0 l/m 0,3 km/h (0 Bft) W-SW 243 0 min 0,000 mm 0,0 UV-I 0 W/m 3,4 C 4,9 C 1,6 km/h (1 Bft) 100,00 %
31.10.2017 20:34 4,9 C 8,3 C 90 % 1026,0 hPa 0,0 l/m 0,6 km/h (0 Bft) W-SW 243 0 min 0,000 mm 0,0 UV-I 0 W/m 3,4 C 4,9 C 1,6 km/h (1 Bft) 100,00 %
31.10.2017 20:36 4,9 C 8,3 C 90 % 1026,0 hPa 0,0 l/m 1,3 km/h (1 Bft) W-SW 243 0 min 0,000 mm 0,0 UV-I 0 W/m 3,4 C 4,9 C 3,2 km/h (1 Bft) 100,00 %
31.10.2017 20:38 5,0 C 8,3 C 89 % 1026,0 hPa 0,0 l/m 2,1 km/h (1 Bft) W-SW 243 0 min 0,000 mm 0,0 UV-I 0 W/m 3,3 C 5,0 C 4,8 km/h (1 Bft) 100,00 %
31.10.2017 20:40 5,0 C 8,3 C 89 % 1026,0 hPa 0,0 l/m 1,7 km/h (1 Bft) W-SW 243 0 min 0,000 mm 0,0 UV-I 0 W/m 3,3 C 5,0 C 3,2 km/h (1 Bft) 100,00 %
31.10.2017 20:42 5,0 C 8,3 C 89 % 1026,0 hPa 0,0 l/m 3,2 km/h (1 Bft) W-SW 243 0 min 0,000 mm 0,0 UV-I 0 W/m 3,3 C 5,0 C 4,8 km/h (1 Bft) 100,00 %
31.10.2017 20:44 5,0 C 8,3 C 89 % 1026,1 hPa 0,0 l/m 3,4 km/h (1 Bft) W-SW 243 0 min 0,000 mm 0,0 UV-I 0 W/m 3,3 C 5,0 C 4,8 km/h (1 Bft) 100,00 %
31.10.2017 20:46 5,0 C 8,3 C 89 % 1026,0 hPa 0,0 l/m 1,8 km/h (1 Bft) W-SW 243 0 min 0,000 mm 0,0 UV-I 0 W/m 3,3 C 5,0 C 3,2 km/h (1 Bft) 97,14 %
31.10.2017 20:48 4,9 C 8,3 C 89 % 1026,1 hPa 0,0 l/m 1,4 km/h (1 Bft) W-SW 243 0 min 0,000 mm 0,0 UV-I 0 W/m 3,2 C 4,9 C 3,2 km/h (1 Bft) 100,00 %
31.10.2017 20:50 4,9 C 8,3 C 89 % 1026,1 hPa 0,0 l/m 1,4 km/h (1 Bft) W-SW 243 0 min 0,000 mm 0,0 UV-I 0 W/m 3,2 C 4,9 C 3,2 km/h (1 Bft) 100,00 %
31.10.2017 20:52 5,0 C 8,3 C 89 % 1026,1 hPa 0,0 l/m 1,5 km/h (1 Bft) W-SW 243 0 min 0,000 mm 0,0 UV-I 0 W/m 3,3 C 5,0 C 3,2 km/h (1 Bft) 100,00 %
31.10.2017 20:54 5,0 C 8,3 C 89 % 1026,1 hPa 0,0 l/m 1,8 km/h (1 Bft) W-SW 243 0 min 0,000 mm 0,0 UV-I 0 W/m 3,3 C 5,0 C 4,8 km/h (1 Bft) 100,00 %
31.10.2017 20:56 5,1 C 8,3 C 89 % 1026,2 hPa 0,0 l/m 0,9 km/h (0 Bft) W-SW 243 0 min 0,000 mm 0,0 UV-I 0 W/m 3,4 C 5,1 C 3,2 km/h (1 Bft) 96,00 %
31.10.2017 20:58 5,0 C 8,3 C 89 % 1026,2 hPa 0,0 l/m 1,6 km/h (1 Bft) W-SW 243 0 min 0,000 mm 0,0 UV-I 0 W/m 3,3 C 5,0 C 3,2 km/h (1 Bft) 100,00 %
31.10.2017 21:00 5,0 C 8,3 C 89 % 1026,2 hPa 0,0 l/m 1,2 km/h (1 Bft) W-SW 243 0 min 0,000 mm 0,0 UV-I 0 W/m 3,3 C 5,0 C 3,2 km/h (1 Bft) 100,00 %
31.10.2017 21:02 5,1 C 8,3 C 88 % 1026,2 hPa 0,0 l/m 1,6 km/h (1 Bft) W-SW 243 0 min 0,000 mm 0,0 UV-I 0 W/m 3,3 C 5,1 C 3,2 km/h (1 Bft) 100,00 %
31.10.2017 21:04 5,1 C 8,3 C 88 % 1026,1 hPa 0,0 l/m 1,2 km/h (1 Bft) SW 235 0 min 0,000 mm 0,0 UV-I 0 W/m 3,3 C 5,1 C 3,2 km/h (1 Bft) 100,00 %
31.10.2017 21:06 5,1 C 8,3 C 88 % 1026,2 hPa 0,0 l/m 2,0 km/h (1 Bft) SW 235 0 min 0,000 mm 0,0 UV-I 0 W/m 3,3 C 5,1 C 4,8 km/h (1 Bft) 100,00 %
31.10.2017 21:08 5,1 C 8,3 C 88 % 1026,1 hPa 0,0 l/m 2,5 km/h (1 Bft) SW 235 0 min 0,000 mm 0,0 UV-I 0 W/m 3,3 C 5,1 C 4,8 km/h (1 Bft) 97,44 %
31.10.2017 21:10 5,1 C 8,3 C 88 % 1026,1 hPa 0,0 l/m 2,5 km/h (1 Bft) SW 235 0 min 0,000 mm 0,0 UV-I 0 W/m 3,3 C 5,1 C 4,8 km/h (1 Bft) 95,74 %
31.10.2017 21:12 5,1 C 8,3 C 88 % 1026,2 hPa 0,0 l/m 1,6 km/h (1 Bft) SW 235 0 min 0,000 mm 0,0 UV-I 0 W/m 3,3 C 5,1 C 3,2 km/h (1 Bft) 97,87 %
31.10.2017 21:14 5,1 C 8,3 C 88 % 1026,2 hPa 0,0 l/m 2,0 km/h (1 Bft) SW 235 0 min 0,000 mm 0,0 UV-I 0 W/m 3,3 C 5,1 C 3,2 km/h (1 Bft) 98,08 %
31.10.2017 21:16 5,1 C 8,3 C 88 % 1026,2 hPa 0,0 l/m 2,2 km/h (1 Bft) SW 235 0 min 0,000 mm 0,0 UV-I 0 W/m 3,3 C 5,1 C 4,8 km/h (1 Bft) 97,87 %
31.10.2017 21:18 5,1 C 8,3 C 88 % 1026,1 hPa 0,0 l/m 3,1 km/h (1 Bft) SW 223 0 min 0,000 mm 0,0 UV-I 0 W/m 3,3 C 5,1 C 4,8 km/h (1 Bft) 97,37 %
31.10.2017 21:20 5,0 C 8,3 C 88 % 1026,1 hPa 0,0 l/m 3,6 km/h (1 Bft) SW 223 0 min 0,000 mm 0,0 UV-I 0 W/m 3,2 C 5,0 C 4,8 km/h (1 Bft) 96,00 %
31.10.2017 21:22 4,9 C 8,3 C 88 % 1026,2 hPa 0,0 l/m 1,2 km/h (1 Bft) SW 223 0 min 0,000 mm 0,0 UV-I 0 W/m 3,1 C 4,9 C 3,2 km/h (1 Bft) 98,00 %
31.10.2017 21:24 4,9 C 8,3 C 88 % 1026,2 hPa 0,0 l/m 0,9 km/h (0 Bft) SW 223 0 min 0,000 mm 0,0 UV-I 0 W/m 3,1 C 4,9 C 3,2 km/h (1 Bft) 97,87 %
31.10.2017 21:26 4,9 C 8,3 C 89 % 1026,2 hPa 0,0 l/m 1,3 km/h (1 Bft) SW 223 0 min 0,000 mm 0,0 UV-I 0 W/m 3,2 C 4,9 C 3,2 km/h (1 Bft) 97,56 %
31.10.2017 21:28 4,9 C 8,3 C 88 % 1026,2 hPa 0,0 l/m 1,7 km/h (1 Bft) SW 223 0 min 0,000 mm 0,0 UV-I 0 W/m 3,1 C 4,9 C 3,2 km/h (1 Bft) 96,00 %
31.10.2017 21:30 4,9 C 8,3 C 88 % 1026,2 hPa 0,0 l/m 1,8 km/h (1 Bft) SW 223 0 min 0,000 mm 0,0 UV-I 0 W/m 3,1 C 4,9 C 4,8 km/h (1 Bft) 97,73 %
31.10.2017 21:32 5,0 C 8,3 C 89 % 1026,2 hPa 0,0 l/m 1,8 km/h (1 Bft) SW 223 0 min 0,000 mm 0,0 UV-I 0 W/m 3,3 C 5,0 C 3,2 km/h (1 Bft) 98,00 %
31.10.2017 21:34 5,0 C 8,3 C 88 % 1026,2 hPa 0,0 l/m 1,9 km/h (1 Bft) SW 223 0 min 0,000 mm 0,0 UV-I 0 W/m 3,2 C 5,0 C 4,8 km/h (1 Bft) 95,74 %
31.10.2017 21:36 5,1 C 8,3 C 88 % 1026,3 hPa 0,0 l/m 2,4 km/h (1 Bft) SW 215 0 min 0,000 mm 0,0 UV-I 0 W/m 3,3 C 5,1 C 4,8 km/h (1 Bft) 97,73 %
31.10.2017 21:38 5,1 C 8,3 C 88 % 1026,3 hPa 0,0 l/m 1,8 km/h (1 Bft) S-SW 213 0 min 0,000 mm 0,0 UV-I 0 W/m 3,3 C 5,1 C 4,8 km/h (1 Bft) 94,00 %
31.10.2017 21:40 5,1 C 8,3 C 88 % 1026,3 hPa 0,0 l/m 1,5 km/h (1 Bft) S-SW 213 0 min 0,000 mm 0,0 UV-I 0 W/m 3,3 C 5,1 C 3,2 km/h (1 Bft) 94,00 %
31.10.2017 21:42 5,1 C 8,3 C 88 % 1026,3 hPa 0,0 l/m 3,1 km/h (1 Bft) S-SW 213 0 min 0,000 mm 0,0 UV-I 0 W/m 3,3 C 5,1 C 4,8 km/h (1 Bft) 100,00 %
31.10.2017 21:44 5,1 C 8,3 C 87 % 1026,3 hPa 0,0 l/m 3,1 km/h (1 Bft) S-SW 213 0 min 0,000 mm 0,0 UV-I 0 W/m 3,1 C 5,1 C 4,8 km/h (1 Bft) 98,28 %
31.10.2017 21:46 5,2 C 8,3 C 87 % 1026,3 hPa 0,0 l/m 1,9 km/h (1 Bft) S-SW 213 0 min 0,000 mm 0,0 UV-I 0 W/m 3,2 C 5,2 C 3,2 km/h (1 Bft) 100,00 %
31.10.2017 21:48 5,2 C 8,3 C 87 % 1026,3 hPa 0,0 l/m 2,3 km/h (1 Bft) S-SW 213 0 min 0,000 mm 0,0 UV-I 0 W/m 3,2 C 5,2 C 4,8 km/h (1 Bft) 100,00 %
31.10.2017 21:50 5,2 C 8,3 C 87 % 1026,3 hPa 0,0 l/m 3,2 km/h (1 Bft) S-SW 213 0 min 0,000 mm 0,0 UV-I 0 W/m 3,2 C 5,2 C 6,4 km/h (2 Bft) 100,00 %
31.10.2017 21:52 5,1 C 8,3 C 87 % 1026,3 hPa 0,0 l/m 4,0 km/h (1 Bft) S-SW 213 0 min 0,000 mm 0,0 UV-I 0 W/m 3,1 C 5,1 C 6,4 km/h (2 Bft) 100,00 %
31.10.2017 21:54 5,2 C 8,3 C 87 % 1026,3 hPa 0,0 l/m 4,4 km/h (1 Bft) S-SW 213 0 min 0,000 mm 0,0 UV-I 0 W/m 3,2 C 5,2 C 4,8 km/h (1 Bft) 98,00 %
31.10.2017 21:56 5,1 C 8,3 C 87 % 1026,3 hPa 0,0 l/m 3,9 km/h (1 Bft) S-SW 213 0 min 0,000 mm 0,0 UV-I 0 W/m 3,1 C 5,1 C 4,8 km/h (1 Bft) 100,00 %
31.10.2017 21:58 5,1 C 8,3 C 87 % 1026,3 hPa 0,0 l/m 3,7 km/h (1 Bft) S-SW 213 0 min 0,000 mm 0,0 UV-I 0 W/m 3,1 C 5,1 C 4,8 km/h (1 Bft) 96,00 %
31.10.2017 22:00 5,1 C 8,3 C 88 % 1026,3 hPa 0,0 l/m 4,5 km/h (1 Bft) S-SW 213 0 min 0,000 mm 0,0 UV-I 0 W/m 3,3 C 5,1 C 6,4 km/h (2 Bft) 100,00 %
31.10.2017 22:02 5,0 C 8,3 C 88 % 1026,3 hPa 0,0 l/m 3,8 km/h (1 Bft) S-SW 213 0 min 0,000 mm 0,0 UV-I 0 W/m 3,2 C 5,0 C 4,8 km/h (1 Bft) 100,00 %
31.10.2017 22:04 5,0 C 8,3 C 88 % 1026,3 hPa 0,0 l/m 3,5 km/h (1 Bft) S-SW 213 0 min 0,000 mm 0,0 UV-I 0 W/m 3,2 C 5,0 C 4,8 km/h (1 Bft) 100,00 %
31.10.2017 22:06 4,9 C 8,3 C 88 % 1026,3 hPa 0,0 l/m 2,6 km/h (1 Bft) S-SW 213 0 min 0,000 mm 0,0 UV-I 0 W/m 3,1 C 4,9 C 4,8 km/h (1 Bft) 100,00 %
31.10.2017 22:08 4,9 C 8,3 C 88 % 1026,3 hPa 0,0 l/m 1,9 km/h (1 Bft) S-SW 213 0 min 0,000 mm 0,0 UV-I 0 W/m 3,1 C 4,9 C 3,2 km/h (1 Bft) 100,00 %
31.10.2017 22:10 4,8 C 8,3 C 89 % 1026,3 hPa 0,0 l/m 1,7 km/h (1 Bft) S-SW 213 0 min 0,000 mm 0,0 UV-I 0 W/m 3,1 C 4,8 C 4,8 km/h (1 Bft) 100,00 %
31.10.2017 22:12 4,8 C 8,3 C 89 % 1026,3 hPa 0,0 l/m 4,1 km/h (1 Bft) S-SW 213 0 min 0,000 mm 0,0 UV-I 0 W/m 3,1 C 4,8 C 6,4 km/h (2 Bft) 100,00 %
31.10.2017 22:14 4,7 C 8,3 C 89 % 1026,2 hPa 0,0 l/m 3,5 km/h (1 Bft) S-SW 213 0 min 0,000 mm 0,0 UV-I 0 W/m 3,0 C 4,7 C 4,8 km/h (1 Bft) 98,21 %
31.10.2017 22:16 4,7 C 8,3 C 89 % 1026,2 hPa 0,0 l/m 4,3 km/h (1 Bft) S-SW 213 0 min 0,000 mm 0,0 UV-I 0 W/m 3,0 C 4,7 C 4,8 km/h (1 Bft) 100,00 %
31.10.2017 22:18 4,7 C 8,3 C 89 % 1026,1 hPa 0,0 l/m 4,6 km/h (1 Bft) S-SW 213 0 min 0,000 mm 0,0 UV-I 0 W/m 3,0 C 4,7 C 6,4 km/h (2 Bft) 100,00 %
31.10.2017 22:20 4,7 C 8,3 C 89 % 1026,1 hPa 0,0 l/m 4,1 km/h (1 Bft) S-SW 213 0 min 0,000 mm 0,0 UV-I 0 W/m 3,0 C 4,7 C 6,4 km/h (2 Bft) 97,56 %
31.10.2017 22:22 4,7 C 8,3 C 89 % 1026,1 hPa 0,0 l/m 4,5 km/h (1 Bft) S-SW 213 0 min 0,000 mm 0,0 UV-I 0 W/m 3,0 C 4,7 C 6,4 km/h (2 Bft) 100,00 %
31.10.2017 22:24 4,7 C 8,3 C 89 % 1026,1 hPa 0,0 l/m 4,2 km/h (1 Bft) S-SW 213 0 min 0,000 mm 0,0 UV-I 0 W/m 3,0 C 4,7 C 4,8 km/h (1 Bft) 100,00 %
31.10.2017 22:26 4,7 C 8,3 C 89 % 1026,2 hPa 0,0 l/m 3,6 km/h (1 Bft) S-SW 213 0 min 0,000 mm 0,0 UV-I 0 W/m 3,0 C 4,7 C 4,8 km/h (1 Bft) 100,00 %
31.10.2017 22:28 4,7 C 8,3 C 89 % 1026,1 hPa 0,0 l/m 4,2 km/h (1 Bft) S-SW 213 0 min 0,000 mm 0,0 UV-I 0 W/m 3,0 C 4,7 C 4,8 km/h (1 Bft) 97,87 %
31.10.2017 22:30 4,7 C 8,3 C 89 % 1026,2 hPa 0,0 l/m 3,0 km/h (1 Bft) S-SW 213 0 min 0,000 mm 0,0 UV-I 0 W/m 3,0 C 4,7 C 4,8 km/h (1 Bft) 100,00 %
31.10.2017 22:32 4,7 C 8,3 C 89 % 1026,1 hPa 0,0 l/m 2,6 km/h (1 Bft) S-SW 213 0 min 0,000 mm 0,0 UV-I 0 W/m 3,0 C 4,7 C 4,8 km/h (1 Bft) 98,11 %
31.10.2017 22:34 4,7 C 8,3 C 89 % 1026,1 hPa 0,0 l/m 2,6 km/h (1 Bft) S-SW 213 0 min 0,000 mm 0,0 UV-I 0 W/m 3,0 C 4,7 C 4,8 km/h (1 Bft) 98,00 %
31.10.2017 22:36 4,7 C 8,3 C 89 % 1026,2 hPa 0,0 l/m 2,7 km/h (1 Bft) S-SW 213 0 min 0,000 mm 0,0 UV-I 0 W/m 3,0 C 4,7 C 4,8 km/h (1 Bft) 100,00 %
31.10.2017 22:38 4,6 C 8,3 C 89 % 1026,1 hPa 0,0 l/m 2,9 km/h (1 Bft) S-SW 212 0 min 0,000 mm 0,0 UV-I 0 W/m 2,9 C 4,6 C 6,4 km/h (2 Bft) 96,43 %
31.10.2017 22:40 4,6 C 8,3 C 89 % 1026,1 hPa 0,0 l/m 3,4 km/h (1 Bft) S-SW 211 0 min 0,000 mm 0,0 UV-I 0 W/m 2,9 C 4,6 C 6,4 km/h (2 Bft) 97,87 %
31.10.2017 22:42 4,6 C 8,3 C 89 % 1026,2 hPa 0,0 l/m 3,8 km/h (1 Bft) S-SW 211 0 min 0,000 mm 0,0 UV-I 0 W/m 2,9 C 4,6 C 4,8 km/h (1 Bft) 97,37 %
31.10.2017 22:44 4,7 C 8,3 C 89 % 1026,1 hPa 0,0 l/m 4,5 km/h (1 Bft) S-SW 211 0 min 0,000 mm 0,0 UV-I 0 W/m 3,0 C 4,7 C 6,4 km/h (2 Bft) 98,11 %
31.10.2017 22:46 4,7 C 8,3 C 89 % 1026,1 hPa 0,0 l/m 4,8 km/h (1 Bft) S-SW 211 0 min 0,000 mm 0,0 UV-I 0 W/m 3,0 C 4,7 C 6,4 km/h (2 Bft) 97,37 %
31.10.2017 22:48 4,7 C 8,3 C 89 % 1026,1 hPa 0,0 l/m 4,0 km/h (1 Bft) S-SW 211 0 min 0,000 mm 0,0 UV-I 0 W/m 3,0 C 4,7 C 6,4 km/h (2 Bft) 96,55 %
31.10.2017 22:50 4,6 C 8,3 C 89 % 1026,2 hPa 0,0 l/m 2,8 km/h (1 Bft) S-SW 211 0 min 0,000 mm 0,0 UV-I 0 W/m 2,9 C 4,6 C 4,8 km/h (1 Bft) 97,37 %
31.10.2017 22:52 4,6 C 8,3 C 89 % 1026,1 hPa 0,0 l/m 4,2 km/h (1 Bft) S-SW 211 0 min 0,000 mm 0,0 UV-I 0 W/m 2,9 C 4,6 C 6,4 km/h (2 Bft) 94,00 %
31.10.2017 22:54 4,6 C 8,3 C 89 % 1026,2 hPa 0,0 l/m 4,6 km/h (1 Bft) S-SW 211 0 min 0,000 mm 0,0 UV-I 0 W/m 2,9 C 4,6 C 6,4 km/h (2 Bft) 96,00 %
31.10.2017 22:56 4,5 C 8,3 C 89 % 1026,1 hPa 0,0 l/m 5,2 km/h (1 Bft) S-SW 211 0 min 0,000 mm 0,0 UV-I 0 W/m 2,8 C 4,5 C 6,4 km/h (2 Bft) 95,74 %
31.10.2017 22:58 4,4 C 8,3 C 89 % 1026,1 hPa 0,0 l/m 5,2 km/h (1 Bft) S-SW 211 0 min 0,000 mm 0,0 UV-I 0 W/m 2,7 C 4,4 C 6,4 km/h (2 Bft) 97,87 %
31.10.2017 23:00 4,4 C 8,3 C 89 % 1026,1 hPa 0,0 l/m 4,7 km/h (1 Bft) S-SW 211 0 min 0,000 mm 0,0 UV-I 0 W/m 2,7 C 4,4 C 6,4 km/h (2 Bft) 97,56 %
31.10.2017 23:02 4,3 C 8,3 C 89 % 1026,1 hPa 0,0 l/m 3,8 km/h (1 Bft) S-SW 211 0 min 0,000 mm 0,0 UV-I 0 W/m 2,7 C 4,3 C 6,4 km/h (2 Bft) 96,23 %
31.10.2017 23:04 4,3 C 8,3 C 89 % 1026,1 hPa 0,0 l/m 3,1 km/h (1 Bft) S-SW 211 0 min 0,000 mm 0,0 UV-I 0 W/m 2,7 C 4,3 C 4,8 km/h (1 Bft) 97,87 %
31.10.2017 23:06 4,3 C 8,3 C 89 % 1026,1 hPa 0,0 l/m 3,1 km/h (1 Bft) S-SW 211 0 min 0,000 mm 0,0 UV-I 0 W/m 2,7 C 4,3 C 4,8 km/h (1 Bft) 97,44 %
31.10.2017 23:08 4,2 C 8,3 C 89 % 1026,1 hPa 0,0 l/m 3,3 km/h (1 Bft) S-SW 211 0 min 0,000 mm 0,0 UV-I 0 W/m 2,6 C 4,2 C 4,8 km/h (1 Bft) 98,00 %
31.10.2017 23:10 4,2 C 8,3 C 90 % 1026,1 hPa 0,0 l/m 2,5 km/h (1 Bft) S-SW 211 0 min 0,000 mm 0,0 UV-I 0 W/m 2,7 C 4,2 C 4,8 km/h (1 Bft) 94,00 %
31.10.2017 23:12 4,2 C 8,3 C 90 % 1026,0 hPa 0,0 l/m 2,9 km/h (1 Bft) S-SW 211 0 min 0,000 mm 0,0 UV-I 0 W/m 2,7 C 4,2 C 4,8 km/h (1 Bft) 96,00 %
31.10.2017 23:14 4,2 C 8,3 C 90 % 1026,0 hPa 0,0 l/m 3,0 km/h (1 Bft) S-SW 211 0 min 0,000 mm 0,0 UV-I 0 W/m 2,7 C 4,2 C 6,4 km/h (2 Bft) 94,74 %
31.10.2017 23:16 4,2 C 8,3 C 90 % 1026,0 hPa 0,0 l/m 3,6 km/h (1 Bft) S-SW 211 0 min 0,000 mm 0,0 UV-I 0 W/m 2,7 C 4,2 C 6,4 km/h (2 Bft) 95,74 %
31.10.2017 23:18 4,1 C 8,3 C 90 % 1025,9 hPa 0,0 l/m 3,2 km/h (1 Bft) S-SW 211 0 min 0,000 mm 0,0 UV-I 0 W/m 2,6 C 4,1 C 6,4 km/h (2 Bft) 91,49 %
31.10.2017 23:20 4,1 C 8,3 C 90 % 1025,9 hPa 0,0 l/m 4,1 km/h (1 Bft) S-SW 211 0 min 0,000 mm 0,0 UV-I 0 W/m 2,6 C 4,1 C 4,8 km/h (1 Bft) 93,10 %
31.10.2017 23:22 4,1 C 8,3 C 90 % 1026,0 hPa 0,0 l/m 4,1 km/h (1 Bft) S-SW 211 0 min 0,000 mm 0,0 UV-I 0 W/m 2,6 C 4,1 C 4,8 km/h (1 Bft) 95,77 %
31.10.2017 23:24 4,1 C 8,3 C 90 % 1026,0 hPa 0,0 l/m 2,6 km/h (1 Bft) S-SW 211 0 min 0,000 mm 0,0 UV-I 0 W/m 2,6 C 4,1 C 4,8 km/h (1 Bft) 92,11 %
31.10.2017 23:26 4,0 C 8,3 C 90 % 1025,9 hPa 0,0 l/m 3,1 km/h (1 Bft) S-SW 211 0 min 0,000 mm 0,0 UV-I 0 W/m 2,5 C 4,0 C 4,8 km/h (1 Bft) 96,00 %
31.10.2017 23:28 3,9 C 8,3 C 90 % 1025,9 hPa 0,0 l/m 3,0 km/h (1 Bft) S-SW 210 0 min 0,000 mm 0,0 UV-I 0 W/m 2,4 C 3,9 C 4,8 km/h (1 Bft) 94,00 %
31.10.2017 23:30 3,9 C 8,3 C 90 % 1025,9 hPa 0,0 l/m 3,5 km/h (1 Bft) S-SW 210 0 min 0,000 mm 0,0 UV-I 0 W/m 2,4 C 3,9 C 4,8 km/h (1 Bft) 96,00 %
31.10.2017 23:32 3,9 C 8,3 C 90 % 1025,9 hPa 0,0 l/m 3,5 km/h (1 Bft) S-SW 192 0 min 0,000 mm 0,0 UV-I 0 W/m 2,4 C 3,9 C 8,0 km/h (2 Bft) 92,11 %
31.10.2017 23:34 3,9 C 8,3 C 90 % 1025,9 hPa 0,0 l/m 3,8 km/h (1 Bft) S 191 0 min 0,000 mm 0,0 UV-I 0 W/m 2,4 C 3,9 C 6,4 km/h (2 Bft) 95,74 %
31.10.2017 23:36 3,9 C 8,3 C 90 % 1025,8 hPa 0,0 l/m 4,1 km/h (1 Bft) S 190 0 min 0,000 mm 0,0 UV-I 0 W/m 2,4 C 3,9 C 8,0 km/h (2 Bft) 96,00 %
31.10.2017 23:38 3,9 C 8,3 C 90 % 1025,8 hPa 0,0 l/m 5,7 km/h (1 Bft) S 191 0 min 0,000 mm 0,0 UV-I 0 W/m 2,4 C 3,9 C 9,7 km/h (2 Bft) 94,00 %
31.10.2017 23:40 4,0 C 8,3 C 90 % 1025,8 hPa 0,0 l/m 5,5 km/h (1 Bft) S 186 0 min 0,000 mm 0,0 UV-I 0 W/m 2,5 C 4,0 C 8,0 km/h (2 Bft) 97,73 %
31.10.2017 23:42 3,9 C 8,3 C 90 % 1025,8 hPa 0,0 l/m 5,7 km/h (1 Bft) S 186 0 min 0,000 mm 0,0 UV-I 0 W/m 2,4 C 3,9 C 8,0 km/h (2 Bft) 97,73 %
31.10.2017 23:44 3,9 C 8,3 C 90 % 1025,8 hPa 0,0 l/m 5,9 km/h (2 Bft) S 186 0 min 0,000 mm 0,0 UV-I 0 W/m 2,4 C 3,9 C 8,0 km/h (2 Bft) 100,00 %
31.10.2017 23:46 3,9 C 8,3 C 90 % 1025,7 hPa 0,0 l/m 5,9 km/h (2 Bft) S 186 0 min 0,000 mm 0,0 UV-I 0 W/m 2,4 C 3,9 C 8,0 km/h (2 Bft) 100,00 %
31.10.2017 23:48 3,8 C 8,3 C 90 % 1025,8 hPa 0,0 l/m 5,5 km/h (1 Bft) S 186 0 min 0,000 mm 0,0 UV-I 0 W/m 2,3 C 3,8 C 8,0 km/h (2 Bft) 100,00 %
31.10.2017 23:50 3,8 C 8,3 C 90 % 1025,7 hPa 0,0 l/m 5,1 km/h (1 Bft) S 187 0 min 0,000 mm 0,0 UV-I 0 W/m 2,3 C 3,8 C 6,4 km/h (2 Bft) 97,87 %
31.10.2017 23:52 3,8 C 8,3 C 90 % 1025,7 hPa 0,0 l/m 6,0 km/h (2 Bft) S 189 0 min 0,000 mm 0,0 UV-I 0 W/m 2,3 C 3,8 C 8,0 km/h (2 Bft) 100,00 %
31.10.2017 23:54 3,8 C 8,3 C 90 % 1025,8 hPa 0,0 l/m 5,7 km/h (1 Bft) S-SW 210 0 min 0,000 mm 0,0 UV-I 0 W/m 2,3 C 3,8 C 8,0 km/h (2 Bft) 100,00 %
31.10.2017 23:56 3,8 C 8,3 C 90 % 1025,8 hPa 0,0 l/m 6,1 km/h (2 Bft) S-SW 210 0 min 0,000 mm 0,0 UV-I 0 W/m 2,3 C 3,8 C 8,0 km/h (2 Bft) 100,00 %
31.10.2017 23:58 3,8 C 8,3 C 90 % 1025,7 hPa 0,0 l/m 6,4 km/h (2 Bft) S-SW 193 0 min 0,000 mm 0,0 UV-I 0 W/m 2,3 C 3,8 C 9,7 km/h (2 Bft) 100,00 %
_ Min-Zeit 01:14 07:18 12:30 15:32 - 16:30 - - - - - - 01:14 04:14 16:32 08:08
Minimum _ 3,1 C 7,8 C 69 % 1025,3 hPa - 0,0 km/h (0 Bft) - - - - - - 1,6 C -2,1 C 0,0 km/h (0 Bft) 88,00 %
_ Max-Zeit 12:16 00:00 01:32 08:42 00:00 06:56 - - 08:36 11:02 12:04 10:48 12:14 12:24 03:56 01:40
Maximum _ 9,2 C 8,3 C 91 % 1027,3 hPa 0,0 l/m 15,6 km/h
W-SW (3 Bft)
- - 2 min 0,153 mm 1,5 UV-I 601 W/m 4,5 C 9,2 C 24,1 km/h
W-SW (4 Bft)
100,00 %
Durchschnitt _ 5,5 C 8,2 C 84 % 1026,2 hPa #0,0 l/m 6,0 km/h (2 Bft) W-SW - #4:36 h #1,092 mm 0,9 UV-I 193 W/m 3,0 C 4,3 C 9,9 km/h (2 Bft) 98,01 %